GEFSSGP_prec_meanprecacc_030.txt.gz
Total_Precipitation_Accumulation
0.00 0.05 0.12 0.15 0.21 0.10 0.00 0.00 0.00 0.00 0.00 0.00 0.00 0.00 0.00 0.00 0.01 0.05 0.02 0.00 0.00 0.01 0.01 0.04 0.08 0.05 0.03 0.05 0.12 0.22 0.26 0.31 0.35 0.37 0.37 0.16 0.07 0.06 0.08 0.11 0.14 0.14 0.09 0.08 0.12 0.16 0.15 0.12 0.14
0.01 0.07 0.21 0.30 0.26 0.02 0.00 0.00 0.00 0.00 0.00 0.00 0.00 0.00 0.00 0.00 0.00 0.00 0.00 0.02 0.01 0.01 0.05 0.12 0.14 0.09 0.07 0.09 0.18 0.26 0.33 0.39 0.44 0.44 0.31 0.08 0.05 0.08 0.11 0.15 0.19 0.13 0.05 0.04 0.07 0.11 0.10 0.09 0.12
0.02 0.04 0.20 0.35 0.09 0.00 0.00 0.00 0.00 0.00 0.00 0.00 0.00 0.00 0.00 0.00 0.00 0.00 0.00 0.00 0.00 0.02 0.10 0.21 0.20 0.16 0.13 0.15 0.24 0.34 0.40 0.39 0.43 0.41 0.20 0.07 0.06 0.09 0.15 0.20 0.16 0.08 0.03 0.02 0.03 0.06 0.05 0.05 0.06
0.03 0.12 0.27 0.21 0.02 0.00 0.00 0.00 0.00 0.00 0.00 0.00 0.00 0.00 0.00 0.00 0.00 0.00 0.00 0.00 0.01 0.02 0.07 0.14 0.19 0.18 0.17 0.21 0.29 0.32 0.29 0.31 0.39 0.32 0.19 0.09 0.12 0.14 0.16 0.13 0.07 0.03 0.02 0.02 0.01 0.03 0.04 0.04 0.05
0.06 0.24 0.31 0.11 0.01 0.00 0.00 0.00 0.00 0.00 0.00 0.00 0.00 0.00 0.00 0.00 0.00 0.00 0.00 0.00 0.01 0.01 0.02 0.06 0.15 0.15 0.14 0.21 0.28 0.29 0.23 0.29 0.34 0.31 0.24 0.13 0.15 0.17 0.18 0.10 0.03 0.02 0.02 0.02 0.02 0.01 0.02 0.03 0.05
0.20 0.38 0.37 0.12 0.01 0.00 0.00 0.00 0.00 0.00 0.00 0.00 0.00 0.00 0.01 0.00 0.00 0.00 0.00 0.00 0.00 0.00 0.01 0.03 0.10 0.11 0.12 0.18 0.23 0.25 0.24 0.29 0.28 0.22 0.19 0.18 0.14 0.16 0.13 0.07 0.03 0.01 0.02 0.05 0.02 0.01 0.02 0.03 0.06
0.37 0.50 0.41 0.13 0.01 0.00 0.00 0.00 0.00 0.00 0.00 0.00 0.00 0.00 0.01 0.01 0.00 0.00 0.00 0.00 0.00 0.00 0.00 0.02 0.04 0.07 0.11 0.16 0.18 0.22 0.25 0.28 0.25 0.12 0.13 0.19 0.10 0.09 0.06 0.03 0.01 0.01 0.02 0.04 0.02 0.01 0.02 0.05 0.08
0.22 0.43 0.49 0.19 0.02 0.00 0.00 0.00 0.00 0.00 0.00 0.00 0.00 0.00 0.01 0.01 0.00 0.00 0.00 0.00 0.01 0.02 0.02 0.02 0.02 0.04 0.08 0.13 0.16 0.15 0.16 0.20 0.18 0.10 0.12 0.16 0.09 0.06 0.04 0.01 0.00 0.01 0.02 0.04 0.02 0.02 0.04 0.06 0.08
0.15 0.24 0.27 0.18 0.05 0.01 0.00 0.00 0.00 0.00 0.00 0.00 0.00 0.00 0.00 0.00 0.00 0.00 0.00 0.01 0.02 0.04 0.07 0.05 0.02 0.02 0.06 0.13 0.16 0.19 0.19 0.21 0.18 0.13 0.15 0.12 0.08 0.06 0.04 0.02 0.01 0.02 0.05 0.06 0.03 0.03 0.04 0.03 0.05
0.23 0.23 0.13 0.09 0.05 0.02 0.00 0.00 0.00 0.00 0.00 0.00 0.00 0.00 0.00 0.00 0.00 0.00 0.00 0.00 0.02 0.04 0.08 0.08 0.06 0.03 0.02 0.08 0.16 0.23 0.20 0.15 0.15 0.13 0.13 0.12 0.08 0.09 0.04 0.06 0.07 0.03 0.05 0.06 0.04 0.04 0.02 0.00 0.00
0.19 0.15 0.09 0.08 0.04 0.01 0.00 0.00 0.00 0.00 0.00 0.00 0.00 0.00 0.00 0.00 0.00 0.00 0.00 0.00 0.01 0.03 0.05 0.05 0.03 0.02 0.02 0.07 0.15 0.19 0.21 0.20 0.23 0.14 0.13 0.08 0.05 0.03 0.02 0.05 0.08 0.05 0.06 0.04 0.04 0.03 0.02 0.02 0.00
0.14 0.07 0.08 0.06 0.02 0.01 0.00 0.00 0.00 0.00 0.00 0.00 0.00 0.00 0.00 0.00 0.00 0.00 0.00 0.00 0.00 0.02 0.02 0.03 0.04 0.04 0.03 0.02 0.06 0.09 0.11 0.13 0.15 0.14 0.10 0.05 0.04 0.03 0.04 0.05 0.10 0.08 0.03 0.03 0.05 0.04 0.04 0.04 0.01
0.07 0.03 0.03 0.03 0.01 0.01 0.00 0.00 0.00 0.00 0.00 0.00 0.00 0.00 0.00 0.00 0.00 0.00 0.00 0.01 0.01 0.02 0.03 0.04 0.05 0.06 0.07 0.03 0.03 0.03 0.04 0.07 0.14 0.18 0.11 0.04 0.02 0.04 0.07 0.08 0.14 0.10 0.04 0.05 0.08 0.03 0.03 0.04 0.01
0.08 0.04 0.04 0.03 0.02 0.01 0.01 0.00 0.00 0.00 0.00 0.00 0.00 0.00 0.00 0.00 0.00 0.00 0.01 0.01 0.01 0.08 0.14 0.15 0.13 0.14 0.10 0.06 0.05 0.06 0.04 0.05 0.10 0.12 0.09 0.04 0.02 0.03 0.07 0.06 0.08 0.05 0.06 0.08 0.04 0.04 0.05 0.05 0.01
0.03 0.03 0.03 0.01 0.01 0.00 0.00 0.00 0.00 0.00 0.00 0.00 0.00 0.00 0.00 0.00 0.00 0.00 0.00 0.01 0.02 0.08 0.17 0.25 0.24 0.23 0.16 0.11 0.09 0.09 0.06 0.05 0.08 0.13 0.10 0.06 0.03 0.04 0.07 0.05 0.04 0.05 0.08 0.07 0.07 0.10 0.07 0.07 0.02
0.04 0.05 0.03 0.02 0.01 0.01 0.01 0.00 0.01 0.02 0.02 0.02 0.01 0.00 0.00 0.00 0.00 0.00 0.00 0.02 0.03 0.07 0.17 0.24 0.23 0.28 0.24 0.18 0.12 0.14 0.10 0.09 0.13 0.14 0.15 0.12 0.07 0.04 0.08 0.07 0.05 0.11 0.14 0.11 0.09 0.07 0.06 0.07 0.04
0.05 0.05 0.04 0.04 0.05 0.04 0.05 0.03 0.04 0.05 0.04 0.03 0.02 0.01 0.00 0.00 0.00 0.00 0.00 0.01 0.01 0.06 0.13 0.14 0.18 0.37 0.36 0.28 0.30 0.29 0.25 0.27 0.28 0.27 0.28 0.25 0.14 0.09 0.11 0.10 0.06 0.09 0.17 0.16 0.11 0.09 0.11 0.06 0.05
0.13 0.07 0.07 0.08 0.09 0.09 0.10 0.09 0.09 0.09 0.06 0.04 0.03 0.02 0.01 0.00 0.00 0.00 0.00 0.01 0.02 0.07 0.12 0.15 0.21 0.30 0.43 0.56 0.57 0.56 0.53 0.49 0.52 0.53 0.51 0.36 0.27 0.20 0.17 0.14 0.09 0.09 0.18 0.24 0.17 0.19 0.16 0.14 0.11
0.12 0.09 0.08 0.11 0.11 0.09 0.09 0.09 0.09 0.09 0.08 0.06 0.04 0.03 0.01 0.01 0.01 0.00 0.00 0.01 0.03 0.07 0.11 0.14 0.28 0.38 0.51 0.61 0.65 0.74 0.79 0.79 0.79 0.78 0.75 0.60 0.42 0.35 0.30 0.21 0.21 0.19 0.23 0.33 0.33 0.37 0.33 0.24 0.13
0.08 0.08 0.08 0.09 0.09 0.07 0.06 0.05 0.05 0.05 0.06 0.06 0.05 0.04 0.02 0.02 0.01 0.01 0.01 0.03 0.04 0.05 0.09 0.14 0.25 0.41 0.54 0.66 0.72 0.71 0.81 0.85 0.81 0.85 0.83 0.81 0.66 0.53 0.45 0.35 0.38 0.30 0.36 0.54 0.52 0.50 0.45 0.33 0.20
0.08 0.08 0.08 0.07 0.06 0.05 0.03 0.02 0.02 0.02 0.03 0.03 0.03 0.03 0.03 0.02 0.02 0.01 0.00 0.01 0.01 0.03 0.06 0.11 0.19 0.32 0.48 0.60 0.60 0.53 0.52 0.60 0.63 0.63 0.66 0.73 0.79 0.77 0.69 0.62 0.58 0.48 0.44 0.60 0.66 0.63 0.55 0.44 0.29
0.09 0.08 0.07 0.06 0.06 0.05 0.04 0.04 0.01 0.01 0.01 0.01 0.02 0.02 0.02 0.02 0.02 0.01 0.00 0.00 0.00 0.01 0.03 0.05 0.13 0.16 0.20 0.26 0.28 0.28 0.27 0.40 0.54 0.56 0.57 0.59 0.71 0.81 0.82 0.80 0.78 0.63 0.48 0.50 0.59 0.64 0.60 0.57 0.42
0.04 0.04 0.04 0.05 0.07 0.07 0.05 0.07 0.02 0.00 0.01 0.01 0.01 0.01 0.01 0.01 0.01 0.01 0.01 0.01 0.02 0.02 0.02 0.03 0.04 0.03 0.05 0.09 0.14 0.14 0.13 0.23 0.38 0.41 0.42 0.50 0.63 0.68 0.67 0.73 0.79 0.72 0.60 0.58 0.66 0.71 0.72 0.59 0.48
0.01 0.02 0.03 0.04 0.04 0.04 0.03 0.05 0.03 0.01 0.01 0.01 0.01 0.01 0.01 0.01 0.02 0.02 0.03 0.02 0.02 0.02 0.02 0.01 0.01 0.01 0.02 0.04 0.07 0.06 0.07 0.16 0.23 0.33 0.42 0.56 0.67 0.64 0.58 0.63 0.70 0.76 0.71 0.67 0.67 0.72 0.72 0.68 0.66
0.01 0.04 0.07 0.08 0.08 0.05 0.03 0.05 0.05 0.03 0.02 0.02 0.01 0.01 0.02 0.03 0.04 0.05 0.04 0.03 0.03 0.02 0.02 0.01 0.01 0.01 0.00 0.00 0.01 0.02 0.06 0.13 0.14 0.19 0.38 0.52 0.64 0.65 0.64 0.62 0.68 0.74 0.74 0.78 0.84 0.79 0.71 0.68 0.68
0.01 0.03 0.09 0.10 0.11 0.09 0.06 0.06 0.06 0.06 0.04 0.03 0.04 0.05 0.06 0.10 0.13 0.12 0.09 0.06 0.03 0.02 0.02 0.01 0.00 0.00 0.00 0.00 0.01 0.02 0.04 0.10 0.12 0.12 0.26 0.42 0.45 0.46 0.48 0.53 0.62 0.71 0.75 0.80 0.85 0.84 0.79 0.73 0.68
0.01 0.02 0.04 0.07 0.07 0.06 0.06 0.07 0.11 0.09 0.07 0.07 0.09 0.10 0.14 0.20 0.25 0.26 0.22 0.15 0.05 0.02 0.02 0.02 0.02 0.02 0.01 0.02 0.03 0.02 0.03 0.06 0.08 0.09 0.10 0.17 0.26 0.27 0.27 0.34 0.45 0.56 0.64 0.70 0.74 0.77 0.79 0.74 0.67
0.02 0.03 0.05 0.11 0.17 0.15 0.10 0.15 0.18 0.16 0.13 0.15 0.18 0.22 0.25 0.30 0.35 0.37 0.31 0.17 0.07 0.03 0.02 0.03 0.03 0.04 0.05 0.12 0.10 0.04 0.02 0.02 0.04 0.08 0.12 0.13 0.18 0.23 0.27 0.30 0.35 0.41 0.50 0.60 0.65 0.69 0.73 0.68 0.61
0.08 0.11 0.14 0.19 0.21 0.26 0.29 0.37 0.34 0.27 0.24 0.23 0.25 0.32 0.38 0.43 0.45 0.41 0.34 0.23 0.12 0.05 0.03 0.04 0.03 0.04 0.08 0.18 0.21 0.12 0.04 0.04 0.09 0.11 0.11 0.18 0.26 0.30 0.25 0.27 0.36 0.35 0.38 0.45 0.55 0.67 0.77 0.70 0.64
0.20 0.31 0.38 0.47 0.45 0.37 0.43 0.52 0.39 0.27 0.23 0.21 0.19 0.18 0.20 0.28 0.29 0.30 0.27 0.19 0.10 0.05 0.03 0.04 0.05 0.05 0.07 0.12 0.14 0.07 0.04 0.05 0.11 0.15 0.10 0.11 0.15 0.16 0.16 0.20 0.26 0.29 0.35 0.41 0.50 0.61 0.68 0.68 0.61

GEFSSGP_prec_meanprecacc_036.txt.gz
Total_Precipitation_Accumulation
0.00 0.05 0.13 0.17 0.22 0.10 0.00 0.00 0.00 0.00 0.00 0.00 0.00 0.00 0.00 0.00 0.01 0.06 0.02 0.00 0.00 0.01 0.01 0.05 0.11 0.09 0.06 0.07 0.15 0.24 0.27 0.32 0.36 0.39 0.39 0.17 0.07 0.07 0.09 0.11 0.14 0.15 0.10 0.09 0.13 0.18 0.17 0.14 0.16
0.02 0.08 0.23 0.31 0.26 0.02 0.00 0.00 0.00 0.00 0.00 0.00 0.00 0.00 0.00 0.00 0.00 0.00 0.00 0.02 0.01 0.01 0.05 0.13 0.16 0.13 0.09 0.11 0.20 0.27 0.34 0.40 0.46 0.47 0.33 0.10 0.05 0.08 0.11 0.15 0.19 0.13 0.05 0.04 0.08 0.12 0.12 0.10 0.13
0.02 0.06 0.24 0.36 0.10 0.00 0.00 0.00 0.00 0.00 0.00 0.00 0.00 0.00 0.00 0.00 0.00 0.00 0.00 0.00 0.00 0.02 0.10 0.22 0.22 0.18 0.15 0.16 0.25 0.35 0.42 0.40 0.45 0.43 0.23 0.09 0.07 0.09 0.15 0.21 0.17 0.08 0.03 0.02 0.03 0.07 0.06 0.06 0.08
0.04 0.14 0.29 0.21 0.02 0.00 0.00 0.00 0.00 0.00 0.00 0.00 0.00 0.00 0.00 0.00 0.00 0.00 0.00 0.00 0.01 0.02 0.07 0.14 0.20 0.20 0.19 0.23 0.32 0.34 0.31 0.32 0.40 0.35 0.22 0.12 0.13 0.14 0.17 0.14 0.07 0.03 0.02 0.02 0.01 0.03 0.05 0.05 0.07
0.06 0.25 0.31 0.11 0.01 0.00 0.00 0.00 0.00 0.00 0.00 0.00 0.00 0.00 0.00 0.00 0.00 0.00 0.00 0.00 0.01 0.01 0.02 0.07 0.16 0.15 0.16 0.23 0.31 0.32 0.25 0.30 0.36 0.35 0.28 0.15 0.16 0.18 0.18 0.10 0.03 0.02 0.02 0.02 0.02 0.02 0.02 0.04 0.06
0.20 0.39 0.38 0.13 0.01 0.00 0.00 0.00 0.00 0.00 0.00 0.00 0.00 0.00 0.01 0.00 0.00 0.00 0.00 0.00 0.01 0.01 0.01 0.03 0.11 0.12 0.13 0.19 0.25 0.28 0.26 0.31 0.32 0.26 0.22 0.20 0.15 0.16 0.13 0.07 0.03 0.01 0.02 0.05 0.02 0.01 0.02 0.03 0.06
0.38 0.50 0.41 0.14 0.01 0.00 0.00 0.00 0.00 0.00 0.00 0.00 0.00 0.00 0.01 0.01 0.00 0.00 0.00 0.01 0.01 0.01 0.01 0.02 0.04 0.07 0.11 0.18 0.21 0.25 0.27 0.31 0.29 0.16 0.16 0.21 0.11 0.09 0.07 0.03 0.01 0.01 0.02 0.04 0.02 0.01 0.02 0.05 0.08
0.23 0.43 0.50 0.21 0.03 0.00 0.00 0.00 0.00 0.00 0.00 0.00 0.00 0.00 0.01 0.01 0.00 0.00 0.00 0.01 0.01 0.02 0.03 0.02 0.02 0.04 0.08 0.13 0.18 0.17 0.18 0.23 0.20 0.12 0.14 0.18 0.10 0.07 0.04 0.01 0.00 0.01 0.02 0.04 0.02 0.02 0.04 0.06 0.08
0.17 0.25 0.31 0.24 0.07 0.01 0.00 0.00 0.00 0.00 0.00 0.00 0.00 0.00 0.00 0.00 0.00 0.00 0.01 0.01 0.03 0.04 0.07 0.05 0.02 0.02 0.06 0.13 0.17 0.20 0.21 0.23 0.20 0.14 0.17 0.13 0.08 0.06 0.04 0.02 0.01 0.02 0.05 0.06 0.03 0.03 0.04 0.03 0.05
0.25 0.24 0.16 0.13 0.07 0.02 0.00 0.00 0.00 0.00 0.00 0.00 0.00 0.00 0.00 0.00 0.00 0.00 0.00 0.00 0.02 0.04 0.08 0.08 0.06 0.03 0.02 0.08 0.16 0.23 0.21 0.16 0.15 0.14 0.14 0.12 0.08 0.09 0.04 0.06 0.07 0.03 0.05 0.06 0.04 0.04 0.02 0.00 0.00
0.22 0.17 0.12 0.10 0.06 0.02 0.01 0.00 0.00 0.00 0.00 0.00 0.00 0.00 0.00 0.00 0.00 0.00 0.00 0.00 0.01 0.03 0.05 0.05 0.03 0.02 0.02 0.07 0.15 0.19 0.21 0.20 0.23 0.15 0.13 0.08 0.05 0.03 0.02 0.05 0.08 0.05 0.06 0.04 0.04 0.03 0.02 0.02 0.00
0.17 0.10 0.11 0.09 0.05 0.03 0.01 0.00 0.00 0.00 0.00 0.00 0.00 0.00 0.00 0.00 0.00 0.00 0.00 0.00 0.00 0.02 0.02 0.03 0.04 0.04 0.03 0.02 0.06 0.09 0.11 0.13 0.15 0.14 0.10 0.05 0.04 0.03 0.04 0.05 0.10 0.08 0.03 0.03 0.05 0.04 0.04 0.04 0.01
0.11 0.05 0.04 0.05 0.04 0.02 0.02 0.01 0.00 0.00 0.00 0.00 0.00 0.00 0.00 0.00 0.00 0.00 0.00 0.01 0.01 0.02 0.03 0.04 0.05 0.06 0.07 0.03 0.03 0.03 0.04 0.07 0.14 0.18 0.11 0.04 0.02 0.05 0.07 0.08 0.14 0.10 0.04 0.05 0.08 0.03 0.03 0.04 0.01
0.11 0.06 0.06 0.06 0.05 0.03 0.02 0.01 0.01 0.00 0.00 0.00 0.00 0.00 0.00 0.00 0.00 0.00 0.01 0.01 0.01 0.08 0.14 0.15 0.13 0.14 0.10 0.06 0.05 0.06 0.04 0.05 0.10 0.12 0.09 0.04 0.02 0.03 0.07 0.06 0.08 0.05 0.06 0.08 0.04 0.04 0.05 0.05 0.01
0.05 0.06 0.06 0.04 0.03 0.02 0.02 0.01 0.01 0.01 0.01 0.00 0.00 0.00 0.00 0.00 0.00 0.00 0.00 0.01 0.02 0.08 0.17 0.25 0.24 0.23 0.16 0.11 0.09 0.09 0.06 0.05 0.08 0.13 0.10 0.06 0.04 0.04 0.09 0.06 0.04 0.06 0.08 0.07 0.07 0.10 0.07 0.07 0.02
0.06 0.06 0.04 0.03 0.02 0.02 0.02 0.01 0.02 0.04 0.04 0.03 0.02 0.01 0.00 0.00 0.00 0.00 0.00 0.02 0.03 0.07 0.17 0.24 0.23 0.28 0.24 0.18 0.12 0.14 0.10 0.09 0.13 0.14 0.16 0.14 0.08 0.05 0.11 0.10 0.07 0.13 0.15 0.11 0.10 0.07 0.06 0.07 0.04
0.05 0.06 0.04 0.04 0.05 0.05 0.05 0.04 0.06 0.09 0.09 0.07 0.06 0.04 0.02 0.01 0.01 0.00 0.00 0.01 0.01 0.06 0.13 0.14 0.18 0.37 0.36 0.28 0.31 0.30 0.25 0.27 0.28 0.28 0.31 0.28 0.19 0.16 0.18 0.18 0.13 0.13 0.20 0.18 0.13 0.09 0.11 0.06 0.05
0.13 0.07 0.07 0.08 0.09 0.09 0.10 0.10 0.11 0.13 0.11 0.09 0.08 0.06 0.04 0.02 0.02 0.01 0.01 0.01 0.02 0.07 0.12 0.15 0.21 0.30 0.43 0.56 0.57 0.57 0.54 0.51 0.53 0.55 0.55 0.42 0.37 0.32 0.30 0.30 0.26 0.22 0.25 0.28 0.20 0.21 0.18 0.15 0.12
0.13 0.10 0.09 0.11 0.11 0.09 0.09 0.09 0.10 0.11 0.11 0.09 0.08 0.06 0.04 0.03 0.03 0.02 0.01 0.02 0.04 0.07 0.11 0.14 0.28 0.39 0.51 0.61 0.66 0.76 0.82 0.84 0.83 0.82 0.82 0.68 0.51 0.47 0.43 0.35 0.40 0.39 0.37 0.43 0.40 0.42 0.37 0.27 0.15
0.09 0.09 0.09 0.09 0.09 0.07 0.06 0.05 0.05 0.06 0.07 0.07 0.07 0.06 0.04 0.04 0.03 0.02 0.02 0.04 0.04 0.05 0.09 0.14 0.25 0.42 0.56 0.69 0.76 0.78 0.89 0.92 0.88 0.92 0.90 0.90 0.75 0.65 0.57 0.48 0.53 0.49 0.58 0.73 0.66 0.61 0.55 0.40 0.25
0.08 0.08 0.08 0.07 0.06 0.05 0.03 0.02 0.02 0.02 0.03 0.03 0.04 0.04 0.04 0.03 0.03 0.02 0.01 0.02 0.02 0.03 0.07 0.13 0.23 0.39 0.56 0.70 0.71 0.65 0.63 0.70 0.73 0.71 0.76 0.83 0.90 0.88 0.81 0.76 0.72 0.64 0.65 0.82 0.87 0.83 0.74 0.62 0.44
0.09 0.08 0.07 0.06 0.06 0.05 0.04 0.04 0.01 0.01 0.01 0.01 0.02 0.02 0.03 0.03 0.02 0.02 0.01 0.01 0.02 0.03 0.06 0.11 0.23 0.32 0.40 0.47 0.48 0.46 0.42 0.52 0.63 0.65 0.66 0.68 0.79 0.89 0.91 0.90 0.89 0.78 0.68 0.75 0.89 0.94 0.92 0.91 0.74
0.04 0.04 0.05 0.06 0.07 0.07 0.05 0.07 0.02 0.00 0.01 0.01 0.01 0.01 0.02 0.02 0.02 0.03 0.04 0.04 0.06 0.06 0.09 0.14 0.23 0.29 0.32 0.38 0.41 0.38 0.30 0.34 0.46 0.48 0.49 0.56 0.69 0.74 0.74 0.80 0.89 0.84 0.74 0.77 0.94 1.04 1.11 1.01 0.88
0.01 0.02 0.03 0.04 0.04 0.04 0.03 0.05 0.04 0.01 0.01 0.01 0.01 0.01 0.02 0.03 0.05 0.07 0.10 0.10 0.11 0.12 0.14 0.19 0.29 0.39 0.40 0.34 0.29 0.22 0.19 0.24 0.29 0.37 0.47 0.60 0.71 0.68 0.62 0.68 0.75 0.82 0.79 0.78 0.83 0.95 1.03 1.07 1.07
0.01 0.04 0.08 0.08 0.08 0.06 0.03 0.06 0.05 0.03 0.02 0.02 0.02 0.02 0.05 0.08 0.13 0.18 0.21 0.21 0.19 0.21 0.23 0.27 0.30 0.30 0.25 0.18 0.14 0.13 0.14 0.18 0.17 0.22 0.40 0.53 0.66 0.67 0.66 0.64 0.70 0.77 0.78 0.84 0.93 0.92 0.90 0.98 1.02
0.01 0.04 0.10 0.11 0.11 0.09 0.07 0.09 0.09 0.08 0.05 0.05 0.05 0.07 0.10 0.16 0.25 0.34 0.39 0.39 0.32 0.29 0.28 0.24 0.20 0.16 0.13 0.10 0.08 0.07 0.08 0.14 0.13 0.13 0.27 0.42 0.46 0.47 0.48 0.54 0.62 0.73 0.78 0.84 0.89 0.91 0.91 0.92 0.92
0.01 0.02 0.05 0.09 0.09 0.08 0.08 0.11 0.14 0.12 0.09 0.10 0.12 0.13 0.18 0.27 0.36 0.48 0.55 0.56 0.45 0.33 0.25 0.21 0.17 0.13 0.10 0.09 0.08 0.06 0.06 0.08 0.10 0.10 0.11 0.17 0.26 0.27 0.27 0.34 0.45 0.57 0.66 0.73 0.77 0.81 0.87 0.87 0.83
0.02 0.04 0.07 0.15 0.22 0.19 0.16 0.23 0.23 0.20 0.17 0.18 0.22 0.26 0.31 0.40 0.47 0.57 0.61 0.56 0.48 0.40 0.31 0.21 0.14 0.14 0.13 0.19 0.15 0.08 0.05 0.04 0.05 0.08 0.12 0.13 0.18 0.23 0.27 0.30 0.35 0.41 0.51 0.61 0.66 0.71 0.76 0.72 0.67
0.09 0.12 0.17 0.25 0.28 0.34 0.37 0.46 0.40 0.32 0.31 0.29 0.29 0.37 0.44 0.49 0.54 0.57 0.58 0.55 0.41 0.29 0.25 0.19 0.13 0.13 0.16 0.25 0.26 0.15 0.07 0.07 0.11 0.11 0.12 0.18 0.26 0.30 0.25 0.27 0.36 0.35 0.38 0.46 0.55 0.68 0.78 0.72 0.67
0.22 0.33 0.41 0.53 0.53 0.46 0.53 0.62 0.48 0.35 0.33 0.31 0.27 0.23 0.26 0.35 0.38 0.42 0.43 0.36 0.27 0.20 0.16 0.16 0.16 0.15 0.16 0.21 0.20 0.12 0.08 0.09 0.14 0.17 0.11 0.12 0.15 0.17 0.17 0.21 0.26 0.30 0.35 0.41 0.51 0.61 0.68 0.69 0.62

GEFSSGP_prec_meanprecacc_042.txt.gz
Total_Precipitation_Accumulation
0.00 0.05 0.13 0.17 0.22 0.10 0.00 0.00 0.00 0.00 0.00 0.00 0.00 0.00 0.00 0.00 0.01 0.08 0.03 0.00 0.00 0.01 0.01 0.06 0.11 0.09 0.06 0.08 0.16 0.25 0.29 0.34 0.38 0.41 0.40 0.18 0.07 0.07 0.09 0.11 0.14 0.15 0.11 0.10 0.16 0.22 0.21 0.18 0.18
0.02 0.08 0.23 0.31 0.26 0.02 0.00 0.00 0.00 0.00 0.00 0.00 0.00 0.00 0.00 0.00 0.00 0.00 0.00 0.02 0.01 0.01 0.05 0.13 0.17 0.13 0.10 0.12 0.22 0.29 0.36 0.42 0.50 0.49 0.34 0.10 0.06 0.08 0.11 0.16 0.19 0.14 0.06 0.06 0.10 0.16 0.17 0.15 0.18
0.02 0.06 0.24 0.36 0.10 0.00 0.00 0.00 0.00 0.00 0.00 0.00 0.00 0.00 0.00 0.00 0.00 0.00 0.00 0.00 0.00 0.02 0.10 0.22 0.22 0.19 0.17 0.18 0.28 0.38 0.45 0.44 0.51 0.48 0.25 0.10 0.08 0.10 0.15 0.21 0.17 0.08 0.04 0.03 0.05 0.09 0.10 0.10 0.12
0.04 0.14 0.29 0.21 0.02 0.00 0.00 0.00 0.00 0.00 0.00 0.00 0.00 0.00 0.00 0.00 0.00 0.00 0.00 0.00 0.01 0.02 0.07 0.14 0.21 0.20 0.20 0.24 0.34 0.37 0.35 0.36 0.45 0.39 0.24 0.13 0.13 0.14 0.17 0.14 0.07 0.04 0.03 0.02 0.02 0.05 0.06 0.07 0.08
0.06 0.25 0.31 0.11 0.01 0.00 0.00 0.00 0.00 0.00 0.00 0.00 0.00 0.00 0.00 0.00 0.00 0.00 0.00 0.00 0.01 0.01 0.02 0.07 0.17 0.16 0.17 0.24 0.33 0.34 0.29 0.35 0.41 0.38 0.31 0.16 0.16 0.18 0.18 0.10 0.03 0.02 0.02 0.02 0.02 0.02 0.03 0.04 0.07
0.20 0.39 0.38 0.13 0.01 0.00 0.00 0.00 0.00 0.00 0.00 0.00 0.00 0.00 0.01 0.00 0.00 0.00 0.00 0.01 0.01 0.01 0.01 0.03 0.12 0.13 0.14 0.20 0.27 0.30 0.30 0.37 0.38 0.30 0.25 0.22 0.16 0.17 0.13 0.07 0.03 0.01 0.02 0.05 0.02 0.01 0.02 0.04 0.08
0.38 0.50 0.41 0.14 0.01 0.00 0.00 0.00 0.00 0.00 0.00 0.00 0.00 0.00 0.01 0.01 0.00 0.00 0.00 0.01 0.01 0.01 0.01 0.02 0.05 0.07 0.12 0.19 0.22 0.26 0.30 0.37 0.36 0.22 0.19 0.23 0.13 0.10 0.07 0.03 0.01 0.01 0.02 0.04 0.02 0.01 0.02 0.05 0.09
0.23 0.43 0.50 0.21 0.03 0.00 0.00 0.00 0.00 0.00 0.00 0.00 0.00 0.00 0.01 0.01 0.00 0.00 0.00 0.01 0.01 0.02 0.03 0.02 0.02 0.05 0.09 0.14 0.19 0.20 0.21 0.29 0.27 0.17 0.17 0.20 0.12 0.07 0.04 0.01 0.00 0.01 0.02 0.04 0.02 0.02 0.04 0.06 0.09
0.17 0.25 0.31 0.24 0.07 0.01 0.00 0.00 0.00 0.00 0.00 0.00 0.00 0.00 0.00 0.00 0.00 0.00 0.01 0.01 0.03 0.04 0.07 0.05 0.02 0.02 0.07 0.15 0.18 0.23 0.26 0.29 0.25 0.19 0.20 0.15 0.09 0.07 0.04 0.02 0.01 0.02 0.05 0.06 0.03 0.03 0.04 0.03 0.05
0.25 0.24 0.16 0.13 0.07 0.02 0.00 0.00 0.00 0.00 0.00 0.00 0.00 0.00 0.00 0.00 0.00 0.00 0.00 0.00 0.02 0.04 0.08 0.08 0.06 0.03 0.02 0.08 0.18 0.27 0.25 0.20 0.19 0.18 0.16 0.13 0.09 0.09 0.04 0.06 0.07 0.03 0.05 0.06 0.04 0.04 0.02 0.00 0.01
0.22 0.18 0.13 0.10 0.06 0.02 0.01 0.00 0.00 0.00 0.00 0.00 0.00 0.00 0.00 0.00 0.00 0.00 0.00 0.00 0.01 0.03 0.05 0.05 0.03 0.02 0.02 0.07 0.16 0.22 0.25 0.25 0.27 0.17 0.14 0.09 0.05 0.03 0.02 0.05 0.08 0.05 0.06 0.04 0.04 0.03 0.02 0.02 0.01
0.18 0.10 0.11 0.09 0.05 0.03 0.01 0.00 0.00 0.00 0.00 0.00 0.00 0.00 0.00 0.00 0.00 0.00 0.00 0.00 0.00 0.02 0.02 0.03 0.04 0.04 0.03 0.02 0.07 0.10 0.12 0.15 0.18 0.15 0.10 0.06 0.04 0.03 0.04 0.05 0.10 0.08 0.03 0.03 0.05 0.04 0.04 0.04 0.01
0.12 0.05 0.04 0.06 0.04 0.03 0.02 0.01 0.00 0.00 0.00 0.00 0.00 0.00 0.00 0.00 0.00 0.00 0.00 0.01 0.01 0.02 0.03 0.04 0.05 0.06 0.07 0.03 0.03 0.03 0.04 0.08 0.15 0.19 0.12 0.04 0.02 0.05 0.07 0.08 0.14 0.10 0.04 0.05 0.08 0.03 0.03 0.05 0.02
0.12 0.07 0.07 0.07 0.06 0.04 0.02 0.01 0.01 0.01 0.00 0.00 0.00 0.00 0.00 0.00 0.00 0.00 0.01 0.01 0.01 0.08 0.14 0.15 0.13 0.14 0.10 0.06 0.05 0.06 0.04 0.05 0.10 0.13 0.09 0.04 0.02 0.03 0.07 0.06 0.08 0.05 0.06 0.08 0.04 0.04 0.05 0.06 0.01
0.07 0.07 0.07 0.05 0.04 0.03 0.02 0.01 0.01 0.01 0.01 0.01 0.00 0.00 0.00 0.00 0.00 0.00 0.00 0.01 0.02 0.08 0.17 0.25 0.24 0.23 0.16 0.11 0.09 0.09 0.06 0.05 0.08 0.13 0.10 0.06 0.04 0.04 0.09 0.06 0.04 0.06 0.08 0.07 0.07 0.10 0.07 0.07 0.02
0.07 0.07 0.05 0.03 0.02 0.02 0.02 0.02 0.03 0.04 0.04 0.03 0.02 0.01 0.01 0.00 0.00 0.00 0.00 0.02 0.03 0.07 0.17 0.24 0.23 0.28 0.24 0.18 0.12 0.14 0.10 0.09 0.13 0.15 0.16 0.14 0.09 0.06 0.12 0.13 0.10 0.13 0.15 0.11 0.10 0.07 0.06 0.08 0.05
0.06 0.06 0.04 0.05 0.05 0.05 0.05 0.05 0.06 0.09 0.09 0.07 0.06 0.04 0.03 0.02 0.01 0.01 0.01 0.02 0.01 0.07 0.13 0.14 0.18 0.37 0.37 0.28 0.31 0.30 0.25 0.27 0.28 0.28 0.31 0.29 0.21 0.18 0.24 0.29 0.22 0.17 0.22 0.20 0.14 0.10 0.12 0.08 0.08
0.14 0.08 0.07 0.08 0.09 0.09 0.10 0.10 0.11 0.13 0.11 0.09 0.08 0.07 0.05 0.03 0.04 0.04 0.04 0.04 0.04 0.08 0.12 0.15 0.21 0.30 0.43 0.56 0.58 0.58 0.54 0.52 0.54 0.55 0.56 0.44 0.40 0.39 0.43 0.48 0.44 0.33 0.33 0.34 0.24 0.23 0.21 0.19 0.17
0.13 0.10 0.09 0.11 0.11 0.09 0.09 0.09 0.10 0.11 0.11 0.10 0.08 0.06 0.05 0.04 0.05 0.04 0.05 0.06 0.08 0.10 0.13 0.15 0.28 0.39 0.52 0.62 0.69 0.80 0.87 0.89 0.86 0.85 0.84 0.70 0.55 0.56 0.61 0.56 0.64 0.59 0.54 0.58 0.49 0.48 0.42 0.31 0.19
0.09 0.09 0.09 0.09 0.09 0.07 0.06 0.05 0.05 0.06 0.07 0.07 0.07 0.06 0.05 0.04 0.04 0.04 0.05 0.07 0.08 0.09 0.11 0.15 0.26 0.43 0.59 0.74 0.88 0.93 1.06 1.07 1.01 1.04 0.97 0.96 0.83 0.76 0.71 0.67 0.76 0.73 0.80 0.94 0.82 0.74 0.66 0.48 0.29
0.08 0.09 0.09 0.08 0.07 0.05 0.03 0.02 0.02 0.02 0.03 0.03 0.04 0.04 0.04 0.04 0.04 0.03 0.03 0.04 0.05 0.06 0.09 0.14 0.23 0.41 0.64 0.86 0.98 0.98 0.99 1.06 1.04 0.96 0.93 0.95 1.01 1.03 0.95 0.90 0.90 0.84 0.84 1.03 1.09 1.00 0.90 0.76 0.53
0.10 0.08 0.08 0.07 0.07 0.05 0.04 0.04 0.01 0.01 0.01 0.01 0.02 0.02 0.03 0.03 0.02 0.02 0.02 0.02 0.04 0.06 0.08 0.12 0.25 0.38 0.55 0.73 0.88 0.92 0.95 1.08 1.10 0.99 0.87 0.83 0.90 1.01 1.03 1.00 1.00 0.91 0.81 0.91 1.06 1.09 1.07 1.07 0.87
0.04 0.04 0.05 0.06 0.08 0.07 0.05 0.07 0.03 0.00 0.01 0.01 0.01 0.01 0.02 0.02 0.03 0.03 0.04 0.05 0.07 0.08 0.10 0.17 0.29 0.41 0.56 0.71 0.85 0.94 0.93 0.94 0.94 0.83 0.73 0.71 0.79 0.82 0.81 0.87 0.96 0.91 0.82 0.86 1.04 1.14 1.21 1.11 1.01
0.01 0.02 0.04 0.04 0.05 0.05 0.03 0.06 0.05 0.02 0.01 0.01 0.01 0.01 0.02 0.03 0.05 0.08 0.12 0.12 0.12 0.14 0.16 0.24 0.37 0.55 0.68 0.71 0.74 0.74 0.76 0.79 0.73 0.70 0.69 0.75 0.79 0.75 0.68 0.72 0.79 0.86 0.82 0.81 0.87 1.01 1.09 1.14 1.16
0.01 0.05 0.09 0.09 0.10 0.07 0.05 0.08 0.08 0.05 0.03 0.02 0.02 0.02 0.05 0.08 0.14 0.20 0.24 0.26 0.25 0.27 0.32 0.40 0.46 0.53 0.56 0.53 0.52 0.53 0.57 0.60 0.53 0.51 0.60 0.65 0.74 0.72 0.70 0.67 0.72 0.79 0.80 0.86 0.95 0.94 0.93 1.03 1.08
0.01 0.04 0.11 0.13 0.14 0.12 0.12 0.14 0.13 0.10 0.06 0.05 0.06 0.07 0.11 0.17 0.26 0.36 0.44 0.47 0.44 0.42 0.42 0.38 0.36 0.35 0.34 0.33 0.34 0.34 0.35 0.39 0.36 0.30 0.38 0.49 0.51 0.50 0.50 0.55 0.64 0.74 0.79 0.84 0.90 0.92 0.93 0.94 0.95
0.01 0.03 0.06 0.12 0.12 0.13 0.14 0.19 0.20 0.14 0.10 0.11 0.13 0.14 0.19 0.30 0.40 0.52 0.61 0.65 0.62 0.51 0.40 0.35 0.29 0.28 0.26 0.24 0.24 0.24 0.23 0.23 0.22 0.19 0.17 0.21 0.29 0.29 0.28 0.35 0.46 0.57 0.66 0.73 0.77 0.81 0.87 0.88 0.85
0.02 0.04 0.09 0.18 0.27 0.25 0.23 0.31 0.32 0.25 0.20 0.21 0.25 0.29 0.34 0.46 0.54 0.64 0.69 0.67 0.63 0.63 0.53 0.39 0.27 0.26 0.28 0.35 0.32 0.24 0.19 0.16 0.15 0.15 0.17 0.15 0.19 0.24 0.27 0.30 0.35 0.41 0.51 0.62 0.66 0.71 0.76 0.72 0.68
0.09 0.13 0.19 0.28 0.34 0.43 0.50 0.58 0.50 0.40 0.38 0.36 0.36 0.46 0.53 0.59 0.65 0.67 0.72 0.68 0.54 0.47 0.45 0.40 0.30 0.28 0.30 0.40 0.41 0.28 0.18 0.15 0.18 0.17 0.15 0.19 0.26 0.30 0.26 0.27 0.36 0.35 0.38 0.46 0.55 0.68 0.78 0.73 0.68
0.22 0.34 0.43 0.57 0.58 0.54 0.73 0.84 0.63 0.49 0.48 0.46 0.40 0.36 0.41 0.52 0.54 0.57 0.64 0.59 0.44 0.37 0.30 0.30 0.30 0.29 0.30 0.34 0.33 0.24 0.17 0.16 0.19 0.21 0.13 0.12 0.16 0.17 0.17 0.21 0.27 0.30 0.35 0.41 0.51 0.61 0.68 0.70 0.62

GEFSSGP_prec_meanprecacc_048.txt.gz
Total_Precipitation_Accumulation
0.00 0.05 0.13 0.18 0.28 0.13 0.00 0.00 0.00 0.00 0.00 0.00 0.00 0.00 0.00 0.00 0.04 0.22 0.07 0.00 0.00 0.01 0.01 0.06 0.11 0.09 0.06 0.08 0.16 0.25 0.29 0.34 0.39 0.41 0.41 0.18 0.08 0.08 0.09 0.12 0.15 0.16 0.12 0.12 0.18 0.25 0.23 0.20 0.22
0.02 0.08 0.24 0.37 0.33 0.03 0.00 0.00 0.00 0.00 0.00 0.00 0.00 0.00 0.00 0.00 0.00 0.01 0.00 0.02 0.01 0.01 0.05 0.13 0.17 0.14 0.10 0.12 0.22 0.30 0.36 0.42 0.51 0.50 0.35 0.11 0.06 0.09 0.12 0.16 0.20 0.15 0.08 0.08 0.12 0.18 0.19 0.17 0.21
0.02 0.06 0.25 0.42 0.11 0.00 0.00 0.00 0.00 0.00 0.00 0.00 0.00 0.00 0.00 0.00 0.00 0.00 0.00 0.00 0.00 0.02 0.10 0.22 0.23 0.19 0.17 0.18 0.28 0.40 0.46 0.45 0.52 0.48 0.25 0.11 0.08 0.10 0.15 0.21 0.17 0.09 0.06 0.05 0.06 0.10 0.11 0.12 0.14
0.05 0.14 0.30 0.22 0.02 0.00 0.00 0.00 0.00 0.00 0.00 0.00 0.00 0.00 0.00 0.00 0.00 0.00 0.00 0.00 0.01 0.02 0.07 0.15 0.21 0.21 0.20 0.25 0.35 0.39 0.36 0.37 0.46 0.40 0.25 0.13 0.14 0.15 0.17 0.14 0.08 0.04 0.04 0.03 0.03 0.06 0.07 0.08 0.09
0.06 0.25 0.32 0.11 0.01 0.00 0.00 0.00 0.00 0.00 0.00 0.00 0.00 0.00 0.00 0.00 0.00 0.00 0.00 0.00 0.01 0.01 0.02 0.07 0.17 0.16 0.17 0.24 0.33 0.36 0.30 0.36 0.42 0.40 0.32 0.17 0.17 0.18 0.19 0.10 0.04 0.02 0.02 0.03 0.02 0.03 0.04 0.05 0.07
0.20 0.39 0.39 0.13 0.01 0.00 0.00 0.00 0.00 0.00 0.00 0.00 0.00 0.00 0.01 0.00 0.00 0.00 0.00 0.01 0.01 0.01 0.01 0.04 0.12 0.13 0.14 0.21 0.28 0.31 0.31 0.39 0.41 0.33 0.26 0.24 0.17 0.17 0.13 0.07 0.03 0.01 0.03 0.05 0.02 0.01 0.02 0.04 0.08
0.38 0.51 0.43 0.15 0.02 0.00 0.00 0.00 0.00 0.00 0.00 0.00 0.00 0.00 0.01 0.01 0.00 0.00 0.00 0.01 0.01 0.01 0.01 0.03 0.05 0.07 0.12 0.19 0.23 0.27 0.32 0.40 0.40 0.26 0.21 0.25 0.15 0.10 0.07 0.03 0.01 0.01 0.02 0.04 0.02 0.01 0.03 0.06 0.10
0.23 0.43 0.50 0.22 0.03 0.00 0.00 0.00 0.00 0.00 0.00 0.00 0.00 0.00 0.01 0.01 0.00 0.00 0.00 0.01 0.01 0.02 0.03 0.02 0.03 0.06 0.10 0.15 0.19 0.21 0.23 0.32 0.31 0.21 0.20 0.22 0.13 0.08 0.04 0.01 0.00 0.01 0.02 0.04 0.02 0.02 0.04 0.06 0.09
0.17 0.25 0.32 0.24 0.07 0.02 0.00 0.00 0.00 0.00 0.00 0.00 0.00 0.00 0.00 0.00 0.00 0.00 0.01 0.01 0.03 0.04 0.07 0.05 0.03 0.03 0.08 0.17 0.20 0.25 0.28 0.32 0.29 0.23 0.21 0.15 0.11 0.09 0.05 0.02 0.01 0.02 0.05 0.06 0.03 0.03 0.04 0.04 0.05
0.25 0.26 0.21 0.15 0.07 0.03 0.00 0.00 0.00 0.00 0.00 0.00 0.00 0.00 0.00 0.00 0.00 0.00 0.00 0.00 0.02 0.04 0.08 0.08 0.07 0.03 0.02 0.09 0.24 0.35 0.33 0.25 0.23 0.26 0.20 0.17 0.14 0.14 0.05 0.06 0.07 0.03 0.05 0.06 0.04 0.04 0.02 0.00 0.01
0.22 0.18 0.15 0.12 0.06 0.02 0.01 0.00 0.00 0.00 0.00 0.00 0.00 0.00 0.00 0.00 0.00 0.00 0.00 0.00 0.01 0.03 0.05 0.05 0.03 0.02 0.02 0.08 0.20 0.32 0.39 0.38 0.41 0.30 0.26 0.19 0.11 0.05 0.03 0.05 0.08 0.05 0.06 0.04 0.04 0.03 0.02 0.02 0.01
0.18 0.10 0.12 0.09 0.05 0.03 0.01 0.00 0.00 0.01 0.01 0.00 0.00 0.00 0.00 0.00 0.00 0.00 0.00 0.00 0.00 0.02 0.02 0.03 0.04 0.04 0.03 0.02 0.08 0.14 0.18 0.22 0.24 0.22 0.16 0.13 0.08 0.05 0.04 0.05 0.10 0.08 0.03 0.03 0.05 0.04 0.04 0.04 0.01
0.13 0.06 0.05 0.06 0.04 0.03 0.02 0.01 0.01 0.02 0.01 0.00 0.00 0.00 0.00 0.00 0.00 0.01 0.01 0.01 0.01 0.02 0.03 0.04 0.05 0.06 0.07 0.03 0.03 0.04 0.06 0.10 0.17 0.23 0.14 0.07 0.04 0.05 0.07 0.08 0.14 0.10 0.04 0.05 0.08 0.03 0.03 0.05 0.02
0.13 0.07 0.07 0.07 0.06 0.04 0.03 0.02 0.02 0.02 0.01 0.00 0.00 0.00 0.00 0.01 0.01 0.02 0.02 0.02 0.02 0.08 0.14 0.15 0.14 0.14 0.10 0.06 0.05 0.06 0.04 0.07 0.12 0.14 0.10 0.05 0.02 0.03 0.07 0.06 0.08 0.05 0.06 0.08 0.04 0.04 0.05 0.06 0.01
0.07 0.07 0.07 0.05 0.04 0.03 0.02 0.02 0.03 0.02 0.01 0.01 0.00 0.00 0.01 0.01 0.02 0.02 0.02 0.03 0.04 0.09 0.18 0.26 0.24 0.23 0.16 0.11 0.09 0.10 0.06 0.05 0.09 0.14 0.11 0.07 0.04 0.05 0.09 0.06 0.05 0.06 0.08 0.07 0.07 0.10 0.07 0.07 0.02
0.07 0.07 0.06 0.04 0.03 0.02 0.03 0.05 0.07 0.07 0.05 0.04 0.02 0.01 0.01 0.02 0.02 0.02 0.03 0.05 0.05 0.08 0.18 0.26 0.26 0.29 0.24 0.18 0.12 0.14 0.10 0.09 0.13 0.15 0.16 0.14 0.09 0.06 0.13 0.15 0.11 0.14 0.15 0.11 0.10 0.07 0.06 0.08 0.05
0.06 0.07 0.05 0.07 0.08 0.07 0.07 0.08 0.10 0.11 0.10 0.08 0.06 0.04 0.03 0.03 0.04 0.04 0.04 0.05 0.04 0.08 0.14 0.16 0.21 0.39 0.37 0.28 0.31 0.30 0.25 0.27 0.29 0.29 0.32 0.30 0.22 0.20 0.26 0.32 0.25 0.19 0.23 0.20 0.14 0.10 0.13 0.09 0.09
0.14 0.09 0.09 0.10 0.11 0.10 0.11 0.11 0.12 0.14 0.11 0.09 0.08 0.07 0.05 0.04 0.05 0.07 0.07 0.07 0.06 0.10 0.14 0.17 0.23 0.32 0.44 0.57 0.58 0.58 0.56 0.54 0.57 0.60 0.60 0.47 0.42 0.41 0.47 0.53 0.47 0.36 0.36 0.36 0.25 0.24 0.23 0.21 0.19
0.14 0.10 0.10 0.13 0.12 0.10 0.10 0.10 0.10 0.11 0.11 0.10 0.08 0.07 0.05 0.05 0.06 0.06 0.06 0.07 0.09 0.12 0.14 0.17 0.30 0.41 0.54 0.64 0.72 0.86 0.95 0.97 0.95 0.94 0.92 0.78 0.62 0.62 0.70 0.65 0.73 0.69 0.62 0.63 0.52 0.54 0.51 0.37 0.22
0.09 0.10 0.09 0.10 0.09 0.08 0.07 0.06 0.06 0.06 0.07 0.07 0.07 0.06 0.05 0.04 0.04 0.04 0.05 0.08 0.09 0.09 0.12 0.17 0.27 0.46 0.63 0.82 0.98 1.06 1.18 1.21 1.17 1.18 1.12 1.09 0.97 0.91 0.83 0.82 0.93 0.89 0.94 1.05 0.90 0.88 0.82 0.59 0.36
0.08 0.09 0.09 0.08 0.07 0.05 0.04 0.04 0.03 0.03 0.04 0.04 0.04 0.04 0.04 0.04 0.04 0.03 0.03 0.04 0.05 0.07 0.09 0.15 0.24 0.42 0.67 0.94 1.11 1.16 1.23 1.37 1.39 1.28 1.20 1.18 1.21 1.23 1.11 1.03 1.07 1.02 1.03 1.21 1.25 1.15 1.06 0.93 0.66
0.10 0.08 0.08 0.07 0.07 0.06 0.05 0.07 0.05 0.05 0.05 0.04 0.03 0.04 0.03 0.03 0.02 0.02 0.02 0.02 0.04 0.06 0.09 0.12 0.26 0.39 0.58 0.79 1.00 1.13 1.25 1.46 1.48 1.35 1.21 1.13 1.17 1.24 1.21 1.16 1.16 1.08 1.00 1.09 1.20 1.20 1.22 1.24 1.01
0.05 0.04 0.05 0.06 0.08 0.07 0.05 0.09 0.09 0.06 0.09 0.08 0.06 0.05 0.03 0.02 0.03 0.03 0.04 0.05 0.07 0.08 0.11 0.17 0.30 0.43 0.61 0.81 1.02 1.21 1.29 1.34 1.37 1.24 1.11 1.03 1.05 1.06 1.03 1.09 1.16 1.10 1.01 1.02 1.16 1.25 1.35 1.27 1.17
0.01 0.02 0.04 0.04 0.05 0.05 0.04 0.09 0.15 0.13 0.10 0.08 0.07 0.06 0.04 0.03 0.06 0.08 0.12 0.13 0.13 0.15 0.17 0.25 0.39 0.58 0.73 0.82 0.92 0.98 1.08 1.22 1.23 1.20 1.13 1.11 1.07 0.95 0.86 0.89 0.96 1.01 0.99 0.97 1.03 1.14 1.22 1.26 1.28
0.01 0.05 0.09 0.10 0.12 0.10 0.07 0.15 0.23 0.17 0.12 0.11 0.10 0.08 0.07 0.09 0.15 0.20 0.25 0.27 0.27 0.29 0.34 0.42 0.49 0.57 0.61 0.61 0.66 0.75 0.83 0.91 0.93 0.96 1.05 1.08 1.09 1.00 0.90 0.80 0.85 0.92 0.93 0.96 1.05 1.04 1.03 1.13 1.20
0.01 0.04 0.12 0.15 0.17 0.17 0.18 0.30 0.34 0.27 0.19 0.15 0.12 0.10 0.12 0.18 0.27 0.38 0.47 0.51 0.48 0.45 0.46 0.42 0.41 0.42 0.43 0.45 0.49 0.54 0.57 0.61 0.62 0.60 0.69 0.79 0.78 0.72 0.66 0.66 0.74 0.85 0.89 0.91 0.96 0.99 0.99 1.00 1.01
0.02 0.03 0.06 0.14 0.14 0.17 0.25 0.39 0.39 0.27 0.19 0.16 0.16 0.16 0.21 0.32 0.44 0.57 0.68 0.72 0.69 0.58 0.47 0.43 0.39 0.39 0.36 0.37 0.40 0.42 0.43 0.44 0.41 0.38 0.35 0.38 0.42 0.41 0.39 0.44 0.54 0.64 0.71 0.78 0.82 0.86 0.91 0.91 0.89
0.02 0.04 0.10 0.21 0.31 0.32 0.33 0.44 0.47 0.37 0.26 0.25 0.28 0.32 0.40 0.52 0.60 0.71 0.79 0.77 0.76 0.77 0.65 0.50 0.40 0.39 0.41 0.48 0.44 0.37 0.32 0.29 0.27 0.27 0.30 0.28 0.32 0.35 0.34 0.35 0.39 0.45 0.54 0.64 0.69 0.73 0.79 0.74 0.70
0.09 0.13 0.20 0.31 0.39 0.51 0.63 0.75 0.61 0.47 0.45 0.42 0.42 0.54 0.64 0.70 0.74 0.77 0.84 0.81 0.68 0.64 0.61 0.55 0.45 0.42 0.42 0.50 0.50 0.38 0.29 0.28 0.30 0.28 0.27 0.31 0.38 0.40 0.30 0.30 0.38 0.38 0.40 0.47 0.57 0.70 0.80 0.74 0.69
0.23 0.35 0.44 0.61 0.63 0.60 0.84 1.00 0.73 0.57 0.58 0.58 0.54 0.53 0.55 0.67 0.75 0.79 0.85 0.78 0.63 0.55 0.46 0.48 0.49 0.47 0.48 0.50 0.48 0.40 0.33 0.33 0.39 0.38 0.27 0.26 0.28 0.26 0.24 0.27 0.30 0.31 0.36 0.42 0.51 0.62 0.69 0.70 0.64

GEFSSGP_prec_meanprecacc_054.txt.gz
Total_Precipitation_Accumulation
0.01 0.09 0.18 0.22 0.32 0.14 0.00 0.00 0.00 0.00 0.00 0.00 0.00 0.00 0.00 0.00 0.05 0.23 0.07 0.01 0.00 0.01 0.01 0.06 0.12 0.09 0.06 0.08 0.16 0.25 0.30 0.34 0.39 0.42 0.41 0.18 0.08 0.08 0.09 0.12 0.15 0.17 0.13 0.12 0.19 0.26 0.24 0.22 0.24
0.04 0.14 0.29 0.44 0.36 0.03 0.00 0.00 0.00 0.00 0.00 0.00 0.00 0.00 0.00 0.00 0.00 0.01 0.01 0.02 0.01 0.01 0.05 0.13 0.17 0.14 0.10 0.12 0.22 0.30 0.37 0.43 0.51 0.50 0.35 0.11 0.06 0.10 0.12 0.16 0.20 0.15 0.08 0.09 0.13 0.19 0.20 0.18 0.22
0.04 0.09 0.30 0.51 0.12 0.00 0.00 0.00 0.00 0.00 0.00 0.00 0.00 0.00 0.00 0.00 0.00 0.00 0.01 0.01 0.00 0.02 0.10 0.22 0.23 0.19 0.17 0.18 0.29 0.40 0.46 0.46 0.52 0.49 0.25 0.11 0.08 0.10 0.15 0.21 0.17 0.10 0.06 0.05 0.07 0.11 0.12 0.12 0.14
0.07 0.17 0.36 0.27 0.03 0.00 0.00 0.00 0.00 0.00 0.00 0.00 0.00 0.00 0.00 0.00 0.00 0.00 0.00 0.00 0.01 0.02 0.07 0.15 0.21 0.21 0.20 0.25 0.35 0.39 0.36 0.37 0.47 0.40 0.25 0.14 0.14 0.15 0.17 0.14 0.08 0.05 0.04 0.04 0.04 0.07 0.08 0.09 0.10
0.09 0.31 0.40 0.13 0.01 0.00 0.00 0.00 0.00 0.00 0.00 0.00 0.00 0.00 0.00 0.00 0.00 0.00 0.00 0.00 0.01 0.01 0.02 0.07 0.17 0.16 0.17 0.24 0.33 0.36 0.30 0.37 0.43 0.41 0.33 0.17 0.17 0.18 0.19 0.10 0.04 0.02 0.03 0.03 0.03 0.04 0.04 0.05 0.08
0.22 0.48 0.47 0.17 0.02 0.00 0.00 0.00 0.00 0.00 0.00 0.00 0.00 0.00 0.01 0.00 0.00 0.00 0.00 0.01 0.01 0.01 0.01 0.04 0.12 0.13 0.14 0.21 0.28 0.31 0.31 0.40 0.42 0.33 0.27 0.24 0.18 0.17 0.13 0.07 0.03 0.01 0.03 0.05 0.02 0.01 0.02 0.04 0.09
0.40 0.61 0.54 0.19 0.03 0.01 0.00 0.00 0.00 0.00 0.00 0.00 0.00 0.00 0.01 0.01 0.00 0.00 0.00 0.01 0.01 0.01 0.01 0.03 0.05 0.07 0.12 0.19 0.23 0.27 0.32 0.42 0.42 0.27 0.22 0.25 0.15 0.10 0.07 0.03 0.01 0.01 0.02 0.04 0.02 0.01 0.03 0.06 0.10
0.23 0.51 0.63 0.27 0.05 0.01 0.00 0.00 0.00 0.00 0.00 0.00 0.00 0.00 0.01 0.01 0.00 0.00 0.01 0.01 0.01 0.02 0.03 0.02 0.03 0.06 0.10 0.15 0.20 0.21 0.24 0.33 0.32 0.21 0.20 0.22 0.13 0.08 0.04 0.01 0.00 0.01 0.02 0.04 0.02 0.02 0.04 0.06 0.09
0.18 0.32 0.46 0.38 0.13 0.05 0.01 0.00 0.00 0.00 0.00 0.00 0.00 0.00 0.00 0.00 0.00 0.00 0.01 0.01 0.03 0.04 0.07 0.05 0.03 0.03 0.09 0.17 0.20 0.26 0.28 0.33 0.29 0.23 0.21 0.16 0.11 0.09 0.05 0.02 0.01 0.02 0.05 0.06 0.03 0.03 0.04 0.04 0.05
0.26 0.31 0.32 0.32 0.18 0.07 0.03 0.01 0.01 0.01 0.00 0.00 0.00 0.00 0.00 0.00 0.00 0.00 0.00 0.01 0.02 0.04 0.08 0.09 0.07 0.03 0.02 0.09 0.24 0.36 0.33 0.26 0.24 0.26 0.20 0.17 0.14 0.14 0.05 0.06 0.07 0.03 0.05 0.06 0.04 0.04 0.02 0.00 0.01
0.24 0.22 0.21 0.26 0.17 0.06 0.03 0.02 0.02 0.02 0.01 0.01 0.00 0.01 0.01 0.01 0.01 0.01 0.01 0.01 0.02 0.04 0.07 0.06 0.04 0.03 0.02 0.08 0.20 0.32 0.39 0.38 0.41 0.30 0.26 0.19 0.12 0.05 0.03 0.05 0.08 0.05 0.06 0.04 0.04 0.03 0.02 0.02 0.01
0.19 0.13 0.15 0.18 0.09 0.04 0.03 0.03 0.04 0.04 0.04 0.02 0.01 0.01 0.02 0.03 0.03 0.03 0.03 0.02 0.01 0.03 0.04 0.06 0.08 0.07 0.05 0.04 0.08 0.14 0.19 0.22 0.24 0.22 0.17 0.14 0.09 0.07 0.04 0.05 0.10 0.08 0.03 0.03 0.05 0.04 0.04 0.04 0.02
0.14 0.07 0.06 0.08 0.05 0.04 0.04 0.05 0.06 0.07 0.06 0.03 0.03 0.03 0.05 0.06 0.05 0.05 0.04 0.04 0.03 0.04 0.05 0.07 0.10 0.12 0.11 0.07 0.05 0.06 0.07 0.10 0.17 0.24 0.16 0.08 0.05 0.06 0.08 0.08 0.14 0.10 0.04 0.05 0.08 0.03 0.03 0.05 0.02
0.14 0.09 0.10 0.10 0.08 0.06 0.06 0.07 0.08 0.09 0.07 0.04 0.05 0.06 0.08 0.10 0.10 0.11 0.09 0.07 0.06 0.12 0.18 0.18 0.18 0.20 0.16 0.10 0.08 0.09 0.07 0.09 0.15 0.16 0.12 0.06 0.04 0.04 0.08 0.06 0.08 0.05 0.06 0.08 0.04 0.04 0.05 0.06 0.01
0.08 0.09 0.09 0.08 0.08 0.09 0.08 0.09 0.11 0.12 0.09 0.07 0.07 0.08 0.11 0.13 0.14 0.15 0.15 0.13 0.11 0.16 0.25 0.32 0.29 0.27 0.21 0.15 0.13 0.15 0.11 0.10 0.13 0.17 0.13 0.09 0.06 0.05 0.10 0.07 0.05 0.06 0.08 0.08 0.07 0.10 0.07 0.07 0.02
0.07 0.09 0.08 0.09 0.12 0.14 0.12 0.15 0.18 0.19 0.14 0.11 0.09 0.09 0.11 0.14 0.15 0.16 0.17 0.18 0.16 0.19 0.28 0.35 0.33 0.35 0.31 0.26 0.21 0.21 0.17 0.15 0.18 0.19 0.19 0.17 0.13 0.09 0.15 0.16 0.13 0.15 0.16 0.12 0.10 0.07 0.06 0.08 0.06
0.08 0.10 0.09 0.12 0.15 0.17 0.17 0.19 0.19 0.20 0.16 0.15 0.13 0.10 0.09 0.11 0.15 0.18 0.18 0.18 0.18 0.23 0.28 0.29 0.33 0.49 0.48 0.38 0.41 0.42 0.38 0.41 0.42 0.38 0.38 0.34 0.27 0.24 0.30 0.36 0.29 0.22 0.25 0.22 0.15 0.11 0.13 0.09 0.09
0.15 0.10 0.10 0.12 0.13 0.14 0.17 0.19 0.18 0.20 0.18 0.16 0.15 0.12 0.10 0.09 0.12 0.14 0.15 0.16 0.18 0.23 0.28 0.32 0.38 0.46 0.55 0.67 0.70 0.74 0.75 0.73 0.78 0.75 0.70 0.54 0.48 0.47 0.51 0.58 0.52 0.40 0.40 0.40 0.28 0.27 0.25 0.23 0.21
0.14 0.11 0.10 0.13 0.13 0.12 0.15 0.17 0.17 0.17 0.16 0.13 0.11 0.10 0.08 0.07 0.08 0.08 0.09 0.13 0.16 0.20 0.24 0.29 0.43 0.55 0.68 0.77 0.86 1.05 1.17 1.21 1.17 1.12 1.08 0.92 0.73 0.73 0.79 0.73 0.82 0.76 0.68 0.68 0.56 0.57 0.54 0.41 0.26
0.10 0.10 0.10 0.11 0.10 0.09 0.10 0.11 0.10 0.10 0.11 0.10 0.09 0.08 0.06 0.05 0.05 0.05 0.06 0.08 0.11 0.13 0.19 0.26 0.38 0.59 0.78 0.95 1.12 1.27 1.45 1.51 1.49 1.50 1.40 1.34 1.18 1.08 0.96 0.95 1.05 1.00 1.01 1.10 0.94 0.92 0.87 0.65 0.41
0.08 0.09 0.09 0.08 0.08 0.06 0.05 0.07 0.07 0.07 0.07 0.07 0.06 0.06 0.06 0.05 0.05 0.04 0.03 0.04 0.06 0.08 0.12 0.19 0.30 0.50 0.77 1.05 1.24 1.39 1.55 1.75 1.80 1.69 1.58 1.53 1.50 1.45 1.29 1.20 1.21 1.15 1.13 1.29 1.31 1.20 1.12 0.99 0.72
0.10 0.08 0.08 0.07 0.08 0.07 0.06 0.10 0.11 0.10 0.11 0.09 0.08 0.08 0.08 0.08 0.07 0.06 0.04 0.03 0.04 0.06 0.09 0.13 0.27 0.42 0.62 0.88 1.14 1.34 1.55 1.82 1.85 1.76 1.66 1.58 1.56 1.56 1.47 1.39 1.36 1.24 1.12 1.20 1.32 1.30 1.31 1.34 1.10
0.05 0.04 0.05 0.06 0.08 0.07 0.06 0.11 0.13 0.13 0.16 0.16 0.15 0.16 0.15 0.12 0.12 0.09 0.06 0.06 0.07 0.09 0.12 0.18 0.31 0.44 0.63 0.86 1.12 1.36 1.51 1.64 1.76 1.73 1.65 1.52 1.47 1.41 1.34 1.36 1.40 1.29 1.17 1.17 1.30 1.40 1.48 1.38 1.29
0.01 0.02 0.04 0.04 0.05 0.05 0.04 0.11 0.20 0.19 0.18 0.17 0.18 0.18 0.14 0.11 0.11 0.12 0.13 0.14 0.14 0.16 0.19 0.26 0.39 0.58 0.74 0.84 0.96 1.07 1.22 1.44 1.54 1.61 1.61 1.58 1.47 1.32 1.22 1.22 1.24 1.23 1.18 1.16 1.21 1.30 1.37 1.41 1.44
0.01 0.05 0.09 0.10 0.13 0.11 0.09 0.19 0.30 0.25 0.19 0.19 0.19 0.16 0.16 0.18 0.20 0.23 0.26 0.29 0.29 0.31 0.36 0.43 0.50 0.58 0.63 0.63 0.70 0.81 0.93 1.05 1.11 1.21 1.37 1.38 1.36 1.28 1.20 1.13 1.16 1.19 1.16 1.18 1.25 1.22 1.20 1.29 1.35
0.01 0.05 0.12 0.16 0.18 0.20 0.24 0.37 0.42 0.34 0.26 0.22 0.18 0.15 0.18 0.23 0.32 0.42 0.49 0.54 0.51 0.48 0.49 0.44 0.43 0.43 0.44 0.47 0.53 0.60 0.64 0.71 0.75 0.76 0.90 1.02 0.99 0.92 0.86 0.86 0.93 1.03 1.07 1.10 1.13 1.15 1.15 1.14 1.14
0.02 0.03 0.06 0.14 0.15 0.20 0.32 0.48 0.48 0.34 0.27 0.24 0.22 0.19 0.24 0.37 0.50 0.63 0.73 0.78 0.73 0.63 0.53 0.46 0.42 0.43 0.40 0.41 0.45 0.49 0.51 0.53 0.53 0.53 0.52 0.55 0.60 0.59 0.55 0.58 0.67 0.79 0.89 0.94 0.96 1.00 1.03 1.03 1.00
0.02 0.04 0.10 0.22 0.33 0.35 0.38 0.50 0.57 0.47 0.35 0.32 0.34 0.39 0.47 0.62 0.70 0.81 0.88 0.85 0.83 0.85 0.73 0.56 0.47 0.48 0.48 0.57 0.53 0.44 0.39 0.37 0.35 0.37 0.41 0.39 0.44 0.49 0.48 0.48 0.52 0.58 0.66 0.76 0.80 0.84 0.88 0.82 0.78
0.09 0.13 0.20 0.32 0.41 0.54 0.67 0.80 0.67 0.55 0.52 0.49 0.50 0.66 0.75 0.81 0.87 0.90 0.97 0.90 0.77 0.73 0.70 0.66 0.58 0.54 0.53 0.63 0.62 0.50 0.41 0.38 0.38 0.36 0.34 0.40 0.47 0.50 0.41 0.42 0.51 0.51 0.55 0.59 0.67 0.77 0.86 0.79 0.74
0.23 0.35 0.45 0.61 0.64 0.62 0.86 1.05 0.77 0.62 0.63 0.64 0.61 0.60 0.61 0.76 0.87 0.91 0.98 0.88 0.71 0.64 0.54 0.58 0.63 0.61 0.61 0.63 0.59 0.52 0.49 0.49 0.52 0.51 0.40 0.40 0.43 0.41 0.41 0.45 0.47 0.47 0.50 0.54 0.62 0.70 0.75 0.75 0.67

GEFSSGP_prec_meanprecacc_060.txt.gz
Total_Precipitation_Accumulation
0.01 0.10 0.20 0.24 0.32 0.14 0.00 0.00 0.00 0.00 0.00 0.00 0.00 0.00 0.00 0.00 0.05 0.24 0.07 0.01 0.00 0.01 0.01 0.06 0.13 0.10 0.07 0.09 0.17 0.26 0.30 0.35 0.39 0.42 0.41 0.19 0.08 0.08 0.10 0.13 0.16 0.17 0.13 0.13 0.20 0.27 0.25 0.22 0.25
0.04 0.16 0.32 0.46 0.36 0.03 0.00 0.00 0.00 0.00 0.00 0.00 0.00 0.00 0.00 0.00 0.00 0.01 0.01 0.02 0.01 0.01 0.05 0.13 0.17 0.14 0.11 0.13 0.23 0.31 0.37 0.43 0.51 0.51 0.35 0.11 0.07 0.10 0.13 0.17 0.21 0.16 0.09 0.09 0.14 0.20 0.20 0.19 0.23
0.05 0.11 0.32 0.52 0.12 0.00 0.00 0.00 0.00 0.00 0.00 0.00 0.00 0.00 0.00 0.00 0.00 0.01 0.01 0.01 0.00 0.02 0.10 0.22 0.23 0.20 0.17 0.19 0.30 0.41 0.47 0.46 0.52 0.49 0.25 0.11 0.08 0.10 0.16 0.21 0.18 0.10 0.07 0.06 0.08 0.12 0.13 0.14 0.16
0.07 0.18 0.38 0.28 0.03 0.00 0.00 0.00 0.00 0.00 0.00 0.00 0.00 0.00 0.00 0.00 0.00 0.00 0.00 0.00 0.01 0.02 0.07 0.15 0.22 0.21 0.20 0.25 0.36 0.40 0.37 0.38 0.47 0.40 0.25 0.14 0.14 0.15 0.17 0.14 0.08 0.05 0.04 0.04 0.04 0.07 0.08 0.10 0.11
0.09 0.31 0.40 0.14 0.01 0.00 0.00 0.00 0.00 0.00 0.00 0.00 0.00 0.00 0.00 0.00 0.00 0.01 0.00 0.00 0.01 0.01 0.02 0.08 0.17 0.17 0.17 0.25 0.34 0.37 0.31 0.37 0.43 0.41 0.33 0.17 0.17 0.18 0.19 0.10 0.04 0.03 0.03 0.03 0.03 0.04 0.04 0.06 0.09
0.23 0.49 0.47 0.17 0.03 0.00 0.00 0.00 0.00 0.00 0.00 0.00 0.00 0.00 0.01 0.01 0.01 0.01 0.00 0.01 0.01 0.01 0.01 0.04 0.12 0.13 0.15 0.21 0.28 0.32 0.32 0.41 0.42 0.33 0.28 0.24 0.18 0.17 0.13 0.07 0.03 0.02 0.03 0.05 0.02 0.02 0.03 0.05 0.09
0.40 0.61 0.55 0.20 0.04 0.01 0.00 0.00 0.00 0.00 0.00 0.00 0.00 0.00 0.01 0.01 0.01 0.01 0.01 0.01 0.01 0.01 0.01 0.03 0.05 0.08 0.12 0.19 0.23 0.28 0.33 0.42 0.42 0.27 0.22 0.25 0.15 0.10 0.07 0.03 0.01 0.01 0.02 0.04 0.02 0.01 0.03 0.06 0.11
0.23 0.52 0.64 0.28 0.06 0.02 0.01 0.00 0.00 0.00 0.00 0.00 0.00 0.00 0.01 0.01 0.01 0.02 0.03 0.03 0.04 0.04 0.04 0.03 0.03 0.06 0.10 0.15 0.20 0.21 0.24 0.33 0.32 0.22 0.21 0.22 0.13 0.08 0.04 0.01 0.00 0.01 0.02 0.04 0.02 0.02 0.04 0.06 0.09
0.18 0.33 0.48 0.40 0.15 0.06 0.02 0.01 0.01 0.01 0.00 0.00 0.00 0.00 0.00 0.00 0.01 0.02 0.05 0.07 0.09 0.10 0.12 0.09 0.05 0.04 0.09 0.18 0.21 0.26 0.29 0.33 0.30 0.23 0.21 0.16 0.11 0.09 0.05 0.02 0.01 0.02 0.05 0.06 0.03 0.03 0.04 0.04 0.06
0.27 0.33 0.35 0.35 0.20 0.09 0.04 0.02 0.02 0.03 0.02 0.01 0.01 0.01 0.01 0.01 0.02 0.04 0.05 0.08 0.11 0.14 0.17 0.16 0.13 0.07 0.05 0.10 0.24 0.36 0.33 0.26 0.24 0.26 0.20 0.17 0.14 0.14 0.05 0.06 0.07 0.03 0.05 0.06 0.04 0.04 0.02 0.00 0.01
0.25 0.25 0.24 0.27 0.19 0.08 0.05 0.04 0.05 0.05 0.03 0.02 0.02 0.03 0.04 0.05 0.05 0.06 0.08 0.10 0.13 0.17 0.19 0.16 0.12 0.09 0.06 0.10 0.21 0.33 0.40 0.39 0.42 0.30 0.26 0.19 0.12 0.05 0.03 0.05 0.08 0.05 0.06 0.04 0.04 0.03 0.02 0.02 0.01
0.21 0.15 0.17 0.20 0.11 0.08 0.07 0.07 0.08 0.08 0.07 0.06 0.07 0.08 0.09 0.11 0.12 0.13 0.15 0.16 0.17 0.18 0.21 0.20 0.17 0.15 0.11 0.07 0.11 0.18 0.23 0.25 0.26 0.23 0.17 0.14 0.09 0.07 0.05 0.06 0.10 0.08 0.03 0.03 0.05 0.04 0.04 0.04 0.02
0.16 0.11 0.10 0.12 0.10 0.11 0.11 0.12 0.12 0.13 0.11 0.10 0.12 0.13 0.15 0.17 0.17 0.17 0.17 0.18 0.18 0.21 0.25 0.28 0.28 0.26 0.22 0.14 0.11 0.11 0.12 0.15 0.22 0.27 0.17 0.08 0.05 0.06 0.08 0.08 0.14 0.10 0.04 0.05 0.08 0.03 0.03 0.05 0.02
0.16 0.12 0.15 0.16 0.15 0.13 0.13 0.14 0.14 0.15 0.13 0.11 0.15 0.19 0.22 0.23 0.23 0.23 0.21 0.20 0.20 0.28 0.38 0.42 0.40 0.41 0.34 0.22 0.18 0.21 0.20 0.19 0.21 0.21 0.14 0.08 0.05 0.05 0.08 0.07 0.08 0.05 0.06 0.08 0.04 0.04 0.05 0.06 0.01
0.10 0.11 0.12 0.12 0.13 0.14 0.15 0.15 0.15 0.17 0.15 0.14 0.16 0.20 0.24 0.26 0.26 0.27 0.27 0.25 0.24 0.32 0.44 0.54 0.52 0.52 0.45 0.35 0.34 0.36 0.33 0.27 0.24 0.26 0.19 0.13 0.09 0.07 0.11 0.09 0.07 0.07 0.09 0.08 0.08 0.10 0.07 0.07 0.02
0.08 0.10 0.10 0.12 0.15 0.18 0.18 0.20 0.21 0.24 0.20 0.19 0.18 0.19 0.23 0.26 0.28 0.28 0.28 0.28 0.27 0.32 0.42 0.54 0.53 0.57 0.58 0.52 0.49 0.46 0.40 0.35 0.36 0.36 0.32 0.25 0.17 0.12 0.19 0.20 0.16 0.18 0.19 0.14 0.11 0.08 0.06 0.08 0.06
0.09 0.11 0.09 0.13 0.17 0.19 0.20 0.22 0.22 0.23 0.21 0.20 0.18 0.17 0.18 0.20 0.24 0.26 0.26 0.27 0.29 0.34 0.41 0.44 0.50 0.68 0.70 0.64 0.67 0.67 0.62 0.61 0.60 0.59 0.54 0.48 0.38 0.33 0.37 0.43 0.34 0.26 0.28 0.24 0.17 0.12 0.15 0.11 0.11
0.16 0.10 0.11 0.12 0.14 0.15 0.19 0.20 0.20 0.22 0.20 0.19 0.18 0.17 0.16 0.17 0.21 0.23 0.22 0.23 0.25 0.31 0.36 0.42 0.50 0.60 0.71 0.85 0.91 0.98 0.96 0.91 0.97 0.97 0.90 0.71 0.62 0.60 0.63 0.67 0.59 0.46 0.44 0.44 0.31 0.29 0.27 0.25 0.23
0.14 0.11 0.10 0.14 0.14 0.13 0.15 0.17 0.17 0.17 0.16 0.14 0.13 0.12 0.11 0.10 0.13 0.12 0.13 0.16 0.19 0.23 0.29 0.35 0.51 0.65 0.79 0.91 1.03 1.24 1.36 1.41 1.38 1.38 1.38 1.19 0.95 0.94 0.97 0.87 0.93 0.86 0.77 0.75 0.61 0.61 0.57 0.43 0.29
0.10 0.10 0.10 0.12 0.11 0.09 0.10 0.11 0.10 0.10 0.11 0.11 0.09 0.08 0.07 0.06 0.06 0.06 0.06 0.09 0.11 0.14 0.21 0.28 0.41 0.63 0.85 1.06 1.24 1.42 1.67 1.74 1.72 1.78 1.71 1.62 1.44 1.34 1.19 1.15 1.24 1.17 1.17 1.21 1.01 0.98 0.93 0.69 0.45
0.09 0.09 0.09 0.09 0.08 0.07 0.06 0.08 0.07 0.08 0.08 0.07 0.07 0.07 0.07 0.06 0.06 0.05 0.04 0.05 0.06 0.08 0.12 0.19 0.30 0.51 0.80 1.10 1.33 1.51 1.71 1.94 1.99 1.88 1.81 1.81 1.83 1.80 1.60 1.46 1.45 1.38 1.34 1.46 1.44 1.32 1.22 1.07 0.80
0.10 0.08 0.08 0.07 0.08 0.08 0.07 0.11 0.12 0.12 0.13 0.11 0.10 0.11 0.10 0.09 0.09 0.08 0.05 0.04 0.05 0.07 0.10 0.14 0.28 0.42 0.63 0.89 1.17 1.40 1.65 1.93 1.99 1.94 1.91 1.90 1.95 1.96 1.85 1.73 1.66 1.54 1.39 1.44 1.51 1.46 1.45 1.45 1.19
0.05 0.04 0.05 0.06 0.08 0.08 0.07 0.12 0.15 0.15 0.18 0.18 0.18 0.19 0.17 0.14 0.14 0.11 0.09 0.08 0.09 0.10 0.13 0.19 0.31 0.45 0.64 0.86 1.14 1.40 1.60 1.75 1.89 1.88 1.82 1.74 1.74 1.73 1.65 1.67 1.70 1.61 1.48 1.46 1.56 1.62 1.65 1.53 1.41
0.01 0.02 0.04 0.04 0.06 0.06 0.05 0.12 0.21 0.21 0.20 0.18 0.20 0.20 0.16 0.13 0.14 0.15 0.17 0.16 0.15 0.17 0.20 0.28 0.40 0.59 0.75 0.85 0.97 1.09 1.27 1.52 1.62 1.71 1.72 1.72 1.65 1.54 1.45 1.50 1.55 1.53 1.47 1.41 1.43 1.51 1.55 1.57 1.57
0.01 0.05 0.09 0.10 0.13 0.11 0.09 0.20 0.31 0.26 0.21 0.20 0.20 0.18 0.18 0.20 0.24 0.28 0.31 0.32 0.31 0.32 0.39 0.46 0.53 0.60 0.64 0.65 0.71 0.83 0.97 1.12 1.19 1.30 1.48 1.51 1.51 1.44 1.38 1.36 1.43 1.47 1.43 1.45 1.49 1.43 1.38 1.45 1.48
0.01 0.05 0.12 0.16 0.18 0.21 0.25 0.39 0.43 0.35 0.27 0.23 0.20 0.17 0.20 0.27 0.37 0.49 0.55 0.60 0.55 0.52 0.53 0.49 0.49 0.48 0.48 0.50 0.55 0.62 0.69 0.78 0.83 0.86 1.00 1.12 1.11 1.04 0.98 1.02 1.11 1.24 1.30 1.34 1.36 1.35 1.30 1.28 1.27
0.02 0.03 0.06 0.14 0.15 0.21 0.34 0.51 0.50 0.35 0.28 0.26 0.25 0.22 0.27 0.40 0.54 0.69 0.81 0.87 0.81 0.70 0.61 0.56 0.52 0.51 0.45 0.45 0.49 0.53 0.56 0.59 0.60 0.61 0.59 0.62 0.68 0.68 0.66 0.69 0.79 0.91 1.02 1.09 1.13 1.18 1.20 1.17 1.13
0.02 0.04 0.10 0.22 0.33 0.36 0.39 0.52 0.59 0.48 0.37 0.35 0.37 0.43 0.53 0.68 0.76 0.88 0.96 0.93 0.91 0.92 0.82 0.66 0.56 0.56 0.54 0.61 0.58 0.49 0.45 0.43 0.43 0.45 0.49 0.46 0.51 0.57 0.58 0.58 0.62 0.69 0.77 0.86 0.91 0.96 1.00 0.95 0.89
0.09 0.13 0.20 0.32 0.42 0.56 0.68 0.81 0.69 0.56 0.54 0.52 0.54 0.71 0.81 0.89 0.95 0.99 1.05 0.97 0.84 0.80 0.77 0.76 0.69 0.62 0.60 0.69 0.69 0.56 0.48 0.45 0.45 0.42 0.40 0.45 0.54 0.59 0.52 0.53 0.60 0.61 0.64 0.67 0.74 0.85 0.95 0.89 0.83
0.23 0.35 0.45 0.61 0.65 0.63 0.86 1.05 0.78 0.63 0.65 0.66 0.64 0.63 0.65 0.81 0.92 0.96 1.03 0.93 0.76 0.70 0.60 0.65 0.72 0.70 0.69 0.71 0.68 0.60 0.56 0.56 0.59 0.57 0.46 0.46 0.51 0.49 0.49 0.54 0.55 0.54 0.57 0.60 0.67 0.77 0.82 0.82 0.74

GEFSSGP_prec_meanprecacc_066.txt.gz
Total_Precipitation_Accumulation
0.01 0.10 0.20 0.24 0.32 0.14 0.00 0.00 0.00 0.00 0.00 0.00 0.00 0.00 0.00 0.01 0.07 0.26 0.08 0.01 0.00 0.01 0.01 0.07 0.14 0.11 0.08 0.10 0.19 0.28 0.31 0.35 0.40 0.43 0.42 0.20 0.10 0.10 0.11 0.14 0.17 0.18 0.14 0.15 0.23 0.30 0.27 0.24 0.27
0.04 0.16 0.32 0.46 0.36 0.03 0.00 0.00 0.00 0.00 0.00 0.00 0.00 0.00 0.00 0.00 0.00 0.01 0.01 0.02 0.01 0.01 0.05 0.14 0.18 0.15 0.11 0.14 0.25 0.33 0.38 0.43 0.52 0.52 0.36 0.12 0.08 0.12 0.14 0.18 0.21 0.17 0.10 0.10 0.15 0.22 0.23 0.21 0.25
0.05 0.11 0.33 0.52 0.12 0.00 0.00 0.00 0.00 0.00 0.00 0.00 0.00 0.00 0.00 0.00 0.00 0.01 0.01 0.01 0.00 0.02 0.10 0.23 0.24 0.21 0.18 0.21 0.31 0.42 0.48 0.47 0.53 0.50 0.26 0.12 0.10 0.12 0.17 0.23 0.19 0.11 0.08 0.07 0.09 0.13 0.15 0.16 0.17
0.07 0.18 0.38 0.28 0.03 0.00 0.00 0.00 0.00 0.00 0.00 0.00 0.00 0.00 0.00 0.01 0.01 0.01 0.00 0.00 0.01 0.02 0.07 0.16 0.23 0.22 0.21 0.27 0.38 0.42 0.38 0.38 0.48 0.41 0.26 0.14 0.15 0.16 0.19 0.16 0.09 0.06 0.05 0.05 0.05 0.08 0.10 0.12 0.13
0.09 0.31 0.40 0.14 0.01 0.00 0.00 0.00 0.00 0.00 0.00 0.00 0.00 0.00 0.01 0.02 0.02 0.02 0.01 0.00 0.01 0.01 0.03 0.08 0.18 0.17 0.18 0.26 0.36 0.40 0.33 0.39 0.44 0.41 0.34 0.18 0.17 0.19 0.19 0.11 0.06 0.03 0.04 0.04 0.03 0.04 0.05 0.07 0.10
0.23 0.49 0.47 0.18 0.03 0.01 0.00 0.00 0.00 0.00 0.00 0.00 0.00 0.00 0.02 0.03 0.03 0.03 0.01 0.01 0.01 0.01 0.01 0.04 0.13 0.14 0.16 0.22 0.30 0.34 0.35 0.43 0.43 0.34 0.29 0.25 0.18 0.18 0.14 0.08 0.04 0.02 0.04 0.06 0.03 0.02 0.03 0.05 0.10
0.40 0.61 0.55 0.20 0.04 0.02 0.01 0.00 0.00 0.00 0.01 0.00 0.00 0.00 0.02 0.04 0.04 0.03 0.03 0.03 0.02 0.01 0.01 0.04 0.07 0.10 0.14 0.21 0.25 0.31 0.36 0.45 0.44 0.29 0.24 0.28 0.16 0.11 0.07 0.04 0.01 0.01 0.02 0.04 0.02 0.02 0.04 0.06 0.11
0.23 0.52 0.65 0.29 0.08 0.05 0.01 0.01 0.00 0.01 0.01 0.01 0.01 0.00 0.02 0.04 0.05 0.05 0.06 0.06 0.07 0.07 0.06 0.05 0.06 0.08 0.13 0.19 0.24 0.26 0.29 0.38 0.36 0.26 0.24 0.26 0.15 0.09 0.05 0.02 0.00 0.01 0.03 0.05 0.02 0.02 0.05 0.07 0.09
0.18 0.33 0.50 0.43 0.18 0.09 0.03 0.01 0.01 0.01 0.02 0.02 0.02 0.02 0.03 0.05 0.06 0.07 0.09 0.10 0.14 0.15 0.17 0.13 0.09 0.09 0.14 0.22 0.24 0.31 0.35 0.40 0.37 0.30 0.27 0.20 0.14 0.11 0.06 0.02 0.02 0.02 0.05 0.06 0.03 0.04 0.05 0.04 0.06
0.27 0.34 0.36 0.36 0.21 0.11 0.06 0.04 0.03 0.04 0.04 0.03 0.03 0.04 0.06 0.08 0.11 0.12 0.13 0.16 0.19 0.22 0.25 0.24 0.20 0.14 0.11 0.15 0.28 0.42 0.41 0.34 0.31 0.34 0.27 0.23 0.19 0.17 0.06 0.06 0.08 0.03 0.05 0.06 0.04 0.04 0.02 0.00 0.01
0.25 0.26 0.25 0.28 0.20 0.09 0.07 0.06 0.06 0.06 0.06 0.05 0.05 0.07 0.10 0.14 0.16 0.17 0.19 0.23 0.26 0.30 0.31 0.25 0.23 0.17 0.15 0.19 0.28 0.41 0.48 0.47 0.49 0.37 0.33 0.27 0.17 0.08 0.03 0.05 0.08 0.05 0.06 0.04 0.04 0.03 0.02 0.02 0.01
0.21 0.16 0.19 0.21 0.14 0.09 0.09 0.09 0.10 0.10 0.10 0.10 0.11 0.14 0.16 0.21 0.24 0.27 0.29 0.32 0.33 0.36 0.38 0.33 0.31 0.28 0.23 0.18 0.21 0.28 0.32 0.33 0.33 0.28 0.22 0.19 0.14 0.09 0.06 0.06 0.10 0.08 0.04 0.03 0.05 0.04 0.04 0.04 0.02
0.17 0.12 0.11 0.14 0.13 0.13 0.13 0.13 0.13 0.14 0.13 0.13 0.17 0.21 0.24 0.26 0.28 0.29 0.31 0.34 0.35 0.37 0.41 0.43 0.44 0.42 0.41 0.32 0.26 0.23 0.23 0.26 0.30 0.34 0.23 0.13 0.10 0.11 0.11 0.09 0.15 0.11 0.04 0.05 0.08 0.03 0.03 0.05 0.02
0.17 0.13 0.16 0.18 0.17 0.16 0.15 0.16 0.15 0.17 0.15 0.15 0.20 0.26 0.30 0.33 0.32 0.33 0.32 0.31 0.31 0.40 0.51 0.55 0.51 0.53 0.49 0.38 0.35 0.36 0.35 0.36 0.35 0.31 0.23 0.16 0.12 0.11 0.13 0.09 0.09 0.06 0.07 0.09 0.05 0.04 0.05 0.06 0.01
0.10 0.12 0.13 0.13 0.13 0.15 0.16 0.16 0.16 0.18 0.17 0.18 0.21 0.26 0.32 0.35 0.36 0.37 0.37 0.34 0.33 0.40 0.53 0.64 0.62 0.64 0.58 0.51 0.51 0.51 0.49 0.44 0.42 0.42 0.32 0.23 0.18 0.14 0.18 0.14 0.10 0.09 0.10 0.09 0.08 0.10 0.07 0.07 0.02
0.09 0.12 0.12 0.12 0.15 0.19 0.19 0.22 0.22 0.25 0.22 0.21 0.21 0.23 0.28 0.32 0.34 0.36 0.37 0.36 0.34 0.37 0.48 0.60 0.61 0.65 0.67 0.66 0.65 0.60 0.53 0.52 0.55 0.55 0.48 0.36 0.27 0.23 0.30 0.29 0.23 0.22 0.21 0.15 0.12 0.08 0.07 0.08 0.06
0.09 0.12 0.11 0.13 0.17 0.20 0.21 0.23 0.23 0.24 0.23 0.22 0.20 0.19 0.20 0.23 0.28 0.31 0.32 0.33 0.34 0.38 0.45 0.49 0.55 0.73 0.76 0.71 0.76 0.76 0.71 0.74 0.75 0.75 0.69 0.60 0.50 0.47 0.51 0.54 0.43 0.32 0.33 0.28 0.19 0.14 0.15 0.11 0.12
0.16 0.11 0.11 0.13 0.14 0.15 0.19 0.21 0.21 0.23 0.21 0.20 0.19 0.18 0.16 0.18 0.23 0.25 0.25 0.26 0.28 0.33 0.38 0.44 0.53 0.64 0.75 0.89 0.96 1.03 1.03 1.00 1.08 1.12 1.09 0.91 0.81 0.78 0.80 0.80 0.72 0.59 0.54 0.51 0.37 0.34 0.30 0.27 0.25
0.14 0.11 0.10 0.14 0.14 0.13 0.16 0.18 0.18 0.18 0.17 0.15 0.13 0.12 0.11 0.11 0.13 0.13 0.13 0.17 0.20 0.24 0.30 0.36 0.52 0.66 0.81 0.92 1.05 1.29 1.44 1.53 1.49 1.48 1.55 1.41 1.18 1.17 1.18 1.06 1.13 1.04 0.91 0.87 0.71 0.69 0.64 0.48 0.31
0.10 0.10 0.11 0.12 0.11 0.10 0.10 0.11 0.11 0.10 0.11 0.11 0.10 0.09 0.08 0.07 0.06 0.06 0.07 0.09 0.12 0.15 0.21 0.29 0.42 0.64 0.86 1.07 1.26 1.44 1.73 1.86 1.86 1.92 1.85 1.79 1.64 1.58 1.43 1.38 1.48 1.43 1.42 1.44 1.18 1.10 1.03 0.77 0.50
0.09 0.09 0.10 0.10 0.09 0.07 0.07 0.08 0.08 0.08 0.09 0.08 0.08 0.09 0.08 0.07 0.06 0.06 0.05 0.06 0.07 0.09 0.13 0.20 0.31 0.52 0.81 1.11 1.34 1.52 1.74 1.99 2.08 1.97 1.92 1.96 2.01 2.00 1.85 1.75 1.74 1.64 1.60 1.72 1.68 1.51 1.38 1.21 0.90
0.10 0.08 0.08 0.08 0.09 0.09 0.09 0.13 0.13 0.13 0.13 0.12 0.11 0.12 0.12 0.11 0.10 0.08 0.06 0.05 0.06 0.09 0.12 0.16 0.29 0.43 0.64 0.90 1.19 1.42 1.67 1.96 2.03 1.99 1.98 2.01 2.10 2.15 2.07 1.98 1.95 1.84 1.66 1.67 1.72 1.65 1.63 1.64 1.35
0.05 0.04 0.05 0.06 0.08 0.08 0.08 0.13 0.16 0.15 0.19 0.19 0.19 0.20 0.17 0.15 0.14 0.12 0.10 0.10 0.11 0.14 0.16 0.22 0.35 0.47 0.66 0.89 1.16 1.43 1.62 1.78 1.94 1.94 1.88 1.81 1.83 1.85 1.82 1.89 1.96 1.85 1.72 1.67 1.77 1.81 1.84 1.71 1.58
0.01 0.02 0.04 0.04 0.06 0.06 0.05 0.13 0.22 0.22 0.21 0.19 0.21 0.21 0.16 0.13 0.14 0.17 0.21 0.21 0.21 0.23 0.27 0.34 0.45 0.64 0.79 0.88 1.00 1.12 1.31 1.56 1.67 1.76 1.76 1.76 1.71 1.61 1.57 1.64 1.73 1.76 1.69 1.60 1.58 1.65 1.71 1.71 1.72
0.01 0.05 0.09 0.10 0.13 0.12 0.09 0.20 0.31 0.26 0.22 0.21 0.21 0.19 0.19 0.21 0.25 0.32 0.42 0.39 0.36 0.38 0.46 0.52 0.58 0.65 0.70 0.69 0.75 0.86 1.00 1.16 1.24 1.35 1.53 1.57 1.57 1.50 1.46 1.45 1.53 1.60 1.56 1.58 1.62 1.57 1.53 1.59 1.62
0.01 0.05 0.12 0.16 0.18 0.21 0.26 0.39 0.43 0.35 0.27 0.24 0.21 0.18 0.21 0.29 0.39 0.54 0.65 0.69 0.63 0.60 0.61 0.57 0.57 0.54 0.54 0.56 0.60 0.67 0.72 0.81 0.87 0.92 1.05 1.18 1.17 1.12 1.07 1.10 1.19 1.34 1.41 1.47 1.51 1.50 1.46 1.44 1.41
0.02 0.03 0.06 0.14 0.15 0.21 0.34 0.51 0.50 0.35 0.28 0.27 0.26 0.23 0.29 0.42 0.56 0.73 0.85 0.92 0.86 0.77 0.70 0.63 0.61 0.58 0.52 0.51 0.56 0.61 0.62 0.63 0.64 0.66 0.65 0.69 0.76 0.79 0.77 0.78 0.88 1.01 1.12 1.19 1.24 1.31 1.33 1.32 1.27
0.02 0.04 0.10 0.22 0.33 0.36 0.39 0.52 0.60 0.49 0.38 0.36 0.38 0.44 0.55 0.73 0.79 0.91 0.98 0.96 0.95 0.98 0.89 0.73 0.65 0.65 0.61 0.68 0.66 0.59 0.54 0.51 0.49 0.52 0.57 0.54 0.60 0.67 0.69 0.67 0.70 0.76 0.84 0.93 0.99 1.06 1.12 1.09 1.03
0.09 0.13 0.20 0.32 0.42 0.56 0.68 0.81 0.69 0.57 0.55 0.53 0.56 0.72 0.81 0.92 0.99 1.01 1.08 1.01 0.88 0.87 0.83 0.82 0.76 0.70 0.70 0.76 0.75 0.62 0.56 0.54 0.52 0.48 0.47 0.54 0.61 0.66 0.60 0.60 0.67 0.67 0.70 0.73 0.80 0.92 1.03 0.98 0.94
0.23 0.35 0.45 0.61 0.65 0.63 0.86 1.05 0.78 0.64 0.65 0.66 0.65 0.63 0.65 0.82 0.94 0.98 1.04 0.96 0.80 0.75 0.65 0.70 0.78 0.76 0.81 0.82 0.75 0.65 0.62 0.61 0.65 0.62 0.51 0.51 0.57 0.55 0.55 0.61 0.62 0.60 0.62 0.64 0.73 0.85 0.90 0.91 0.83

GEFSSGP_prec_meanprecacc_072.txt.gz
Total_Precipitation_Accumulation
0.01 0.10 0.22 0.29 0.44 0.20 0.01 0.00 0.00 0.00 0.00 0.00 0.00 0.00 0.01 0.05 0.21 0.36 0.10 0.01 0.00 0.01 0.02 0.07 0.14 0.12 0.09 0.11 0.20 0.28 0.32 0.36 0.41 0.44 0.43 0.21 0.11 0.10 0.12 0.14 0.18 0.20 0.16 0.17 0.24 0.31 0.29 0.25 0.28
0.05 0.16 0.35 0.55 0.47 0.05 0.01 0.00 0.00 0.00 0.00 0.00 0.00 0.01 0.00 0.01 0.01 0.02 0.02 0.02 0.01 0.01 0.06 0.15 0.19 0.16 0.13 0.16 0.26 0.34 0.40 0.44 0.53 0.52 0.36 0.13 0.09 0.12 0.14 0.18 0.22 0.18 0.11 0.12 0.16 0.23 0.24 0.22 0.27
0.06 0.12 0.38 0.62 0.15 0.01 0.01 0.01 0.00 0.00 0.00 0.00 0.00 0.00 0.00 0.03 0.02 0.03 0.03 0.01 0.00 0.02 0.11 0.26 0.25 0.22 0.20 0.24 0.34 0.44 0.49 0.48 0.54 0.50 0.27 0.13 0.10 0.12 0.18 0.24 0.20 0.12 0.09 0.08 0.10 0.15 0.16 0.17 0.18
0.08 0.21 0.44 0.33 0.04 0.01 0.01 0.01 0.00 0.00 0.00 0.00 0.00 0.00 0.02 0.03 0.03 0.03 0.02 0.01 0.01 0.02 0.08 0.19 0.24 0.23 0.23 0.30 0.40 0.45 0.40 0.39 0.48 0.41 0.26 0.15 0.15 0.16 0.19 0.17 0.10 0.07 0.06 0.05 0.06 0.09 0.11 0.12 0.13
0.09 0.35 0.48 0.19 0.03 0.00 0.01 0.01 0.01 0.00 0.00 0.00 0.00 0.01 0.03 0.04 0.03 0.02 0.01 0.01 0.01 0.02 0.04 0.10 0.19 0.19 0.20 0.29 0.39 0.43 0.36 0.41 0.45 0.42 0.34 0.18 0.18 0.19 0.20 0.12 0.07 0.04 0.04 0.05 0.04 0.05 0.05 0.07 0.10
0.24 0.54 0.55 0.26 0.06 0.02 0.02 0.01 0.02 0.01 0.00 0.00 0.01 0.03 0.06 0.07 0.05 0.04 0.02 0.02 0.02 0.02 0.03 0.07 0.17 0.17 0.19 0.25 0.32 0.37 0.37 0.46 0.45 0.36 0.30 0.26 0.19 0.18 0.14 0.08 0.05 0.03 0.04 0.06 0.03 0.02 0.04 0.05 0.11
0.41 0.64 0.58 0.23 0.08 0.08 0.04 0.02 0.01 0.01 0.01 0.01 0.02 0.03 0.08 0.09 0.08 0.06 0.05 0.05 0.05 0.04 0.04 0.07 0.12 0.15 0.19 0.26 0.29 0.35 0.40 0.49 0.48 0.32 0.27 0.31 0.20 0.13 0.08 0.04 0.02 0.02 0.03 0.04 0.02 0.02 0.04 0.07 0.11
0.23 0.52 0.68 0.38 0.17 0.15 0.03 0.01 0.01 0.01 0.01 0.02 0.03 0.05 0.11 0.13 0.10 0.09 0.08 0.09 0.10 0.10 0.10 0.09 0.12 0.16 0.22 0.30 0.33 0.33 0.34 0.42 0.41 0.29 0.28 0.29 0.18 0.10 0.05 0.02 0.01 0.01 0.03 0.05 0.02 0.02 0.05 0.07 0.10
0.18 0.37 0.62 0.57 0.28 0.17 0.05 0.03 0.02 0.02 0.02 0.02 0.03 0.05 0.09 0.11 0.11 0.12 0.14 0.15 0.18 0.18 0.21 0.17 0.14 0.15 0.20 0.31 0.35 0.42 0.44 0.48 0.42 0.34 0.30 0.22 0.17 0.15 0.10 0.04 0.02 0.02 0.05 0.06 0.03 0.04 0.05 0.04 0.06
0.27 0.42 0.49 0.41 0.22 0.14 0.08 0.07 0.05 0.05 0.05 0.04 0.05 0.07 0.11 0.14 0.16 0.20 0.23 0.25 0.26 0.28 0.30 0.29 0.26 0.22 0.18 0.22 0.40 0.59 0.53 0.48 0.40 0.45 0.38 0.31 0.27 0.28 0.15 0.10 0.09 0.04 0.05 0.06 0.04 0.04 0.03 0.01 0.01
0.25 0.29 0.27 0.29 0.20 0.10 0.08 0.08 0.08 0.08 0.08 0.08 0.09 0.11 0.14 0.20 0.24 0.25 0.27 0.32 0.35 0.38 0.37 0.30 0.29 0.24 0.23 0.30 0.40 0.55 0.62 0.63 0.63 0.49 0.49 0.43 0.31 0.18 0.07 0.08 0.10 0.06 0.06 0.05 0.04 0.03 0.02 0.02 0.01
0.21 0.17 0.19 0.22 0.14 0.10 0.10 0.10 0.12 0.11 0.12 0.12 0.15 0.17 0.19 0.26 0.30 0.34 0.37 0.39 0.40 0.42 0.45 0.39 0.37 0.35 0.32 0.28 0.32 0.42 0.45 0.45 0.45 0.40 0.32 0.35 0.31 0.20 0.11 0.12 0.14 0.11 0.05 0.04 0.05 0.05 0.04 0.04 0.02
0.17 0.12 0.12 0.14 0.13 0.14 0.13 0.14 0.14 0.15 0.14 0.14 0.19 0.24 0.28 0.31 0.33 0.36 0.36 0.40 0.40 0.42 0.46 0.48 0.50 0.49 0.52 0.47 0.40 0.37 0.39 0.40 0.44 0.48 0.35 0.27 0.23 0.22 0.20 0.13 0.17 0.13 0.05 0.06 0.08 0.04 0.03 0.05 0.02
0.17 0.14 0.16 0.18 0.17 0.16 0.15 0.16 0.16 0.17 0.15 0.15 0.21 0.28 0.32 0.36 0.36 0.37 0.36 0.35 0.35 0.43 0.55 0.59 0.56 0.58 0.55 0.49 0.50 0.50 0.47 0.49 0.50 0.49 0.34 0.26 0.24 0.22 0.23 0.14 0.13 0.08 0.08 0.10 0.05 0.04 0.05 0.06 0.01
0.10 0.13 0.15 0.13 0.14 0.16 0.17 0.18 0.17 0.19 0.17 0.18 0.22 0.28 0.34 0.38 0.39 0.41 0.41 0.37 0.35 0.42 0.55 0.67 0.65 0.67 0.62 0.56 0.57 0.59 0.58 0.53 0.53 0.55 0.42 0.34 0.31 0.27 0.32 0.25 0.17 0.12 0.12 0.10 0.09 0.11 0.07 0.07 0.02
0.10 0.17 0.22 0.14 0.16 0.19 0.22 0.25 0.23 0.26 0.23 0.22 0.22 0.25 0.30 0.34 0.36 0.38 0.39 0.38 0.36 0.39 0.50 0.62 0.63 0.68 0.70 0.69 0.68 0.65 0.60 0.59 0.62 0.64 0.59 0.49 0.41 0.39 0.49 0.45 0.32 0.27 0.25 0.18 0.14 0.09 0.07 0.08 0.06
0.13 0.21 0.24 0.18 0.18 0.20 0.22 0.25 0.23 0.25 0.24 0.23 0.21 0.20 0.21 0.24 0.30 0.33 0.34 0.34 0.35 0.40 0.46 0.51 0.57 0.76 0.79 0.74 0.80 0.80 0.76 0.80 0.82 0.82 0.78 0.69 0.62 0.63 0.74 0.74 0.57 0.42 0.43 0.35 0.23 0.16 0.16 0.12 0.13
0.18 0.15 0.18 0.18 0.15 0.16 0.21 0.21 0.21 0.23 0.21 0.20 0.20 0.18 0.17 0.19 0.24 0.26 0.25 0.26 0.28 0.34 0.39 0.45 0.54 0.66 0.77 0.91 0.99 1.07 1.08 1.06 1.15 1.20 1.17 1.00 0.92 0.93 1.02 1.01 0.89 0.74 0.69 0.63 0.44 0.39 0.34 0.29 0.28
0.14 0.11 0.12 0.16 0.14 0.13 0.16 0.18 0.18 0.19 0.18 0.16 0.14 0.13 0.12 0.11 0.14 0.13 0.13 0.17 0.20 0.25 0.30 0.37 0.53 0.68 0.83 0.95 1.08 1.34 1.50 1.59 1.55 1.55 1.62 1.50 1.29 1.33 1.37 1.24 1.35 1.30 1.13 1.04 0.85 0.82 0.76 0.55 0.35
0.10 0.10 0.11 0.13 0.11 0.10 0.10 0.12 0.11 0.11 0.13 0.12 0.12 0.11 0.10 0.08 0.07 0.06 0.07 0.09 0.12 0.15 0.22 0.29 0.43 0.66 0.88 1.10 1.29 1.48 1.78 1.92 1.91 1.98 1.91 1.86 1.73 1.70 1.58 1.55 1.68 1.66 1.65 1.64 1.35 1.29 1.22 0.88 0.56
0.09 0.10 0.10 0.10 0.09 0.07 0.07 0.09 0.09 0.09 0.10 0.09 0.09 0.10 0.09 0.07 0.07 0.06 0.05 0.06 0.07 0.09 0.14 0.21 0.33 0.55 0.85 1.16 1.40 1.58 1.80 2.05 2.13 2.02 1.97 2.02 2.08 2.09 1.95 1.88 1.92 1.86 1.82 1.92 1.86 1.69 1.60 1.40 1.02
0.10 0.08 0.08 0.08 0.10 0.10 0.10 0.15 0.14 0.14 0.14 0.13 0.12 0.13 0.12 0.11 0.10 0.08 0.06 0.06 0.07 0.10 0.13 0.17 0.31 0.46 0.69 0.96 1.27 1.49 1.74 2.03 2.10 2.05 2.02 2.05 2.15 2.22 2.16 2.10 2.11 2.04 1.90 1.89 1.92 1.84 1.85 1.88 1.55
0.05 0.04 0.05 0.06 0.08 0.09 0.09 0.15 0.17 0.16 0.19 0.19 0.20 0.20 0.18 0.15 0.15 0.12 0.10 0.10 0.12 0.14 0.18 0.24 0.37 0.50 0.71 0.95 1.26 1.53 1.71 1.86 2.02 2.03 1.95 1.86 1.88 1.90 1.89 1.99 2.09 2.04 1.97 1.93 2.01 2.03 2.06 1.93 1.77
0.01 0.02 0.04 0.04 0.06 0.06 0.05 0.13 0.23 0.22 0.22 0.19 0.22 0.22 0.17 0.14 0.14 0.17 0.21 0.22 0.22 0.24 0.29 0.37 0.48 0.68 0.83 0.94 1.08 1.20 1.39 1.65 1.76 1.85 1.88 1.86 1.80 1.68 1.64 1.72 1.82 1.88 1.87 1.84 1.81 1.86 1.90 1.91 1.91
0.01 0.05 0.09 0.10 0.13 0.12 0.10 0.20 0.31 0.27 0.22 0.21 0.22 0.20 0.19 0.21 0.25 0.33 0.43 0.40 0.37 0.40 0.49 0.55 0.61 0.70 0.76 0.75 0.82 0.92 1.06 1.23 1.33 1.46 1.64 1.67 1.67 1.59 1.55 1.54 1.63 1.70 1.69 1.73 1.81 1.73 1.69 1.75 1.79
0.01 0.05 0.12 0.16 0.18 0.21 0.26 0.40 0.44 0.35 0.28 0.24 0.21 0.19 0.21 0.29 0.39 0.54 0.65 0.70 0.64 0.62 0.64 0.60 0.61 0.58 0.59 0.62 0.68 0.73 0.78 0.87 0.96 1.02 1.16 1.28 1.26 1.21 1.17 1.22 1.33 1.50 1.58 1.64 1.70 1.68 1.61 1.58 1.55
0.02 0.03 0.06 0.14 0.15 0.21 0.34 0.51 0.51 0.35 0.29 0.27 0.26 0.23 0.29 0.42 0.57 0.73 0.86 0.93 0.87 0.78 0.72 0.67 0.67 0.63 0.57 0.58 0.64 0.68 0.71 0.73 0.72 0.74 0.73 0.79 0.86 0.88 0.88 0.92 1.04 1.19 1.32 1.38 1.42 1.49 1.49 1.46 1.41
0.02 0.04 0.10 0.22 0.33 0.36 0.39 0.52 0.60 0.49 0.38 0.36 0.38 0.44 0.55 0.73 0.80 0.91 0.98 0.97 0.96 0.99 0.93 0.76 0.70 0.70 0.65 0.72 0.72 0.67 0.64 0.62 0.57 0.59 0.64 0.64 0.71 0.79 0.83 0.81 0.84 0.93 1.02 1.12 1.19 1.26 1.31 1.25 1.18
0.09 0.13 0.20 0.32 0.42 0.56 0.68 0.82 0.69 0.57 0.56 0.54 0.56 0.72 0.82 0.92 1.00 1.02 1.08 1.01 0.89 0.89 0.87 0.84 0.79 0.73 0.74 0.79 0.78 0.67 0.63 0.62 0.59 0.54 0.55 0.61 0.70 0.76 0.74 0.78 0.82 0.80 0.87 0.92 0.98 1.09 1.19 1.14 1.10
0.23 0.35 0.45 0.61 0.65 0.63 0.86 1.06 0.78 0.64 0.65 0.66 0.65 0.63 0.65 0.83 0.94 0.98 1.04 0.97 0.81 0.77 0.68 0.71 0.79 0.79 0.85 0.85 0.77 0.68 0.66 0.68 0.72 0.69 0.61 0.58 0.65 0.65 0.71 0.79 0.76 0.73 0.76 0.78 0.87 0.98 1.03 1.03 0.95

GEFSSGP_prec_meanprecacc_078.txt.gz
Total_Precipitation_Accumulation
0.04 0.20 0.38 0.43 0.55 0.24 0.01 0.01 0.00 0.00 0.01 0.01 0.01 0.00 0.02 0.09 0.28 0.41 0.15 0.07 0.03 0.02 0.02 0.08 0.15 0.12 0.09 0.11 0.20 0.29 0.32 0.36 0.41 0.44 0.43 0.21 0.11 0.11 0.12 0.15 0.18 0.20 0.16 0.17 0.24 0.31 0.29 0.25 0.28
0.12 0.40 0.60 0.76 0.56 0.05 0.02 0.02 0.02 0.01 0.01 0.00 0.00 0.01 0.01 0.02 0.03 0.06 0.12 0.12 0.04 0.02 0.07 0.15 0.19 0.16 0.13 0.16 0.26 0.34 0.40 0.45 0.53 0.52 0.37 0.13 0.09 0.12 0.15 0.20 0.23 0.18 0.12 0.12 0.16 0.23 0.24 0.22 0.27
0.19 0.34 0.61 0.80 0.20 0.03 0.04 0.04 0.04 0.03 0.01 0.00 0.00 0.00 0.02 0.09 0.09 0.09 0.14 0.07 0.06 0.06 0.13 0.27 0.27 0.23 0.21 0.24 0.34 0.44 0.49 0.48 0.54 0.50 0.27 0.13 0.11 0.12 0.18 0.25 0.20 0.12 0.09 0.08 0.10 0.15 0.16 0.17 0.18
0.25 0.44 0.68 0.44 0.11 0.08 0.09 0.10 0.05 0.02 0.01 0.01 0.00 0.01 0.05 0.10 0.12 0.11 0.10 0.07 0.07 0.08 0.12 0.22 0.27 0.24 0.24 0.30 0.41 0.45 0.40 0.39 0.48 0.41 0.26 0.15 0.15 0.16 0.19 0.17 0.11 0.07 0.07 0.06 0.06 0.09 0.11 0.13 0.13
0.29 0.60 0.68 0.35 0.19 0.16 0.14 0.12 0.06 0.03 0.02 0.03 0.01 0.03 0.08 0.11 0.10 0.12 0.12 0.10 0.11 0.13 0.13 0.21 0.25 0.22 0.22 0.30 0.39 0.43 0.36 0.41 0.45 0.42 0.34 0.19 0.18 0.19 0.20 0.13 0.07 0.04 0.05 0.05 0.04 0.05 0.05 0.07 0.10
0.45 0.80 0.80 0.50 0.24 0.20 0.18 0.14 0.08 0.06 0.05 0.05 0.05 0.05 0.11 0.14 0.14 0.15 0.14 0.16 0.18 0.18 0.18 0.18 0.24 0.23 0.23 0.29 0.35 0.39 0.38 0.46 0.46 0.36 0.30 0.27 0.20 0.18 0.14 0.08 0.05 0.03 0.04 0.06 0.03 0.02 0.04 0.05 0.11
0.56 0.85 0.78 0.46 0.29 0.27 0.21 0.14 0.07 0.06 0.05 0.06 0.08 0.08 0.13 0.17 0.18 0.18 0.19 0.21 0.25 0.25 0.24 0.23 0.23 0.25 0.28 0.34 0.36 0.40 0.43 0.51 0.50 0.33 0.27 0.31 0.20 0.13 0.08 0.04 0.02 0.02 0.03 0.05 0.02 0.02 0.04 0.07 0.11
0.31 0.64 0.84 0.67 0.47 0.40 0.17 0.05 0.03 0.03 0.03 0.04 0.06 0.09 0.16 0.21 0.20 0.24 0.25 0.29 0.31 0.30 0.30 0.26 0.26 0.30 0.35 0.41 0.44 0.43 0.42 0.47 0.44 0.31 0.28 0.30 0.18 0.10 0.06 0.02 0.01 0.01 0.03 0.05 0.03 0.03 0.05 0.07 0.10
0.27 0.49 0.84 0.90 0.53 0.36 0.15 0.07 0.05 0.04 0.04 0.04 0.05 0.06 0.13 0.16 0.18 0.22 0.26 0.31 0.36 0.36 0.37 0.32 0.30 0.33 0.39 0.46 0.49 0.57 0.57 0.57 0.49 0.39 0.34 0.25 0.18 0.16 0.11 0.04 0.03 0.02 0.05 0.06 0.03 0.04 0.05 0.04 0.06
0.35 0.53 0.70 0.62 0.35 0.24 0.18 0.14 0.09 0.09 0.08 0.07 0.08 0.11 0.17 0.21 0.23 0.27 0.30 0.35 0.37 0.40 0.42 0.41 0.41 0.37 0.36 0.40 0.60 0.74 0.64 0.57 0.48 0.51 0.43 0.35 0.30 0.29 0.16 0.11 0.12 0.06 0.06 0.06 0.04 0.05 0.03 0.01 0.01
0.30 0.37 0.38 0.38 0.25 0.15 0.12 0.11 0.12 0.11 0.11 0.11 0.13 0.16 0.20 0.28 0.31 0.34 0.38 0.43 0.46 0.48 0.49 0.42 0.40 0.34 0.34 0.45 0.59 0.74 0.77 0.76 0.74 0.59 0.57 0.50 0.37 0.23 0.10 0.11 0.13 0.08 0.07 0.05 0.04 0.03 0.02 0.02 0.01
0.28 0.26 0.26 0.27 0.18 0.14 0.12 0.11 0.13 0.13 0.15 0.15 0.17 0.20 0.23 0.29 0.35 0.38 0.42 0.46 0.46 0.49 0.52 0.48 0.45 0.42 0.40 0.40 0.47 0.58 0.61 0.61 0.60 0.56 0.49 0.47 0.41 0.29 0.17 0.15 0.19 0.14 0.07 0.04 0.05 0.05 0.04 0.04 0.02
0.29 0.20 0.16 0.18 0.17 0.17 0.15 0.15 0.15 0.16 0.16 0.16 0.21 0.26 0.30 0.33 0.36 0.38 0.39 0.42 0.43 0.45 0.48 0.51 0.54 0.52 0.58 0.56 0.52 0.49 0.52 0.54 0.56 0.59 0.47 0.40 0.36 0.34 0.30 0.21 0.24 0.19 0.09 0.08 0.09 0.04 0.03 0.05 0.02
0.24 0.17 0.19 0.20 0.19 0.17 0.16 0.17 0.17 0.19 0.18 0.18 0.23 0.29 0.34 0.37 0.37 0.38 0.38 0.36 0.36 0.45 0.56 0.60 0.57 0.60 0.57 0.52 0.55 0.58 0.56 0.58 0.60 0.59 0.49 0.42 0.39 0.37 0.38 0.28 0.27 0.20 0.21 0.21 0.10 0.06 0.06 0.07 0.02
0.13 0.17 0.20 0.19 0.18 0.20 0.20 0.19 0.18 0.20 0.19 0.22 0.26 0.31 0.36 0.40 0.40 0.41 0.41 0.38 0.36 0.42 0.56 0.67 0.65 0.67 0.63 0.58 0.60 0.64 0.63 0.60 0.61 0.62 0.51 0.44 0.45 0.44 0.51 0.47 0.37 0.31 0.31 0.27 0.20 0.17 0.10 0.09 0.03
0.17 0.27 0.36 0.26 0.24 0.26 0.26 0.28 0.24 0.27 0.25 0.25 0.25 0.28 0.31 0.34 0.37 0.39 0.40 0.39 0.37 0.40 0.50 0.63 0.64 0.69 0.72 0.71 0.70 0.67 0.63 0.63 0.68 0.70 0.64 0.56 0.52 0.53 0.68 0.69 0.54 0.47 0.44 0.36 0.31 0.21 0.13 0.11 0.08
0.25 0.34 0.36 0.28 0.26 0.26 0.27 0.28 0.25 0.26 0.25 0.24 0.22 0.21 0.22 0.24 0.30 0.34 0.34 0.35 0.36 0.40 0.47 0.51 0.58 0.77 0.81 0.76 0.82 0.82 0.78 0.82 0.85 0.86 0.83 0.75 0.69 0.74 0.90 0.94 0.79 0.66 0.66 0.54 0.40 0.31 0.29 0.18 0.17
0.23 0.19 0.22 0.23 0.21 0.20 0.24 0.23 0.22 0.24 0.22 0.20 0.20 0.18 0.17 0.19 0.24 0.26 0.25 0.26 0.28 0.34 0.39 0.46 0.54 0.66 0.78 0.93 1.01 1.08 1.09 1.09 1.19 1.25 1.22 1.05 0.98 1.01 1.12 1.19 1.12 1.02 0.99 0.88 0.66 0.60 0.52 0.43 0.38
0.16 0.12 0.13 0.18 0.16 0.15 0.17 0.19 0.19 0.19 0.18 0.16 0.15 0.14 0.12 0.11 0.14 0.13 0.13 0.17 0.20 0.25 0.30 0.37 0.53 0.68 0.83 0.95 1.10 1.35 1.51 1.60 1.58 1.58 1.66 1.56 1.36 1.41 1.48 1.40 1.59 1.61 1.49 1.34 1.14 1.08 1.00 0.75 0.51
0.10 0.11 0.12 0.13 0.12 0.11 0.11 0.12 0.12 0.12 0.13 0.13 0.12 0.12 0.10 0.08 0.07 0.06 0.07 0.09 0.12 0.15 0.22 0.29 0.44 0.66 0.89 1.10 1.30 1.49 1.80 1.94 1.93 1.99 1.94 1.89 1.77 1.76 1.66 1.68 1.85 1.87 1.91 1.92 1.63 1.56 1.49 1.14 0.77
0.09 0.10 0.10 0.10 0.10 0.08 0.08 0.09 0.09 0.09 0.10 0.10 0.09 0.10 0.09 0.07 0.07 0.06 0.05 0.06 0.07 0.09 0.14 0.21 0.34 0.55 0.85 1.16 1.41 1.59 1.82 2.07 2.16 2.06 2.01 2.05 2.12 2.15 2.02 1.95 2.01 2.00 2.02 2.14 2.10 1.91 1.82 1.62 1.24
0.10 0.09 0.08 0.08 0.10 0.10 0.10 0.15 0.15 0.14 0.14 0.13 0.12 0.13 0.12 0.11 0.10 0.08 0.06 0.06 0.07 0.10 0.13 0.17 0.31 0.47 0.70 0.97 1.28 1.52 1.77 2.06 2.13 2.09 2.06 2.10 2.21 2.27 2.22 2.17 2.19 2.14 2.05 2.08 2.12 2.04 2.07 2.09 1.76
0.05 0.04 0.05 0.06 0.09 0.09 0.09 0.16 0.17 0.16 0.19 0.20 0.20 0.21 0.18 0.15 0.15 0.12 0.10 0.10 0.12 0.14 0.18 0.24 0.38 0.51 0.72 0.96 1.27 1.56 1.75 1.89 2.05 2.06 1.98 1.91 1.93 1.95 1.94 2.05 2.17 2.13 2.09 2.06 2.18 2.22 2.29 2.16 1.98
0.01 0.02 0.04 0.04 0.06 0.06 0.05 0.14 0.23 0.23 0.22 0.20 0.22 0.22 0.17 0.14 0.14 0.17 0.21 0.22 0.22 0.24 0.30 0.37 0.49 0.69 0.85 0.95 1.09 1.22 1.43 1.69 1.80 1.89 1.91 1.90 1.85 1.73 1.68 1.77 1.86 1.93 1.94 1.94 1.94 2.03 2.11 2.13 2.14
0.01 0.05 0.09 0.10 0.13 0.12 0.10 0.20 0.31 0.27 0.22 0.21 0.22 0.20 0.19 0.21 0.25 0.33 0.43 0.40 0.37 0.40 0.49 0.56 0.62 0.71 0.77 0.77 0.84 0.94 1.10 1.30 1.43 1.52 1.69 1.71 1.72 1.64 1.59 1.57 1.65 1.73 1.74 1.81 1.93 1.88 1.85 1.93 2.00
0.01 0.05 0.12 0.16 0.18 0.21 0.26 0.40 0.44 0.35 0.28 0.24 0.21 0.19 0.21 0.29 0.39 0.54 0.65 0.70 0.64 0.62 0.64 0.61 0.61 0.59 0.60 0.65 0.71 0.77 0.82 0.94 1.04 1.11 1.26 1.36 1.34 1.29 1.24 1.27 1.38 1.55 1.64 1.72 1.79 1.79 1.74 1.72 1.71
0.02 0.03 0.06 0.14 0.15 0.21 0.34 0.51 0.51 0.35 0.29 0.27 0.26 0.23 0.29 0.42 0.57 0.73 0.86 0.93 0.87 0.78 0.72 0.68 0.67 0.64 0.58 0.60 0.67 0.72 0.75 0.76 0.77 0.81 0.81 0.87 0.94 0.96 0.97 1.00 1.13 1.29 1.42 1.46 1.51 1.59 1.61 1.59 1.54
0.02 0.04 0.10 0.22 0.33 0.36 0.39 0.52 0.60 0.49 0.38 0.36 0.38 0.44 0.55 0.73 0.80 0.91 0.98 0.97 0.96 1.00 0.93 0.77 0.71 0.71 0.65 0.73 0.74 0.70 0.68 0.65 0.62 0.63 0.68 0.67 0.76 0.86 0.90 0.90 0.95 1.04 1.14 1.24 1.32 1.39 1.46 1.41 1.36
0.09 0.13 0.20 0.32 0.42 0.56 0.68 0.82 0.69 0.57 0.56 0.54 0.56 0.72 0.82 0.92 1.00 1.02 1.08 1.01 0.89 0.89 0.87 0.84 0.79 0.73 0.74 0.79 0.79 0.69 0.66 0.65 0.63 0.58 0.59 0.64 0.73 0.83 0.86 0.90 0.92 0.92 1.01 1.05 1.12 1.22 1.31 1.28 1.25
0.23 0.35 0.45 0.61 0.65 0.63 0.86 1.06 0.78 0.64 0.65 0.66 0.65 0.63 0.65 0.83 0.94 0.98 1.04 0.97 0.81 0.77 0.68 0.71 0.79 0.79 0.85 0.85 0.78 0.69 0.69 0.71 0.75 0.72 0.64 0.62 0.68 0.70 0.78 0.86 0.85 0.83 0.88 0.93 1.01 1.11 1.15 1.16 1.09

GEFSSGP_prec_meanprecacc_084.txt.gz
Total_Precipitation_Accumulation
0.14 0.33 0.62 0.60 0.60 0.26 0.02 0.02 0.02 0.02 0.03 0.03 0.02 0.01 0.04 0.12 0.30 0.44 0.19 0.10 0.05 0.06 0.05 0.11 0.18 0.13 0.10 0.12 0.21 0.29 0.33 0.37 0.42 0.44 0.44 0.22 0.11 0.11 0.12 0.15 0.18 0.20 0.16 0.17 0.24 0.31 0.30 0.25 0.29
0.22 0.62 0.91 0.88 0.59 0.07 0.03 0.05 0.06 0.06 0.05 0.04 0.01 0.02 0.02 0.04 0.04 0.14 0.22 0.19 0.10 0.12 0.11 0.17 0.22 0.19 0.15 0.17 0.27 0.35 0.40 0.45 0.53 0.52 0.37 0.14 0.09 0.12 0.15 0.20 0.24 0.19 0.12 0.12 0.16 0.23 0.24 0.22 0.27
0.31 0.54 0.80 0.88 0.25 0.08 0.10 0.12 0.14 0.11 0.06 0.04 0.01 0.01 0.03 0.11 0.12 0.17 0.27 0.16 0.12 0.14 0.18 0.33 0.33 0.29 0.25 0.26 0.36 0.46 0.51 0.48 0.54 0.51 0.27 0.13 0.11 0.12 0.18 0.25 0.21 0.14 0.11 0.09 0.10 0.15 0.16 0.17 0.18
0.38 0.57 0.77 0.51 0.20 0.20 0.20 0.21 0.14 0.08 0.04 0.02 0.01 0.03 0.07 0.14 0.19 0.21 0.25 0.22 0.19 0.18 0.20 0.30 0.35 0.32 0.30 0.34 0.43 0.46 0.41 0.41 0.49 0.42 0.26 0.15 0.15 0.17 0.20 0.18 0.12 0.08 0.08 0.06 0.06 0.09 0.11 0.13 0.13
0.38 0.69 0.73 0.40 0.28 0.31 0.22 0.18 0.10 0.05 0.04 0.04 0.02 0.06 0.10 0.15 0.23 0.29 0.37 0.35 0.30 0.27 0.23 0.29 0.34 0.30 0.30 0.37 0.44 0.46 0.38 0.42 0.46 0.43 0.35 0.19 0.18 0.19 0.20 0.13 0.07 0.05 0.05 0.06 0.05 0.05 0.05 0.07 0.10
0.53 0.86 0.84 0.56 0.32 0.30 0.25 0.18 0.11 0.08 0.06 0.07 0.07 0.08 0.14 0.18 0.29 0.40 0.44 0.44 0.44 0.41 0.34 0.30 0.36 0.33 0.33 0.38 0.45 0.47 0.44 0.50 0.49 0.38 0.32 0.28 0.20 0.19 0.15 0.10 0.06 0.04 0.05 0.07 0.04 0.03 0.04 0.06 0.11
0.66 0.90 0.81 0.50 0.36 0.37 0.30 0.18 0.10 0.08 0.07 0.08 0.10 0.11 0.15 0.21 0.30 0.37 0.43 0.48 0.52 0.51 0.47 0.41 0.39 0.40 0.42 0.48 0.48 0.50 0.54 0.61 0.57 0.38 0.31 0.33 0.22 0.14 0.09 0.06 0.03 0.02 0.03 0.06 0.03 0.02 0.04 0.07 0.12
0.40 0.69 0.87 0.71 0.52 0.48 0.25 0.10 0.07 0.05 0.04 0.05 0.07 0.10 0.18 0.24 0.29 0.41 0.48 0.55 0.57 0.56 0.54 0.48 0.45 0.46 0.49 0.54 0.57 0.57 0.54 0.60 0.57 0.43 0.38 0.36 0.23 0.14 0.09 0.05 0.03 0.02 0.03 0.06 0.04 0.03 0.05 0.07 0.10
0.33 0.53 0.88 0.93 0.57 0.43 0.22 0.12 0.07 0.05 0.05 0.05 0.06 0.07 0.14 0.19 0.24 0.34 0.44 0.48 0.52 0.53 0.55 0.51 0.48 0.51 0.55 0.61 0.62 0.70 0.71 0.73 0.64 0.54 0.48 0.37 0.24 0.20 0.14 0.07 0.06 0.05 0.07 0.07 0.04 0.05 0.05 0.04 0.06
0.39 0.55 0.73 0.65 0.40 0.29 0.23 0.18 0.11 0.10 0.09 0.08 0.09 0.13 0.21 0.27 0.32 0.40 0.45 0.51 0.51 0.54 0.56 0.55 0.58 0.55 0.54 0.57 0.77 0.93 0.82 0.75 0.64 0.66 0.58 0.47 0.38 0.35 0.20 0.14 0.15 0.12 0.11 0.09 0.06 0.06 0.04 0.01 0.01
0.32 0.38 0.40 0.40 0.28 0.20 0.16 0.15 0.14 0.13 0.12 0.12 0.14 0.18 0.23 0.32 0.37 0.40 0.46 0.54 0.57 0.58 0.60 0.55 0.52 0.47 0.47 0.61 0.77 0.94 0.98 0.96 0.92 0.75 0.73 0.63 0.48 0.31 0.16 0.14 0.16 0.14 0.14 0.09 0.07 0.04 0.02 0.03 0.01
0.30 0.28 0.28 0.29 0.21 0.18 0.15 0.13 0.15 0.14 0.15 0.16 0.19 0.22 0.25 0.33 0.39 0.43 0.47 0.51 0.51 0.53 0.56 0.53 0.50 0.48 0.46 0.47 0.57 0.70 0.74 0.74 0.73 0.72 0.65 0.63 0.55 0.41 0.26 0.22 0.24 0.21 0.14 0.10 0.08 0.06 0.05 0.04 0.02
0.30 0.22 0.18 0.20 0.19 0.18 0.16 0.16 0.15 0.17 0.16 0.17 0.22 0.28 0.32 0.36 0.40 0.42 0.42 0.46 0.46 0.48 0.51 0.54 0.57 0.55 0.60 0.60 0.56 0.54 0.59 0.63 0.65 0.70 0.60 0.54 0.51 0.48 0.43 0.32 0.33 0.27 0.17 0.16 0.14 0.07 0.06 0.06 0.03
0.26 0.18 0.20 0.21 0.21 0.19 0.19 0.19 0.17 0.19 0.18 0.19 0.24 0.31 0.36 0.40 0.39 0.39 0.39 0.37 0.37 0.46 0.57 0.61 0.58 0.61 0.60 0.56 0.59 0.61 0.61 0.64 0.66 0.67 0.57 0.50 0.48 0.47 0.51 0.43 0.41 0.31 0.30 0.32 0.20 0.12 0.10 0.08 0.02
0.16 0.19 0.23 0.22 0.22 0.22 0.22 0.21 0.18 0.20 0.19 0.23 0.27 0.33 0.38 0.41 0.41 0.42 0.42 0.38 0.36 0.43 0.57 0.68 0.66 0.68 0.64 0.60 0.62 0.66 0.65 0.62 0.64 0.67 0.57 0.50 0.51 0.50 0.59 0.56 0.48 0.42 0.43 0.40 0.35 0.30 0.18 0.12 0.05
0.21 0.30 0.39 0.29 0.27 0.28 0.27 0.28 0.25 0.28 0.26 0.25 0.26 0.28 0.32 0.35 0.37 0.39 0.40 0.39 0.37 0.40 0.51 0.63 0.65 0.70 0.73 0.72 0.72 0.69 0.64 0.65 0.69 0.72 0.66 0.59 0.55 0.58 0.74 0.75 0.60 0.57 0.57 0.52 0.49 0.40 0.27 0.18 0.12
0.28 0.36 0.38 0.30 0.28 0.28 0.28 0.28 0.25 0.26 0.26 0.24 0.22 0.21 0.22 0.25 0.30 0.34 0.34 0.35 0.36 0.40 0.47 0.52 0.58 0.77 0.81 0.77 0.83 0.83 0.79 0.84 0.86 0.88 0.84 0.76 0.71 0.78 0.94 0.99 0.86 0.76 0.79 0.70 0.57 0.50 0.46 0.31 0.25
0.24 0.20 0.22 0.24 0.22 0.21 0.25 0.23 0.22 0.24 0.22 0.21 0.20 0.19 0.17 0.19 0.24 0.26 0.25 0.26 0.28 0.34 0.39 0.46 0.54 0.67 0.78 0.93 1.01 1.09 1.10 1.09 1.20 1.26 1.24 1.07 0.99 1.04 1.17 1.25 1.21 1.12 1.11 1.03 0.83 0.78 0.71 0.60 0.53
0.16 0.13 0.14 0.18 0.16 0.16 0.18 0.19 0.19 0.19 0.19 0.16 0.15 0.14 0.12 0.12 0.14 0.14 0.13 0.17 0.20 0.25 0.30 0.37 0.53 0.68 0.83 0.96 1.10 1.35 1.52 1.61 1.58 1.59 1.67 1.57 1.37 1.43 1.51 1.45 1.67 1.70 1.61 1.53 1.39 1.33 1.24 0.96 0.70
0.11 0.11 0.12 0.13 0.12 0.11 0.11 0.12 0.12 0.12 0.13 0.13 0.12 0.12 0.10 0.08 0.07 0.06 0.07 0.09 0.12 0.15 0.22 0.29 0.44 0.66 0.89 1.11 1.30 1.50 1.80 1.94 1.94 2.00 1.95 1.90 1.77 1.77 1.68 1.71 1.89 1.92 1.98 2.03 1.78 1.75 1.71 1.38 0.99
0.09 0.10 0.10 0.10 0.10 0.08 0.08 0.09 0.09 0.10 0.10 0.10 0.09 0.10 0.09 0.07 0.07 0.06 0.05 0.06 0.07 0.09 0.14 0.21 0.34 0.55 0.86 1.16 1.41 1.60 1.83 2.08 2.17 2.07 2.02 2.06 2.14 2.16 2.04 1.97 2.05 2.04 2.08 2.21 2.19 2.05 2.01 1.85 1.49
0.10 0.09 0.08 0.08 0.10 0.10 0.10 0.15 0.15 0.14 0.14 0.13 0.12 0.13 0.12 0.11 0.10 0.08 0.06 0.06 0.07 0.10 0.13 0.17 0.31 0.47 0.70 0.98 1.29 1.52 1.78 2.07 2.14 2.12 2.09 2.12 2.23 2.30 2.26 2.21 2.24 2.20 2.11 2.15 2.21 2.16 2.23 2.30 1.98
0.05 0.04 0.05 0.06 0.09 0.09 0.09 0.16 0.17 0.16 0.19 0.20 0.20 0.21 0.18 0.15 0.15 0.12 0.10 0.10 0.12 0.15 0.18 0.24 0.38 0.52 0.72 0.97 1.28 1.57 1.76 1.91 2.07 2.08 2.00 1.93 1.96 1.98 1.98 2.09 2.21 2.19 2.15 2.12 2.25 2.33 2.42 2.33 2.17
0.01 0.02 0.04 0.04 0.06 0.06 0.05 0.14 0.23 0.23 0.22 0.20 0.22 0.22 0.17 0.14 0.14 0.17 0.21 0.22 0.22 0.24 0.30 0.37 0.49 0.70 0.86 0.96 1.10 1.23 1.44 1.71 1.82 1.91 1.94 1.92 1.87 1.75 1.71 1.81 1.90 1.97 1.99 1.99 1.99 2.09 2.20 2.26 2.30
0.01 0.05 0.09 0.10 0.13 0.12 0.10 0.20 0.31 0.27 0.22 0.21 0.22 0.20 0.19 0.21 0.25 0.33 0.43 0.40 0.37 0.40 0.49 0.56 0.62 0.72 0.77 0.77 0.85 0.96 1.11 1.32 1.45 1.55 1.71 1.74 1.74 1.66 1.63 1.60 1.68 1.76 1.76 1.85 1.98 1.92 1.91 2.02 2.13
0.01 0.05 0.12 0.16 0.18 0.21 0.26 0.40 0.44 0.35 0.28 0.24 0.21 0.19 0.21 0.29 0.39 0.54 0.65 0.70 0.64 0.62 0.64 0.61 0.62 0.60 0.61 0.65 0.72 0.78 0.84 0.96 1.06 1.15 1.30 1.40 1.39 1.33 1.29 1.32 1.42 1.58 1.67 1.75 1.83 1.83 1.79 1.79 1.79
0.02 0.03 0.06 0.14 0.15 0.21 0.34 0.51 0.51 0.35 0.29 0.27 0.26 0.23 0.29 0.42 0.57 0.73 0.86 0.93 0.87 0.78 0.72 0.68 0.68 0.65 0.58 0.60 0.67 0.73 0.76 0.77 0.79 0.83 0.83 0.91 1.00 1.01 1.01 1.05 1.17 1.33 1.46 1.50 1.55 1.63 1.65 1.65 1.60
0.02 0.04 0.10 0.22 0.33 0.36 0.39 0.52 0.60 0.49 0.38 0.36 0.38 0.44 0.55 0.73 0.80 0.91 0.98 0.97 0.96 1.00 0.93 0.77 0.71 0.71 0.66 0.73 0.74 0.71 0.68 0.66 0.64 0.66 0.70 0.70 0.79 0.90 0.94 0.96 0.99 1.08 1.18 1.28 1.37 1.45 1.51 1.47 1.42
0.09 0.13 0.20 0.32 0.42 0.56 0.68 0.82 0.69 0.57 0.56 0.54 0.56 0.72 0.82 0.92 1.00 1.02 1.08 1.01 0.89 0.89 0.87 0.84 0.79 0.73 0.74 0.79 0.79 0.69 0.66 0.66 0.64 0.60 0.61 0.66 0.75 0.86 0.89 0.93 0.96 0.96 1.05 1.10 1.17 1.28 1.38 1.35 1.32
0.23 0.35 0.45 0.61 0.65 0.63 0.86 1.06 0.78 0.64 0.65 0.66 0.65 0.63 0.65 0.83 0.94 0.98 1.04 0.97 0.81 0.77 0.68 0.71 0.79 0.79 0.85 0.85 0.78 0.70 0.70 0.72 0.76 0.73 0.65 0.64 0.70 0.71 0.80 0.88 0.86 0.85 0.92 0.98 1.07 1.18 1.23 1.24 1.17

GEFSSGP_prec_meanprecacc_090.txt.gz
Total_Precipitation_Accumulation
0.17 0.36 0.64 0.63 0.63 0.27 0.04 0.04 0.05 0.07 0.10 0.09 0.07 0.07 0.10 0.18 0.35 0.50 0.29 0.17 0.09 0.08 0.08 0.17 0.26 0.22 0.19 0.21 0.30 0.37 0.39 0.42 0.46 0.48 0.47 0.26 0.14 0.14 0.15 0.17 0.20 0.21 0.18 0.19 0.26 0.32 0.30 0.25 0.29
0.23 0.63 0.92 0.90 0.61 0.08 0.05 0.08 0.12 0.13 0.10 0.09 0.05 0.05 0.07 0.07 0.07 0.20 0.34 0.29 0.14 0.14 0.15 0.23 0.32 0.30 0.25 0.26 0.37 0.45 0.50 0.54 0.60 0.58 0.41 0.18 0.13 0.15 0.17 0.21 0.25 0.20 0.14 0.14 0.18 0.24 0.25 0.22 0.28
0.33 0.55 0.81 0.89 0.28 0.11 0.13 0.17 0.22 0.16 0.09 0.08 0.05 0.04 0.06 0.13 0.16 0.24 0.36 0.24 0.17 0.17 0.23 0.41 0.46 0.41 0.36 0.37 0.45 0.56 0.63 0.60 0.65 0.59 0.33 0.17 0.14 0.15 0.19 0.26 0.22 0.15 0.12 0.10 0.11 0.16 0.17 0.17 0.18
0.40 0.59 0.78 0.52 0.23 0.23 0.24 0.27 0.18 0.13 0.07 0.04 0.04 0.05 0.09 0.17 0.23 0.26 0.30 0.28 0.24 0.21 0.25 0.38 0.47 0.44 0.43 0.48 0.56 0.57 0.52 0.51 0.58 0.50 0.34 0.20 0.19 0.19 0.21 0.19 0.13 0.10 0.10 0.08 0.07 0.10 0.12 0.13 0.13
0.38 0.69 0.74 0.42 0.30 0.33 0.24 0.20 0.11 0.07 0.07 0.05 0.03 0.08 0.12 0.18 0.28 0.36 0.43 0.44 0.38 0.34 0.30 0.37 0.45 0.42 0.41 0.49 0.57 0.59 0.50 0.52 0.55 0.52 0.44 0.27 0.23 0.23 0.23 0.15 0.11 0.09 0.08 0.08 0.06 0.06 0.07 0.08 0.11
0.54 0.87 0.86 0.59 0.35 0.32 0.27 0.19 0.12 0.09 0.07 0.08 0.08 0.11 0.16 0.22 0.33 0.45 0.49 0.53 0.54 0.51 0.44 0.41 0.48 0.46 0.45 0.50 0.56 0.59 0.57 0.63 0.60 0.48 0.42 0.38 0.28 0.26 0.20 0.14 0.12 0.09 0.09 0.10 0.06 0.05 0.06 0.07 0.11
0.68 0.92 0.83 0.51 0.39 0.41 0.33 0.20 0.12 0.10 0.08 0.09 0.12 0.15 0.18 0.24 0.33 0.41 0.48 0.56 0.61 0.61 0.58 0.52 0.52 0.52 0.54 0.60 0.60 0.63 0.68 0.77 0.72 0.51 0.43 0.44 0.31 0.22 0.17 0.14 0.11 0.09 0.10 0.10 0.06 0.04 0.05 0.08 0.12
0.41 0.70 0.89 0.74 0.55 0.51 0.26 0.11 0.07 0.05 0.05 0.06 0.08 0.12 0.20 0.26 0.32 0.45 0.53 0.61 0.64 0.62 0.61 0.55 0.55 0.58 0.60 0.66 0.70 0.71 0.70 0.76 0.73 0.57 0.51 0.50 0.34 0.22 0.17 0.15 0.14 0.12 0.12 0.14 0.10 0.06 0.07 0.08 0.10
0.34 0.55 0.91 0.96 0.59 0.44 0.23 0.13 0.07 0.05 0.05 0.05 0.06 0.08 0.15 0.20 0.26 0.39 0.50 0.54 0.57 0.57 0.59 0.56 0.54 0.58 0.64 0.72 0.75 0.83 0.83 0.86 0.78 0.68 0.63 0.52 0.37 0.30 0.23 0.14 0.15 0.15 0.18 0.18 0.14 0.11 0.08 0.06 0.07
0.40 0.58 0.76 0.66 0.40 0.29 0.23 0.19 0.11 0.10 0.10 0.08 0.09 0.13 0.21 0.29 0.34 0.44 0.49 0.56 0.57 0.60 0.63 0.61 0.64 0.62 0.63 0.67 0.91 1.07 0.94 0.85 0.74 0.76 0.69 0.59 0.52 0.49 0.30 0.21 0.23 0.21 0.23 0.23 0.19 0.17 0.10 0.04 0.02
0.33 0.40 0.41 0.41 0.29 0.20 0.16 0.15 0.15 0.14 0.14 0.13 0.15 0.18 0.25 0.35 0.39 0.42 0.48 0.56 0.61 0.62 0.64 0.60 0.58 0.53 0.54 0.69 0.86 1.04 1.09 1.05 1.02 0.87 0.84 0.76 0.63 0.46 0.30 0.26 0.26 0.23 0.24 0.22 0.19 0.17 0.11 0.07 0.04
0.31 0.28 0.29 0.30 0.21 0.19 0.16 0.14 0.16 0.15 0.16 0.16 0.19 0.23 0.26 0.34 0.40 0.44 0.49 0.52 0.52 0.54 0.58 0.55 0.53 0.50 0.49 0.50 0.60 0.75 0.81 0.80 0.81 0.82 0.75 0.74 0.71 0.60 0.43 0.35 0.37 0.34 0.27 0.25 0.25 0.21 0.16 0.12 0.06
0.31 0.23 0.20 0.21 0.20 0.20 0.18 0.17 0.17 0.17 0.16 0.17 0.23 0.29 0.33 0.36 0.40 0.43 0.43 0.46 0.47 0.48 0.51 0.55 0.57 0.55 0.61 0.60 0.57 0.55 0.61 0.66 0.70 0.77 0.69 0.62 0.61 0.62 0.58 0.45 0.46 0.39 0.30 0.30 0.30 0.21 0.17 0.16 0.08
0.27 0.19 0.21 0.22 0.22 0.20 0.20 0.20 0.19 0.20 0.18 0.19 0.25 0.32 0.37 0.40 0.39 0.39 0.39 0.37 0.37 0.46 0.57 0.62 0.58 0.61 0.60 0.56 0.59 0.62 0.62 0.65 0.67 0.70 0.63 0.56 0.53 0.53 0.61 0.54 0.53 0.43 0.42 0.44 0.33 0.26 0.24 0.21 0.11
0.17 0.19 0.24 0.23 0.23 0.23 0.23 0.22 0.19 0.21 0.20 0.23 0.27 0.33 0.38 0.41 0.41 0.42 0.42 0.38 0.36 0.43 0.57 0.68 0.66 0.69 0.65 0.60 0.62 0.66 0.65 0.62 0.64 0.68 0.60 0.54 0.55 0.54 0.64 0.63 0.57 0.52 0.54 0.53 0.49 0.44 0.32 0.23 0.14
0.22 0.32 0.42 0.30 0.27 0.28 0.28 0.30 0.26 0.28 0.26 0.25 0.26 0.29 0.33 0.35 0.37 0.39 0.40 0.39 0.37 0.40 0.51 0.63 0.65 0.70 0.73 0.72 0.72 0.69 0.64 0.66 0.70 0.73 0.68 0.62 0.59 0.62 0.78 0.80 0.66 0.65 0.67 0.65 0.65 0.57 0.44 0.32 0.24
0.30 0.39 0.40 0.31 0.28 0.29 0.29 0.29 0.26 0.27 0.26 0.24 0.22 0.21 0.22 0.25 0.30 0.34 0.34 0.35 0.36 0.40 0.47 0.52 0.58 0.77 0.81 0.77 0.83 0.83 0.79 0.85 0.88 0.90 0.86 0.80 0.75 0.82 0.97 1.03 0.92 0.85 0.89 0.80 0.69 0.65 0.62 0.49 0.42
0.25 0.21 0.24 0.25 0.22 0.22 0.26 0.24 0.22 0.24 0.22 0.21 0.20 0.19 0.17 0.19 0.24 0.26 0.25 0.26 0.28 0.34 0.39 0.46 0.54 0.67 0.78 0.93 1.01 1.09 1.10 1.10 1.20 1.27 1.25 1.08 1.01 1.06 1.19 1.28 1.24 1.16 1.18 1.11 0.93 0.92 0.88 0.76 0.70
0.16 0.13 0.14 0.19 0.17 0.16 0.19 0.20 0.19 0.19 0.19 0.16 0.15 0.14 0.13 0.12 0.14 0.14 0.13 0.17 0.20 0.25 0.30 0.37 0.53 0.68 0.83 0.96 1.10 1.36 1.52 1.62 1.59 1.60 1.67 1.58 1.38 1.44 1.53 1.48 1.69 1.73 1.66 1.60 1.48 1.46 1.40 1.13 0.88
0.11 0.11 0.12 0.14 0.12 0.12 0.12 0.12 0.12 0.12 0.14 0.13 0.13 0.12 0.10 0.08 0.07 0.06 0.07 0.09 0.12 0.15 0.22 0.29 0.44 0.66 0.89 1.11 1.30 1.50 1.81 1.95 1.95 2.01 1.96 1.90 1.79 1.78 1.70 1.73 1.92 1.96 2.03 2.09 1.86 1.86 1.84 1.52 1.15
0.09 0.10 0.10 0.11 0.10 0.08 0.08 0.09 0.09 0.10 0.10 0.10 0.10 0.10 0.09 0.07 0.07 0.06 0.05 0.06 0.07 0.09 0.14 0.21 0.34 0.56 0.86 1.16 1.41 1.60 1.83 2.09 2.19 2.09 2.04 2.07 2.15 2.17 2.05 2.00 2.08 2.09 2.13 2.26 2.26 2.14 2.12 1.98 1.63
0.10 0.09 0.08 0.08 0.10 0.10 0.10 0.15 0.15 0.14 0.14 0.13 0.12 0.13 0.12 0.11 0.10 0.08 0.06 0.06 0.07 0.10 0.13 0.17 0.32 0.47 0.71 0.98 1.29 1.53 1.79 2.09 2.15 2.13 2.11 2.14 2.24 2.32 2.27 2.23 2.26 2.23 2.15 2.21 2.28 2.24 2.33 2.42 2.10
0.05 0.04 0.05 0.06 0.09 0.09 0.09 0.16 0.17 0.16 0.19 0.20 0.20 0.21 0.18 0.15 0.15 0.12 0.10 0.10 0.12 0.15 0.18 0.24 0.38 0.53 0.73 0.97 1.29 1.58 1.77 1.92 2.09 2.11 2.04 1.96 1.99 2.00 1.99 2.11 2.23 2.21 2.18 2.16 2.31 2.40 2.51 2.42 2.29
0.02 0.02 0.04 0.04 0.06 0.06 0.05 0.14 0.23 0.23 0.22 0.20 0.22 0.22 0.17 0.14 0.14 0.17 0.21 0.22 0.22 0.24 0.30 0.37 0.50 0.71 0.86 0.96 1.10 1.24 1.46 1.74 1.86 1.95 1.98 1.97 1.90 1.77 1.73 1.83 1.92 2.00 2.03 2.02 2.04 2.16 2.27 2.35 2.41
0.01 0.05 0.09 0.10 0.13 0.12 0.10 0.20 0.31 0.27 0.22 0.21 0.22 0.20 0.19 0.21 0.25 0.33 0.43 0.40 0.37 0.40 0.49 0.56 0.63 0.73 0.78 0.78 0.86 0.97 1.13 1.33 1.47 1.56 1.74 1.78 1.77 1.69 1.66 1.63 1.71 1.79 1.81 1.90 2.03 1.98 1.97 2.09 2.21
0.01 0.05 0.12 0.16 0.18 0.21 0.26 0.40 0.44 0.35 0.28 0.24 0.21 0.19 0.21 0.29 0.39 0.54 0.65 0.70 0.64 0.62 0.64 0.62 0.62 0.60 0.61 0.66 0.72 0.78 0.84 0.97 1.07 1.16 1.32 1.43 1.41 1.35 1.32 1.35 1.45 1.62 1.70 1.78 1.87 1.87 1.84 1.85 1.86
0.02 0.03 0.06 0.14 0.15 0.21 0.34 0.51 0.51 0.35 0.29 0.27 0.26 0.23 0.29 0.42 0.57 0.73 0.86 0.93 0.87 0.78 0.72 0.68 0.68 0.65 0.58 0.60 0.68 0.73 0.77 0.78 0.81 0.85 0.85 0.93 1.01 1.01 1.03 1.07 1.19 1.36 1.49 1.53 1.59 1.69 1.71 1.70 1.67
0.02 0.04 0.10 0.22 0.33 0.36 0.39 0.52 0.60 0.49 0.38 0.36 0.38 0.44 0.55 0.73 0.80 0.91 0.98 0.97 0.96 1.00 0.93 0.77 0.71 0.71 0.66 0.73 0.74 0.71 0.69 0.67 0.65 0.67 0.72 0.73 0.82 0.92 0.97 0.98 1.01 1.10 1.21 1.31 1.42 1.51 1.57 1.53 1.48
0.09 0.13 0.20 0.32 0.42 0.56 0.68 0.82 0.69 0.57 0.56 0.54 0.56 0.72 0.82 0.92 1.00 1.02 1.08 1.01 0.89 0.89 0.87 0.84 0.79 0.73 0.75 0.79 0.80 0.70 0.66 0.66 0.65 0.61 0.62 0.68 0.77 0.89 0.92 0.96 0.99 0.99 1.08 1.12 1.20 1.30 1.41 1.39 1.36
0.23 0.35 0.45 0.61 0.65 0.63 0.86 1.06 0.78 0.64 0.65 0.66 0.65 0.63 0.65 0.83 0.94 0.98 1.04 0.97 0.81 0.77 0.68 0.71 0.79 0.79 0.85 0.86 0.79 0.71 0.70 0.73 0.77 0.75 0.66 0.65 0.70 0.73 0.82 0.91 0.90 0.89 0.95 1.01 1.10 1.20 1.25 1.26 1.19

GEFSSGP_prec_meanprecacc_096.txt.gz
Total_Precipitation_Accumulation
0.18 0.40 0.77 0.81 0.85 0.53 0.26 0.17 0.14 0.18 0.17 0.11 0.07 0.08 0.16 0.29 0.48 0.67 0.54 0.29 0.14 0.13 0.12 0.19 0.29 0.26 0.23 0.25 0.33 0.40 0.42 0.45 0.50 0.52 0.52 0.30 0.18 0.16 0.16 0.18 0.21 0.22 0.19 0.21 0.27 0.33 0.31 0.26 0.30
0.26 0.72 1.03 1.07 0.87 0.37 0.28 0.24 0.26 0.24 0.14 0.10 0.05 0.05 0.11 0.12 0.11 0.32 0.56 0.46 0.18 0.18 0.21 0.30 0.39 0.34 0.30 0.32 0.43 0.51 0.57 0.60 0.66 0.64 0.47 0.24 0.19 0.20 0.20 0.23 0.27 0.22 0.15 0.16 0.19 0.25 0.26 0.23 0.29
0.37 0.63 0.91 1.08 0.47 0.32 0.34 0.33 0.34 0.20 0.10 0.09 0.06 0.04 0.08 0.16 0.20 0.34 0.54 0.35 0.21 0.24 0.33 0.49 0.52 0.45 0.41 0.42 0.51 0.63 0.72 0.70 0.73 0.68 0.43 0.28 0.24 0.23 0.25 0.29 0.25 0.17 0.14 0.12 0.13 0.18 0.19 0.19 0.20
0.45 0.67 0.90 0.69 0.37 0.30 0.34 0.36 0.21 0.14 0.08 0.04 0.04 0.05 0.10 0.19 0.27 0.33 0.37 0.32 0.28 0.27 0.32 0.44 0.54 0.50 0.49 0.55 0.63 0.64 0.59 0.60 0.67 0.60 0.44 0.31 0.31 0.29 0.29 0.25 0.17 0.14 0.14 0.11 0.10 0.12 0.13 0.14 0.14
0.46 0.80 0.90 0.60 0.41 0.35 0.26 0.22 0.12 0.09 0.08 0.06 0.04 0.10 0.15 0.21 0.32 0.39 0.46 0.46 0.42 0.38 0.35 0.42 0.50 0.46 0.46 0.55 0.63 0.65 0.56 0.60 0.64 0.60 0.53 0.37 0.34 0.33 0.31 0.22 0.17 0.15 0.13 0.12 0.10 0.09 0.09 0.09 0.11
0.65 0.96 1.02 0.79 0.47 0.36 0.29 0.20 0.13 0.10 0.08 0.08 0.10 0.15 0.19 0.24 0.35 0.47 0.51 0.55 0.56 0.53 0.47 0.45 0.52 0.50 0.49 0.55 0.62 0.64 0.62 0.68 0.65 0.54 0.48 0.44 0.36 0.33 0.28 0.20 0.18 0.16 0.16 0.16 0.12 0.08 0.08 0.09 0.12
0.78 1.01 0.92 0.60 0.48 0.48 0.36 0.20 0.12 0.11 0.09 0.09 0.13 0.19 0.22 0.28 0.34 0.42 0.48 0.57 0.62 0.62 0.60 0.55 0.55 0.56 0.58 0.66 0.66 0.69 0.74 0.83 0.78 0.57 0.48 0.49 0.37 0.29 0.23 0.20 0.17 0.14 0.15 0.17 0.13 0.09 0.08 0.10 0.13
0.45 0.76 0.97 0.81 0.65 0.58 0.27 0.11 0.07 0.06 0.05 0.06 0.08 0.15 0.24 0.29 0.32 0.47 0.56 0.62 0.65 0.63 0.61 0.55 0.56 0.60 0.64 0.73 0.77 0.77 0.77 0.84 0.80 0.66 0.60 0.57 0.40 0.28 0.24 0.21 0.21 0.19 0.19 0.22 0.18 0.13 0.10 0.09 0.11
0.36 0.64 1.06 1.07 0.70 0.51 0.24 0.14 0.08 0.05 0.05 0.05 0.06 0.09 0.17 0.21 0.27 0.41 0.53 0.56 0.58 0.58 0.60 0.57 0.56 0.59 0.66 0.75 0.77 0.86 0.87 0.90 0.82 0.74 0.73 0.61 0.44 0.40 0.38 0.27 0.27 0.27 0.30 0.29 0.23 0.19 0.14 0.08 0.08
0.43 0.68 0.89 0.75 0.45 0.32 0.29 0.23 0.12 0.11 0.10 0.08 0.09 0.13 0.22 0.30 0.35 0.45 0.51 0.58 0.59 0.61 0.64 0.62 0.65 0.63 0.63 0.68 0.93 1.09 0.97 0.87 0.77 0.79 0.75 0.69 0.63 0.60 0.41 0.37 0.39 0.34 0.34 0.33 0.28 0.26 0.16 0.07 0.04
0.34 0.44 0.44 0.43 0.30 0.21 0.19 0.17 0.15 0.15 0.15 0.13 0.15 0.18 0.26 0.36 0.41 0.43 0.49 0.57 0.62 0.62 0.65 0.61 0.59 0.54 0.55 0.69 0.87 1.05 1.10 1.07 1.04 0.90 0.88 0.82 0.71 0.56 0.40 0.38 0.39 0.38 0.37 0.35 0.36 0.29 0.17 0.12 0.09
0.32 0.29 0.29 0.31 0.22 0.19 0.16 0.14 0.16 0.16 0.17 0.16 0.19 0.23 0.26 0.34 0.40 0.44 0.49 0.52 0.52 0.55 0.58 0.55 0.53 0.51 0.49 0.50 0.61 0.76 0.82 0.82 0.84 0.85 0.78 0.78 0.79 0.68 0.54 0.48 0.52 0.51 0.45 0.44 0.45 0.40 0.29 0.20 0.13
0.35 0.24 0.20 0.21 0.20 0.20 0.18 0.17 0.17 0.17 0.16 0.17 0.23 0.29 0.33 0.36 0.40 0.43 0.43 0.46 0.47 0.48 0.51 0.55 0.58 0.55 0.61 0.60 0.57 0.56 0.62 0.67 0.72 0.79 0.71 0.66 0.67 0.69 0.69 0.58 0.60 0.55 0.51 0.50 0.48 0.34 0.29 0.26 0.15
0.30 0.21 0.22 0.22 0.22 0.20 0.20 0.20 0.19 0.20 0.18 0.19 0.25 0.32 0.37 0.40 0.40 0.39 0.39 0.37 0.37 0.46 0.57 0.62 0.58 0.61 0.60 0.56 0.59 0.62 0.62 0.65 0.68 0.72 0.65 0.59 0.58 0.59 0.68 0.64 0.65 0.55 0.56 0.62 0.49 0.38 0.37 0.32 0.19
0.17 0.20 0.25 0.23 0.23 0.23 0.23 0.23 0.19 0.21 0.20 0.23 0.27 0.33 0.38 0.41 0.41 0.42 0.42 0.38 0.36 0.43 0.57 0.68 0.66 0.69 0.65 0.60 0.63 0.66 0.65 0.62 0.65 0.69 0.61 0.57 0.60 0.60 0.70 0.72 0.68 0.63 0.64 0.64 0.61 0.54 0.47 0.36 0.25
0.22 0.33 0.47 0.33 0.30 0.29 0.30 0.33 0.26 0.29 0.26 0.26 0.26 0.29 0.33 0.35 0.37 0.39 0.40 0.39 0.37 0.40 0.51 0.63 0.65 0.70 0.73 0.72 0.72 0.69 0.65 0.66 0.71 0.74 0.70 0.65 0.63 0.65 0.83 0.87 0.74 0.77 0.81 0.79 0.77 0.70 0.61 0.49 0.39
0.33 0.45 0.49 0.39 0.33 0.30 0.30 0.32 0.26 0.27 0.26 0.24 0.22 0.21 0.22 0.25 0.31 0.34 0.34 0.35 0.36 0.40 0.47 0.52 0.58 0.78 0.81 0.77 0.83 0.83 0.80 0.85 0.89 0.91 0.88 0.83 0.79 0.87 1.03 1.08 0.98 0.94 1.04 0.95 0.80 0.78 0.76 0.65 0.59
0.32 0.28 0.30 0.31 0.24 0.22 0.26 0.25 0.23 0.24 0.22 0.21 0.20 0.19 0.18 0.19 0.24 0.26 0.25 0.26 0.28 0.34 0.39 0.46 0.55 0.67 0.79 0.94 1.02 1.10 1.11 1.11 1.22 1.30 1.28 1.11 1.06 1.11 1.25 1.34 1.29 1.23 1.31 1.26 1.06 1.08 1.05 0.92 0.87
0.20 0.15 0.16 0.20 0.18 0.17 0.19 0.20 0.19 0.19 0.19 0.16 0.15 0.14 0.13 0.12 0.14 0.14 0.13 0.17 0.20 0.25 0.31 0.37 0.54 0.69 0.86 0.98 1.12 1.37 1.54 1.64 1.62 1.63 1.69 1.61 1.42 1.49 1.59 1.54 1.75 1.81 1.76 1.72 1.61 1.64 1.59 1.31 1.07
0.14 0.12 0.13 0.15 0.14 0.13 0.12 0.13 0.12 0.12 0.14 0.13 0.13 0.12 0.11 0.09 0.07 0.06 0.07 0.09 0.12 0.16 0.22 0.30 0.44 0.67 0.92 1.14 1.33 1.52 1.83 1.99 1.99 2.05 1.99 1.94 1.82 1.81 1.73 1.77 1.98 2.03 2.11 2.18 1.98 2.01 2.01 1.67 1.33
0.10 0.10 0.11 0.11 0.11 0.10 0.08 0.09 0.09 0.10 0.11 0.10 0.10 0.10 0.10 0.08 0.07 0.06 0.05 0.06 0.07 0.09 0.14 0.21 0.34 0.56 0.88 1.19 1.44 1.63 1.86 2.13 2.23 2.13 2.08 2.11 2.18 2.21 2.08 2.03 2.13 2.14 2.19 2.34 2.36 2.26 2.26 2.10 1.77
0.11 0.10 0.09 0.09 0.10 0.10 0.10 0.16 0.15 0.14 0.14 0.13 0.12 0.13 0.12 0.11 0.10 0.08 0.06 0.06 0.07 0.10 0.13 0.17 0.32 0.48 0.71 0.99 1.31 1.56 1.82 2.13 2.21 2.19 2.16 2.19 2.29 2.36 2.31 2.26 2.31 2.28 2.21 2.27 2.35 2.34 2.45 2.55 2.21
0.06 0.05 0.05 0.06 0.09 0.09 0.09 0.16 0.17 0.16 0.19 0.20 0.20 0.21 0.18 0.15 0.15 0.12 0.10 0.10 0.12 0.15 0.18 0.24 0.38 0.53 0.73 0.97 1.30 1.61 1.80 1.97 2.16 2.18 2.09 2.01 2.05 2.05 2.04 2.15 2.29 2.27 2.24 2.22 2.37 2.49 2.61 2.54 2.41
0.02 0.03 0.04 0.04 0.06 0.06 0.05 0.14 0.23 0.23 0.22 0.20 0.22 0.22 0.17 0.14 0.14 0.17 0.21 0.22 0.22 0.24 0.30 0.38 0.50 0.71 0.87 0.97 1.11 1.28 1.48 1.76 1.90 1.99 2.03 2.02 1.97 1.83 1.78 1.87 1.97 2.05 2.09 2.08 2.10 2.23 2.35 2.46 2.54
0.01 0.05 0.09 0.11 0.13 0.12 0.10 0.20 0.31 0.27 0.22 0.21 0.22 0.20 0.19 0.21 0.25 0.33 0.43 0.40 0.37 0.40 0.49 0.56 0.63 0.73 0.79 0.78 0.86 0.99 1.15 1.36 1.49 1.59 1.78 1.83 1.84 1.76 1.72 1.67 1.75 1.83 1.85 1.96 2.10 2.05 2.06 2.17 2.31
0.01 0.05 0.12 0.16 0.18 0.21 0.26 0.40 0.44 0.35 0.28 0.24 0.21 0.19 0.21 0.29 0.39 0.54 0.65 0.70 0.64 0.62 0.64 0.62 0.63 0.60 0.61 0.66 0.73 0.80 0.86 1.00 1.10 1.19 1.35 1.47 1.45 1.40 1.37 1.40 1.49 1.66 1.76 1.84 1.93 1.94 1.90 1.93 1.97
0.02 0.03 0.06 0.14 0.15 0.21 0.34 0.51 0.51 0.35 0.29 0.27 0.26 0.23 0.29 0.42 0.57 0.73 0.86 0.93 0.87 0.78 0.72 0.68 0.68 0.65 0.58 0.60 0.68 0.74 0.79 0.80 0.83 0.87 0.87 0.95 1.03 1.03 1.06 1.11 1.23 1.41 1.54 1.59 1.66 1.76 1.78 1.79 1.77
0.02 0.04 0.10 0.22 0.33 0.36 0.39 0.52 0.60 0.49 0.38 0.36 0.38 0.44 0.55 0.73 0.80 0.91 0.98 0.97 0.96 1.00 0.93 0.77 0.71 0.71 0.66 0.73 0.74 0.72 0.70 0.68 0.67 0.70 0.75 0.76 0.84 0.94 1.00 1.02 1.07 1.16 1.26 1.37 1.50 1.59 1.66 1.62 1.56
0.09 0.13 0.20 0.32 0.42 0.56 0.68 0.82 0.69 0.57 0.56 0.54 0.56 0.72 0.82 0.92 1.00 1.02 1.08 1.01 0.89 0.89 0.87 0.84 0.79 0.73 0.75 0.80 0.80 0.70 0.67 0.67 0.67 0.64 0.66 0.73 0.82 0.92 0.94 0.99 1.02 1.03 1.12 1.18 1.26 1.36 1.48 1.45 1.42
0.23 0.35 0.45 0.61 0.65 0.63 0.86 1.06 0.78 0.64 0.65 0.66 0.65 0.63 0.65 0.83 0.94 0.98 1.04 0.97 0.81 0.77 0.68 0.71 0.79 0.79 0.85 0.86 0.79 0.71 0.71 0.74 0.79 0.77 0.69 0.69 0.74 0.76 0.85 0.94 0.93 0.93 0.99 1.06 1.15 1.24 1.28 1.30 1.23

GEFSSGP_prec_meanprecacc_102.txt.gz
Total_Precipitation_Accumulation
0.25 0.54 1.10 1.28 1.27 0.85 0.50 0.33 0.26 0.25 0.20 0.15 0.08 0.08 0.19 0.36 0.55 0.74 0.74 0.58 0.39 0.30 0.22 0.27 0.36 0.30 0.26 0.27 0.35 0.42 0.44 0.47 0.51 0.53 0.53 0.31 0.18 0.17 0.17 0.19 0.21 0.23 0.19 0.21 0.28 0.33 0.32 0.27 0.30
0.34 0.97 1.52 1.70 1.28 0.56 0.44 0.37 0.36 0.29 0.16 0.12 0.06 0.07 0.15 0.14 0.13 0.38 0.78 0.81 0.41 0.33 0.30 0.37 0.46 0.39 0.33 0.35 0.45 0.53 0.59 0.62 0.68 0.66 0.49 0.26 0.20 0.21 0.21 0.24 0.27 0.23 0.16 0.16 0.20 0.26 0.27 0.24 0.29
0.54 1.11 1.47 1.60 0.79 0.48 0.49 0.46 0.42 0.22 0.11 0.10 0.07 0.05 0.10 0.18 0.25 0.42 0.73 0.54 0.34 0.34 0.41 0.55 0.58 0.50 0.45 0.45 0.53 0.65 0.73 0.72 0.75 0.70 0.45 0.30 0.26 0.24 0.26 0.30 0.26 0.18 0.15 0.13 0.14 0.18 0.19 0.19 0.20
0.72 1.17 1.39 1.06 0.63 0.44 0.43 0.45 0.25 0.16 0.08 0.04 0.05 0.06 0.11 0.21 0.30 0.38 0.46 0.41 0.34 0.31 0.35 0.47 0.57 0.52 0.51 0.57 0.63 0.65 0.60 0.61 0.69 0.61 0.46 0.33 0.33 0.32 0.33 0.27 0.18 0.15 0.15 0.13 0.12 0.14 0.14 0.15 0.14
0.84 1.23 1.23 0.85 0.61 0.49 0.35 0.29 0.16 0.11 0.09 0.07 0.04 0.11 0.17 0.25 0.37 0.46 0.53 0.52 0.46 0.40 0.36 0.44 0.52 0.48 0.48 0.58 0.66 0.67 0.57 0.61 0.65 0.62 0.55 0.38 0.36 0.36 0.35 0.26 0.19 0.17 0.16 0.14 0.13 0.12 0.10 0.10 0.12
1.01 1.29 1.26 0.95 0.61 0.52 0.41 0.27 0.17 0.13 0.09 0.09 0.10 0.16 0.23 0.29 0.40 0.52 0.56 0.61 0.61 0.55 0.49 0.46 0.53 0.50 0.50 0.56 0.64 0.66 0.64 0.70 0.67 0.55 0.50 0.47 0.38 0.36 0.32 0.25 0.22 0.19 0.19 0.20 0.15 0.10 0.09 0.10 0.13
1.12 1.27 1.11 0.74 0.63 0.67 0.52 0.29 0.18 0.15 0.11 0.11 0.13 0.19 0.27 0.35 0.37 0.45 0.52 0.60 0.66 0.65 0.61 0.56 0.56 0.57 0.59 0.68 0.68 0.71 0.77 0.86 0.82 0.61 0.52 0.53 0.41 0.32 0.28 0.26 0.23 0.20 0.21 0.23 0.18 0.12 0.10 0.11 0.14
0.65 0.94 1.11 0.97 0.82 0.86 0.52 0.28 0.13 0.08 0.06 0.06 0.08 0.16 0.26 0.35 0.35 0.48 0.57 0.63 0.66 0.64 0.62 0.56 0.57 0.61 0.65 0.74 0.78 0.79 0.79 0.86 0.84 0.71 0.66 0.64 0.47 0.35 0.31 0.28 0.29 0.28 0.27 0.29 0.24 0.18 0.15 0.13 0.13
0.54 0.79 1.20 1.21 0.79 0.66 0.37 0.29 0.12 0.07 0.06 0.06 0.06 0.09 0.18 0.22 0.27 0.42 0.53 0.56 0.58 0.58 0.61 0.58 0.56 0.60 0.66 0.76 0.78 0.87 0.88 0.91 0.84 0.76 0.79 0.69 0.49 0.44 0.43 0.35 0.38 0.40 0.44 0.39 0.33 0.27 0.20 0.13 0.10
0.63 0.84 0.99 0.83 0.50 0.37 0.38 0.35 0.15 0.13 0.12 0.09 0.10 0.13 0.23 0.30 0.35 0.46 0.52 0.58 0.59 0.61 0.64 0.62 0.65 0.64 0.64 0.68 0.93 1.09 0.97 0.88 0.77 0.79 0.76 0.72 0.67 0.64 0.46 0.44 0.50 0.50 0.50 0.46 0.39 0.35 0.22 0.11 0.06
0.53 0.61 0.53 0.49 0.34 0.26 0.26 0.22 0.17 0.17 0.18 0.14 0.15 0.19 0.26 0.37 0.42 0.44 0.50 0.58 0.63 0.63 0.65 0.61 0.59 0.54 0.55 0.69 0.87 1.05 1.10 1.07 1.04 0.90 0.89 0.84 0.74 0.62 0.46 0.43 0.45 0.45 0.45 0.41 0.42 0.37 0.22 0.14 0.10
0.52 0.43 0.42 0.39 0.26 0.24 0.20 0.17 0.18 0.18 0.19 0.17 0.19 0.23 0.26 0.34 0.41 0.45 0.49 0.52 0.53 0.55 0.58 0.55 0.53 0.51 0.49 0.50 0.61 0.76 0.83 0.82 0.84 0.85 0.79 0.80 0.80 0.72 0.60 0.54 0.57 0.57 0.51 0.50 0.51 0.44 0.32 0.24 0.18
0.62 0.45 0.31 0.26 0.24 0.24 0.22 0.20 0.19 0.19 0.17 0.18 0.23 0.29 0.33 0.37 0.40 0.43 0.43 0.46 0.47 0.48 0.51 0.55 0.58 0.55 0.61 0.60 0.57 0.56 0.62 0.67 0.72 0.79 0.72 0.66 0.69 0.71 0.72 0.64 0.67 0.63 0.60 0.58 0.54 0.39 0.34 0.33 0.24
0.53 0.40 0.33 0.28 0.27 0.25 0.24 0.23 0.20 0.21 0.19 0.19 0.25 0.32 0.37 0.40 0.40 0.39 0.39 0.37 0.37 0.46 0.57 0.62 0.58 0.61 0.60 0.56 0.59 0.62 0.62 0.65 0.68 0.72 0.65 0.59 0.59 0.61 0.71 0.68 0.71 0.62 0.63 0.68 0.59 0.49 0.46 0.40 0.29
0.32 0.35 0.38 0.32 0.33 0.31 0.29 0.27 0.21 0.23 0.21 0.23 0.27 0.33 0.38 0.41 0.41 0.42 0.42 0.38 0.36 0.43 0.57 0.68 0.66 0.69 0.65 0.60 0.63 0.66 0.65 0.62 0.65 0.69 0.62 0.57 0.60 0.61 0.72 0.75 0.72 0.68 0.70 0.70 0.71 0.67 0.58 0.46 0.35
0.35 0.45 0.60 0.47 0.45 0.40 0.34 0.37 0.28 0.31 0.27 0.26 0.26 0.29 0.33 0.35 0.37 0.39 0.40 0.39 0.37 0.40 0.51 0.63 0.65 0.70 0.73 0.72 0.72 0.69 0.65 0.66 0.71 0.74 0.70 0.65 0.63 0.66 0.84 0.89 0.77 0.81 0.87 0.86 0.85 0.79 0.70 0.57 0.48
0.48 0.59 0.63 0.53 0.42 0.37 0.36 0.36 0.29 0.29 0.27 0.25 0.23 0.22 0.23 0.25 0.31 0.34 0.35 0.35 0.36 0.40 0.47 0.52 0.58 0.78 0.81 0.77 0.83 0.83 0.80 0.85 0.89 0.91 0.89 0.83 0.80 0.88 1.04 1.10 1.01 0.98 1.09 1.02 0.90 0.88 0.87 0.75 0.68
0.43 0.38 0.37 0.38 0.29 0.28 0.33 0.28 0.25 0.26 0.23 0.22 0.20 0.19 0.18 0.19 0.24 0.26 0.25 0.26 0.28 0.34 0.39 0.46 0.55 0.67 0.79 0.94 1.02 1.10 1.11 1.11 1.22 1.30 1.28 1.11 1.06 1.12 1.26 1.35 1.31 1.26 1.34 1.31 1.14 1.19 1.17 1.02 0.98
0.30 0.22 0.22 0.25 0.21 0.21 0.24 0.23 0.21 0.20 0.20 0.18 0.16 0.15 0.14 0.12 0.14 0.14 0.13 0.17 0.20 0.25 0.31 0.37 0.54 0.70 0.86 0.98 1.12 1.38 1.54 1.64 1.62 1.63 1.70 1.62 1.43 1.49 1.60 1.56 1.77 1.82 1.77 1.76 1.67 1.72 1.71 1.42 1.20
0.22 0.19 0.20 0.19 0.16 0.14 0.14 0.14 0.13 0.13 0.15 0.15 0.15 0.13 0.11 0.09 0.07 0.06 0.07 0.09 0.12 0.16 0.22 0.30 0.44 0.67 0.92 1.14 1.33 1.52 1.83 1.99 1.99 2.05 2.00 1.95 1.83 1.82 1.74 1.79 2.00 2.04 2.13 2.21 2.03 2.08 2.10 1.77 1.44
0.17 0.16 0.16 0.14 0.12 0.10 0.09 0.10 0.10 0.11 0.12 0.12 0.11 0.11 0.10 0.08 0.07 0.06 0.05 0.06 0.07 0.09 0.14 0.21 0.34 0.57 0.88 1.19 1.44 1.63 1.87 2.14 2.23 2.13 2.09 2.12 2.19 2.22 2.10 2.05 2.15 2.16 2.21 2.35 2.38 2.31 2.31 2.16 1.84
0.19 0.13 0.12 0.11 0.11 0.11 0.10 0.16 0.15 0.15 0.16 0.14 0.13 0.13 0.12 0.11 0.10 0.08 0.06 0.06 0.07 0.10 0.13 0.17 0.32 0.48 0.72 0.99 1.31 1.57 1.83 2.14 2.22 2.19 2.16 2.20 2.31 2.39 2.34 2.28 2.32 2.30 2.23 2.28 2.37 2.36 2.49 2.59 2.27
0.12 0.07 0.06 0.07 0.09 0.09 0.09 0.16 0.17 0.16 0.20 0.20 0.20 0.21 0.18 0.15 0.15 0.12 0.10 0.10 0.12 0.15 0.18 0.24 0.38 0.53 0.74 0.98 1.30 1.62 1.81 1.98 2.17 2.19 2.10 2.03 2.08 2.09 2.08 2.18 2.30 2.29 2.26 2.24 2.39 2.51 2.64 2.58 2.46
0.04 0.04 0.04 0.04 0.06 0.06 0.05 0.14 0.23 0.23 0.22 0.20 0.22 0.22 0.17 0.14 0.14 0.17 0.21 0.22 0.22 0.24 0.30 0.38 0.50 0.71 0.87 0.97 1.11 1.28 1.49 1.77 1.91 2.00 2.04 2.04 2.00 1.86 1.81 1.90 1.99 2.07 2.11 2.10 2.12 2.25 2.38 2.50 2.59
0.02 0.06 0.10 0.11 0.13 0.12 0.10 0.20 0.31 0.27 0.22 0.21 0.22 0.20 0.19 0.21 0.25 0.33 0.43 0.40 0.37 0.40 0.49 0.56 0.63 0.73 0.79 0.78 0.86 0.99 1.15 1.36 1.50 1.60 1.79 1.85 1.87 1.79 1.73 1.69 1.76 1.85 1.87 1.98 2.13 2.08 2.08 2.21 2.37
0.01 0.05 0.12 0.16 0.18 0.21 0.26 0.40 0.44 0.35 0.28 0.24 0.21 0.19 0.21 0.29 0.39 0.54 0.65 0.70 0.64 0.62 0.64 0.62 0.63 0.60 0.61 0.66 0.73 0.80 0.86 1.00 1.12 1.20 1.36 1.48 1.47 1.43 1.38 1.41 1.50 1.68 1.78 1.86 1.96 1.96 1.93 1.97 2.03
0.02 0.03 0.06 0.14 0.15 0.21 0.34 0.51 0.51 0.35 0.29 0.27 0.26 0.23 0.29 0.42 0.57 0.73 0.86 0.93 0.87 0.78 0.72 0.68 0.68 0.65 0.58 0.60 0.68 0.74 0.79 0.80 0.84 0.88 0.88 0.96 1.04 1.05 1.08 1.12 1.25 1.42 1.56 1.62 1.68 1.78 1.81 1.83 1.81
0.02 0.04 0.10 0.22 0.33 0.36 0.39 0.52 0.60 0.49 0.38 0.36 0.38 0.44 0.55 0.73 0.80 0.91 0.98 0.97 0.96 1.00 0.93 0.77 0.71 0.71 0.66 0.73 0.74 0.72 0.70 0.68 0.67 0.70 0.76 0.77 0.85 0.95 1.02 1.03 1.09 1.18 1.28 1.39 1.53 1.62 1.69 1.66 1.61
0.09 0.13 0.20 0.32 0.42 0.56 0.68 0.82 0.69 0.57 0.56 0.54 0.56 0.72 0.82 0.92 1.00 1.02 1.08 1.01 0.89 0.89 0.87 0.84 0.79 0.73 0.75 0.80 0.80 0.70 0.67 0.67 0.67 0.65 0.67 0.74 0.83 0.93 0.96 1.01 1.05 1.06 1.15 1.20 1.29 1.39 1.50 1.47 1.45
0.23 0.35 0.45 0.61 0.65 0.63 0.86 1.06 0.78 0.64 0.65 0.66 0.65 0.63 0.65 0.83 0.94 0.98 1.04 0.97 0.81 0.77 0.68 0.71 0.79 0.79 0.85 0.86 0.79 0.71 0.71 0.74 0.79 0.77 0.69 0.70 0.76 0.78 0.88 0.98 0.97 0.97 1.03 1.11 1.19 1.27 1.30 1.31 1.25

GEFSSGP_prec_meanprecacc_108.txt.gz
Total_Precipitation_Accumulation
0.50 0.80 1.43 1.63 1.51 1.01 0.59 0.38 0.32 0.34 0.29 0.20 0.10 0.09 0.20 0.37 0.57 0.76 0.78 0.66 0.48 0.39 0.31 0.37 0.47 0.38 0.33 0.34 0.40 0.47 0.49 0.52 0.55 0.56 0.56 0.34 0.22 0.20 0.19 0.20 0.22 0.23 0.19 0.21 0.28 0.34 0.33 0.27 0.31
0.53 1.28 1.90 2.08 1.47 0.68 0.52 0.43 0.42 0.37 0.22 0.15 0.07 0.07 0.15 0.15 0.14 0.41 0.87 0.93 0.52 0.45 0.43 0.48 0.59 0.51 0.41 0.42 0.51 0.59 0.65 0.67 0.73 0.71 0.54 0.29 0.24 0.25 0.24 0.26 0.29 0.23 0.16 0.17 0.20 0.26 0.27 0.25 0.30
0.74 1.48 1.81 1.84 0.90 0.55 0.55 0.53 0.50 0.30 0.16 0.13 0.09 0.06 0.10 0.19 0.26 0.44 0.82 0.67 0.46 0.48 0.54 0.68 0.74 0.64 0.57 0.54 0.61 0.72 0.80 0.78 0.81 0.75 0.51 0.34 0.30 0.30 0.31 0.34 0.29 0.20 0.17 0.15 0.14 0.19 0.20 0.20 0.21
0.94 1.52 1.61 1.17 0.71 0.51 0.50 0.56 0.37 0.24 0.13 0.07 0.06 0.07 0.12 0.23 0.32 0.42 0.58 0.60 0.48 0.44 0.46 0.58 0.71 0.64 0.62 0.67 0.72 0.73 0.67 0.69 0.77 0.70 0.54 0.41 0.41 0.40 0.40 0.33 0.24 0.21 0.19 0.16 0.15 0.16 0.15 0.16 0.16
1.19 1.62 1.41 0.94 0.69 0.61 0.44 0.37 0.26 0.23 0.17 0.09 0.05 0.12 0.18 0.29 0.40 0.50 0.63 0.64 0.55 0.50 0.44 0.51 0.60 0.55 0.55 0.66 0.76 0.78 0.68 0.71 0.75 0.71 0.64 0.47 0.45 0.45 0.45 0.36 0.28 0.25 0.23 0.19 0.17 0.16 0.14 0.13 0.14
1.32 1.54 1.41 1.03 0.70 0.62 0.49 0.33 0.22 0.19 0.15 0.13 0.12 0.17 0.23 0.32 0.43 0.56 0.62 0.67 0.65 0.60 0.55 0.51 0.59 0.57 0.56 0.62 0.70 0.74 0.73 0.81 0.79 0.68 0.61 0.56 0.48 0.46 0.43 0.37 0.33 0.28 0.25 0.25 0.20 0.16 0.14 0.14 0.16
1.36 1.44 1.22 0.80 0.68 0.74 0.56 0.33 0.22 0.19 0.15 0.15 0.15 0.21 0.28 0.37 0.41 0.48 0.54 0.63 0.69 0.69 0.66 0.60 0.60 0.62 0.64 0.73 0.73 0.76 0.82 0.94 0.91 0.72 0.64 0.64 0.51 0.43 0.38 0.36 0.35 0.31 0.30 0.30 0.24 0.19 0.17 0.17 0.19
0.89 1.11 1.20 1.02 0.85 0.91 0.56 0.31 0.17 0.11 0.09 0.09 0.09 0.16 0.27 0.36 0.36 0.51 0.60 0.65 0.69 0.66 0.64 0.58 0.58 0.62 0.67 0.76 0.81 0.82 0.82 0.90 0.89 0.78 0.75 0.72 0.55 0.44 0.42 0.37 0.39 0.40 0.40 0.40 0.33 0.26 0.22 0.21 0.20
0.77 0.93 1.26 1.25 0.81 0.68 0.40 0.33 0.15 0.09 0.08 0.08 0.07 0.09 0.18 0.22 0.28 0.43 0.55 0.57 0.60 0.60 0.61 0.59 0.57 0.60 0.67 0.76 0.79 0.88 0.91 0.94 0.87 0.79 0.82 0.73 0.53 0.49 0.50 0.41 0.48 0.54 0.61 0.57 0.47 0.39 0.30 0.24 0.21
0.82 0.97 1.05 0.86 0.53 0.40 0.43 0.40 0.17 0.14 0.13 0.11 0.10 0.14 0.24 0.31 0.37 0.48 0.53 0.60 0.60 0.62 0.64 0.62 0.65 0.64 0.64 0.69 0.93 1.10 0.98 0.89 0.78 0.80 0.77 0.74 0.70 0.68 0.50 0.49 0.59 0.62 0.67 0.64 0.54 0.49 0.36 0.22 0.13
0.68 0.77 0.64 0.54 0.37 0.30 0.32 0.28 0.19 0.18 0.19 0.15 0.16 0.20 0.27 0.39 0.43 0.46 0.51 0.60 0.64 0.63 0.65 0.61 0.59 0.54 0.55 0.69 0.87 1.06 1.11 1.07 1.04 0.90 0.89 0.84 0.76 0.64 0.49 0.46 0.50 0.51 0.56 0.52 0.53 0.48 0.31 0.22 0.16
0.63 0.55 0.50 0.45 0.31 0.30 0.29 0.23 0.21 0.19 0.20 0.18 0.20 0.24 0.28 0.35 0.43 0.47 0.51 0.53 0.53 0.55 0.58 0.55 0.53 0.51 0.49 0.50 0.61 0.76 0.83 0.82 0.84 0.85 0.79 0.80 0.81 0.74 0.62 0.56 0.59 0.60 0.56 0.58 0.61 0.55 0.42 0.33 0.25
0.69 0.54 0.38 0.33 0.30 0.31 0.27 0.24 0.21 0.20 0.18 0.18 0.24 0.30 0.34 0.37 0.41 0.43 0.44 0.47 0.48 0.49 0.51 0.55 0.58 0.55 0.61 0.60 0.57 0.56 0.62 0.67 0.72 0.79 0.72 0.67 0.69 0.72 0.73 0.66 0.70 0.66 0.64 0.63 0.61 0.46 0.42 0.40 0.31
0.59 0.45 0.39 0.35 0.35 0.31 0.29 0.27 0.22 0.22 0.19 0.20 0.25 0.32 0.37 0.40 0.40 0.40 0.40 0.38 0.38 0.46 0.57 0.62 0.58 0.61 0.60 0.56 0.59 0.62 0.62 0.65 0.68 0.72 0.66 0.60 0.59 0.61 0.72 0.70 0.74 0.65 0.67 0.73 0.64 0.55 0.52 0.46 0.35
0.40 0.42 0.46 0.40 0.41 0.38 0.34 0.34 0.24 0.23 0.21 0.24 0.28 0.34 0.39 0.41 0.41 0.42 0.42 0.38 0.36 0.43 0.57 0.68 0.66 0.69 0.65 0.60 0.63 0.66 0.65 0.62 0.65 0.69 0.62 0.57 0.60 0.61 0.72 0.75 0.73 0.70 0.72 0.74 0.76 0.74 0.66 0.53 0.40
0.48 0.55 0.68 0.52 0.49 0.43 0.37 0.39 0.29 0.31 0.28 0.27 0.27 0.30 0.33 0.36 0.38 0.39 0.40 0.39 0.37 0.40 0.51 0.63 0.65 0.70 0.73 0.72 0.72 0.69 0.65 0.66 0.71 0.74 0.70 0.65 0.63 0.66 0.85 0.89 0.77 0.82 0.90 0.90 0.90 0.85 0.76 0.64 0.54
0.59 0.67 0.67 0.57 0.45 0.39 0.38 0.37 0.29 0.29 0.28 0.26 0.23 0.22 0.23 0.25 0.31 0.34 0.35 0.35 0.36 0.40 0.47 0.52 0.58 0.78 0.81 0.77 0.83 0.83 0.80 0.85 0.89 0.91 0.89 0.83 0.80 0.88 1.04 1.10 1.01 0.99 1.11 1.05 0.93 0.92 0.91 0.80 0.74
0.48 0.42 0.40 0.40 0.31 0.31 0.35 0.28 0.26 0.27 0.24 0.23 0.21 0.19 0.18 0.20 0.24 0.26 0.25 0.26 0.28 0.34 0.39 0.46 0.55 0.67 0.79 0.94 1.02 1.10 1.11 1.11 1.22 1.30 1.28 1.11 1.06 1.12 1.26 1.35 1.31 1.26 1.35 1.32 1.17 1.22 1.21 1.07 1.07
0.34 0.24 0.24 0.26 0.22 0.23 0.26 0.24 0.22 0.21 0.21 0.19 0.17 0.15 0.14 0.12 0.14 0.14 0.13 0.17 0.20 0.25 0.31 0.37 0.54 0.70 0.86 0.98 1.12 1.38 1.54 1.64 1.62 1.63 1.70 1.62 1.43 1.50 1.60 1.56 1.77 1.83 1.79 1.78 1.70 1.77 1.77 1.48 1.28
0.26 0.22 0.22 0.20 0.18 0.16 0.15 0.14 0.13 0.13 0.16 0.16 0.15 0.14 0.11 0.09 0.07 0.06 0.07 0.09 0.12 0.16 0.22 0.30 0.44 0.67 0.92 1.14 1.33 1.52 1.83 1.99 1.99 2.05 2.00 1.95 1.83 1.83 1.75 1.81 2.01 2.05 2.14 2.23 2.06 2.13 2.17 1.84 1.53
0.20 0.18 0.17 0.15 0.14 0.12 0.10 0.10 0.10 0.11 0.12 0.12 0.11 0.11 0.10 0.08 0.07 0.06 0.05 0.06 0.07 0.09 0.14 0.21 0.34 0.57 0.88 1.19 1.44 1.63 1.87 2.14 2.23 2.13 2.09 2.12 2.20 2.23 2.11 2.06 2.17 2.17 2.22 2.38 2.41 2.34 2.35 2.21 1.91
0.22 0.15 0.13 0.13 0.13 0.12 0.11 0.16 0.15 0.15 0.16 0.14 0.13 0.13 0.12 0.11 0.10 0.08 0.06 0.06 0.07 0.10 0.13 0.17 0.32 0.48 0.72 0.99 1.31 1.57 1.83 2.14 2.22 2.19 2.16 2.20 2.32 2.40 2.35 2.29 2.34 2.32 2.25 2.31 2.39 2.39 2.53 2.63 2.33
0.14 0.10 0.08 0.08 0.11 0.10 0.09 0.16 0.17 0.17 0.20 0.20 0.20 0.21 0.18 0.15 0.15 0.12 0.10 0.10 0.12 0.15 0.18 0.24 0.38 0.53 0.74 0.98 1.30 1.62 1.81 1.98 2.18 2.19 2.10 2.03 2.08 2.10 2.08 2.19 2.32 2.31 2.27 2.25 2.41 2.53 2.67 2.61 2.50
0.07 0.07 0.07 0.06 0.06 0.06 0.05 0.14 0.23 0.23 0.22 0.20 0.22 0.22 0.17 0.14 0.15 0.17 0.21 0.22 0.22 0.24 0.30 0.38 0.50 0.71 0.87 0.97 1.11 1.28 1.49 1.78 1.92 2.02 2.05 2.05 2.02 1.88 1.82 1.91 2.00 2.08 2.12 2.11 2.13 2.26 2.39 2.53 2.64
0.05 0.07 0.11 0.11 0.13 0.12 0.10 0.20 0.31 0.27 0.22 0.21 0.22 0.20 0.19 0.21 0.25 0.33 0.43 0.40 0.37 0.40 0.49 0.56 0.63 0.73 0.79 0.78 0.86 0.99 1.16 1.37 1.51 1.61 1.80 1.86 1.88 1.81 1.74 1.70 1.78 1.86 1.89 1.98 2.14 2.09 2.10 2.25 2.41
0.03 0.05 0.13 0.16 0.18 0.21 0.26 0.40 0.44 0.35 0.28 0.24 0.21 0.19 0.21 0.29 0.39 0.54 0.65 0.70 0.64 0.62 0.64 0.62 0.63 0.60 0.62 0.66 0.73 0.80 0.86 1.00 1.12 1.20 1.36 1.49 1.48 1.43 1.39 1.42 1.52 1.69 1.78 1.87 1.96 1.97 1.94 1.99 2.05
0.02 0.03 0.07 0.14 0.15 0.21 0.34 0.51 0.51 0.35 0.29 0.27 0.26 0.23 0.29 0.42 0.57 0.73 0.86 0.93 0.87 0.78 0.72 0.68 0.68 0.65 0.58 0.60 0.68 0.75 0.79 0.81 0.84 0.88 0.88 0.97 1.04 1.06 1.09 1.13 1.25 1.44 1.58 1.63 1.70 1.80 1.83 1.85 1.84
0.03 0.05 0.10 0.22 0.33 0.36 0.39 0.52 0.60 0.49 0.38 0.36 0.38 0.44 0.55 0.73 0.80 0.91 0.98 0.97 0.96 1.00 0.93 0.77 0.71 0.71 0.66 0.73 0.74 0.72 0.70 0.68 0.67 0.71 0.76 0.77 0.86 0.96 1.03 1.05 1.10 1.19 1.29 1.41 1.55 1.63 1.71 1.70 1.64
0.09 0.13 0.20 0.32 0.42 0.56 0.68 0.82 0.69 0.57 0.56 0.54 0.56 0.72 0.82 0.92 1.00 1.02 1.08 1.01 0.89 0.89 0.87 0.84 0.79 0.73 0.75 0.80 0.80 0.70 0.67 0.67 0.67 0.65 0.67 0.75 0.84 0.94 0.96 1.01 1.06 1.08 1.16 1.22 1.31 1.41 1.52 1.50 1.48
0.23 0.35 0.45 0.61 0.65 0.63 0.86 1.06 0.78 0.64 0.65 0.66 0.65 0.63 0.65 0.83 0.94 0.98 1.04 0.97 0.81 0.77 0.68 0.71 0.79 0.79 0.85 0.86 0.79 0.71 0.71 0.74 0.79 0.77 0.69 0.71 0.76 0.78 0.88 0.99 0.98 0.99 1.05 1.13 1.22 1.30 1.32 1.34 1.28

GEFSSGP_prec_meanprecacc_114.txt.gz
Total_Precipitation_Accumulation
0.61 0.90 1.52 1.74 1.62 1.12 0.66 0.44 0.36 0.40 0.37 0.26 0.14 0.12 0.24 0.42 0.62 0.82 0.83 0.71 0.52 0.42 0.34 0.42 0.53 0.46 0.41 0.42 0.47 0.53 0.55 0.57 0.61 0.64 0.65 0.42 0.29 0.26 0.24 0.25 0.26 0.26 0.21 0.23 0.30 0.35 0.34 0.28 0.32
0.61 1.34 1.96 2.17 1.57 0.76 0.56 0.47 0.47 0.43 0.27 0.18 0.09 0.09 0.18 0.17 0.15 0.44 0.92 0.99 0.56 0.49 0.47 0.52 0.66 0.59 0.49 0.49 0.57 0.65 0.70 0.74 0.80 0.78 0.63 0.40 0.33 0.33 0.32 0.34 0.35 0.29 0.22 0.21 0.23 0.28 0.29 0.26 0.31
0.79 1.52 1.90 1.95 0.97 0.61 0.60 0.59 0.56 0.37 0.20 0.15 0.11 0.08 0.13 0.20 0.28 0.50 0.89 0.73 0.50 0.52 0.57 0.72 0.81 0.71 0.64 0.61 0.67 0.78 0.87 0.85 0.87 0.82 0.59 0.46 0.42 0.42 0.41 0.45 0.38 0.29 0.25 0.22 0.21 0.23 0.23 0.23 0.23
0.99 1.60 1.71 1.25 0.78 0.57 0.56 0.60 0.42 0.28 0.15 0.09 0.07 0.09 0.14 0.24 0.36 0.48 0.63 0.64 0.52 0.48 0.49 0.62 0.77 0.70 0.67 0.71 0.78 0.79 0.74 0.76 0.83 0.76 0.60 0.48 0.51 0.50 0.49 0.43 0.35 0.32 0.31 0.28 0.25 0.24 0.22 0.21 0.20
1.28 1.74 1.51 1.01 0.74 0.65 0.46 0.40 0.29 0.27 0.19 0.10 0.06 0.13 0.20 0.31 0.43 0.55 0.68 0.67 0.58 0.54 0.47 0.55 0.65 0.62 0.63 0.72 0.81 0.83 0.74 0.77 0.82 0.79 0.71 0.53 0.52 0.54 0.54 0.45 0.37 0.35 0.36 0.34 0.31 0.28 0.24 0.21 0.20
1.45 1.66 1.52 1.10 0.75 0.68 0.52 0.35 0.24 0.21 0.16 0.14 0.13 0.18 0.25 0.34 0.46 0.61 0.66 0.70 0.68 0.62 0.57 0.54 0.62 0.61 0.60 0.65 0.73 0.78 0.77 0.85 0.84 0.73 0.67 0.62 0.54 0.53 0.51 0.46 0.44 0.41 0.40 0.39 0.36 0.31 0.28 0.26 0.26
1.51 1.56 1.32 0.87 0.74 0.80 0.60 0.34 0.24 0.20 0.16 0.15 0.16 0.22 0.30 0.39 0.43 0.50 0.55 0.64 0.70 0.70 0.67 0.62 0.62 0.63 0.66 0.74 0.75 0.78 0.85 0.96 0.94 0.75 0.69 0.69 0.57 0.49 0.46 0.45 0.46 0.44 0.45 0.47 0.41 0.33 0.28 0.30 0.31
0.99 1.23 1.31 1.10 0.90 0.96 0.58 0.33 0.18 0.12 0.10 0.09 0.11 0.18 0.28 0.38 0.37 0.52 0.60 0.66 0.69 0.66 0.64 0.58 0.59 0.63 0.68 0.77 0.82 0.83 0.83 0.92 0.91 0.80 0.78 0.78 0.62 0.51 0.50 0.46 0.48 0.50 0.52 0.56 0.50 0.41 0.34 0.32 0.33
0.90 1.09 1.38 1.32 0.86 0.72 0.42 0.35 0.16 0.09 0.09 0.09 0.08 0.10 0.19 0.23 0.28 0.43 0.57 0.59 0.62 0.61 0.62 0.59 0.57 0.61 0.67 0.76 0.79 0.89 0.91 0.95 0.88 0.81 0.85 0.76 0.56 0.52 0.53 0.47 0.56 0.64 0.73 0.71 0.62 0.54 0.43 0.36 0.32
0.97 1.12 1.15 0.91 0.55 0.43 0.45 0.41 0.18 0.15 0.15 0.12 0.11 0.14 0.25 0.33 0.39 0.50 0.56 0.61 0.61 0.63 0.65 0.63 0.66 0.64 0.64 0.69 0.93 1.10 0.98 0.89 0.78 0.80 0.78 0.75 0.72 0.69 0.51 0.52 0.65 0.69 0.75 0.75 0.67 0.62 0.48 0.32 0.22
0.76 0.85 0.70 0.57 0.40 0.33 0.34 0.29 0.20 0.20 0.20 0.16 0.17 0.20 0.28 0.41 0.46 0.49 0.54 0.61 0.65 0.64 0.66 0.61 0.59 0.54 0.55 0.69 0.87 1.06 1.11 1.07 1.04 0.90 0.89 0.85 0.76 0.65 0.50 0.47 0.51 0.56 0.61 0.58 0.61 0.57 0.39 0.30 0.26
0.68 0.58 0.54 0.49 0.34 0.34 0.32 0.25 0.22 0.20 0.20 0.18 0.21 0.24 0.28 0.36 0.44 0.49 0.53 0.55 0.54 0.55 0.58 0.55 0.53 0.51 0.49 0.50 0.61 0.76 0.83 0.82 0.84 0.85 0.79 0.80 0.81 0.74 0.63 0.57 0.60 0.62 0.59 0.62 0.66 0.60 0.48 0.39 0.33
0.73 0.57 0.42 0.36 0.33 0.35 0.31 0.26 0.22 0.20 0.18 0.18 0.24 0.30 0.34 0.38 0.42 0.44 0.45 0.48 0.48 0.49 0.52 0.55 0.58 0.55 0.61 0.60 0.57 0.56 0.62 0.67 0.72 0.79 0.72 0.67 0.69 0.72 0.74 0.67 0.71 0.67 0.66 0.67 0.66 0.52 0.48 0.46 0.36
0.63 0.49 0.43 0.38 0.39 0.38 0.34 0.28 0.23 0.22 0.19 0.20 0.25 0.32 0.38 0.41 0.41 0.41 0.40 0.38 0.38 0.46 0.57 0.62 0.58 0.61 0.60 0.56 0.59 0.62 0.62 0.65 0.68 0.73 0.66 0.60 0.60 0.62 0.72 0.71 0.75 0.66 0.68 0.75 0.68 0.60 0.58 0.53 0.42
0.43 0.46 0.50 0.44 0.46 0.44 0.38 0.37 0.24 0.24 0.22 0.24 0.28 0.34 0.39 0.41 0.42 0.43 0.42 0.38 0.37 0.43 0.57 0.68 0.66 0.69 0.65 0.60 0.63 0.66 0.65 0.62 0.65 0.69 0.62 0.57 0.61 0.62 0.73 0.76 0.74 0.71 0.74 0.76 0.79 0.79 0.72 0.60 0.48
0.52 0.60 0.73 0.55 0.51 0.46 0.40 0.41 0.29 0.31 0.28 0.27 0.27 0.30 0.33 0.36 0.38 0.39 0.40 0.39 0.37 0.40 0.51 0.63 0.65 0.70 0.73 0.72 0.72 0.69 0.65 0.66 0.71 0.74 0.70 0.65 0.64 0.67 0.86 0.90 0.78 0.83 0.92 0.93 0.94 0.90 0.81 0.70 0.61
0.63 0.71 0.71 0.59 0.46 0.41 0.40 0.38 0.29 0.29 0.28 0.26 0.23 0.22 0.23 0.26 0.31 0.34 0.35 0.35 0.36 0.40 0.47 0.52 0.58 0.78 0.81 0.77 0.83 0.83 0.80 0.86 0.89 0.91 0.89 0.83 0.80 0.88 1.05 1.11 1.02 0.99 1.13 1.08 0.96 0.95 0.95 0.83 0.79
0.51 0.43 0.42 0.42 0.33 0.33 0.36 0.29 0.26 0.27 0.24 0.23 0.21 0.19 0.18 0.20 0.24 0.26 0.25 0.26 0.28 0.34 0.39 0.46 0.55 0.67 0.79 0.94 1.02 1.10 1.11 1.11 1.23 1.30 1.28 1.11 1.07 1.12 1.26 1.36 1.32 1.27 1.37 1.35 1.20 1.25 1.24 1.11 1.12
0.35 0.25 0.25 0.27 0.23 0.25 0.27 0.24 0.22 0.22 0.22 0.19 0.17 0.15 0.14 0.13 0.14 0.14 0.13 0.17 0.20 0.25 0.31 0.37 0.54 0.70 0.86 0.98 1.12 1.38 1.54 1.64 1.62 1.63 1.70 1.62 1.43 1.51 1.62 1.58 1.78 1.84 1.81 1.80 1.72 1.80 1.80 1.52 1.34
0.28 0.24 0.23 0.22 0.19 0.17 0.16 0.15 0.13 0.13 0.16 0.16 0.15 0.14 0.12 0.09 0.07 0.06 0.07 0.09 0.12 0.16 0.22 0.30 0.44 0.67 0.92 1.14 1.33 1.52 1.84 1.99 1.99 2.05 2.00 1.95 1.84 1.84 1.76 1.83 2.03 2.07 2.16 2.25 2.08 2.16 2.20 1.88 1.58
0.22 0.19 0.19 0.17 0.17 0.15 0.11 0.10 0.10 0.11 0.12 0.12 0.11 0.11 0.10 0.08 0.07 0.06 0.05 0.06 0.07 0.09 0.14 0.21 0.34 0.57 0.88 1.19 1.44 1.64 1.87 2.14 2.23 2.14 2.09 2.12 2.20 2.23 2.12 2.08 2.19 2.19 2.25 2.40 2.43 2.37 2.39 2.27 1.97
0.25 0.17 0.15 0.15 0.17 0.15 0.12 0.16 0.15 0.15 0.16 0.14 0.13 0.13 0.12 0.11 0.10 0.09 0.06 0.06 0.07 0.10 0.13 0.17 0.32 0.48 0.72 0.99 1.31 1.57 1.83 2.15 2.22 2.20 2.17 2.20 2.32 2.41 2.35 2.29 2.35 2.35 2.28 2.35 2.43 2.42 2.57 2.69 2.39
0.18 0.12 0.12 0.13 0.14 0.12 0.10 0.16 0.18 0.17 0.20 0.20 0.20 0.21 0.18 0.15 0.15 0.12 0.10 0.10 0.12 0.15 0.18 0.24 0.38 0.53 0.74 0.98 1.30 1.62 1.82 1.99 2.19 2.20 2.11 2.04 2.09 2.11 2.09 2.20 2.34 2.34 2.30 2.28 2.43 2.55 2.71 2.65 2.55
0.13 0.11 0.09 0.08 0.08 0.08 0.06 0.14 0.23 0.23 0.22 0.20 0.22 0.22 0.17 0.14 0.15 0.17 0.21 0.22 0.22 0.24 0.30 0.38 0.50 0.71 0.87 0.97 1.12 1.29 1.50 1.78 1.92 2.02 2.05 2.06 2.03 1.90 1.84 1.92 2.02 2.10 2.14 2.13 2.15 2.28 2.42 2.57 2.68
0.08 0.11 0.13 0.12 0.14 0.12 0.10 0.20 0.31 0.27 0.22 0.21 0.22 0.20 0.19 0.21 0.25 0.33 0.43 0.40 0.37 0.40 0.49 0.56 0.63 0.73 0.79 0.78 0.86 1.00 1.16 1.37 1.51 1.61 1.80 1.86 1.89 1.82 1.76 1.72 1.80 1.87 1.90 2.00 2.16 2.12 2.13 2.29 2.45
0.05 0.07 0.14 0.16 0.18 0.21 0.26 0.40 0.44 0.35 0.28 0.24 0.21 0.19 0.21 0.29 0.39 0.54 0.65 0.70 0.64 0.62 0.64 0.62 0.63 0.60 0.62 0.66 0.73 0.80 0.86 1.00 1.12 1.20 1.36 1.49 1.48 1.44 1.41 1.44 1.54 1.70 1.79 1.88 1.98 2.00 1.97 2.02 2.08
0.04 0.04 0.07 0.15 0.15 0.21 0.34 0.51 0.51 0.35 0.29 0.27 0.26 0.23 0.29 0.42 0.57 0.73 0.86 0.93 0.87 0.78 0.72 0.68 0.68 0.65 0.58 0.60 0.68 0.75 0.79 0.81 0.84 0.88 0.88 0.97 1.05 1.07 1.10 1.14 1.26 1.45 1.59 1.65 1.71 1.82 1.85 1.88 1.87
0.04 0.05 0.10 0.22 0.33 0.36 0.39 0.52 0.60 0.49 0.38 0.36 0.38 0.44 0.55 0.73 0.80 0.91 0.98 0.97 0.96 1.00 0.93 0.77 0.71 0.71 0.66 0.73 0.75 0.72 0.70 0.69 0.67 0.71 0.76 0.78 0.86 0.96 1.05 1.06 1.11 1.20 1.30 1.42 1.56 1.66 1.73 1.73 1.67
0.09 0.13 0.20 0.32 0.42 0.56 0.68 0.82 0.69 0.57 0.56 0.54 0.56 0.72 0.82 0.92 1.00 1.02 1.08 1.01 0.89 0.89 0.87 0.84 0.79 0.73 0.75 0.80 0.80 0.70 0.67 0.67 0.67 0.65 0.67 0.75 0.84 0.94 0.99 1.04 1.07 1.09 1.18 1.23 1.33 1.44 1.55 1.53 1.51
0.23 0.35 0.45 0.61 0.65 0.63 0.86 1.06 0.78 0.64 0.65 0.66 0.65 0.63 0.65 0.83 0.94 0.98 1.04 0.97 0.81 0.77 0.68 0.71 0.79 0.79 0.85 0.86 0.79 0.71 0.71 0.74 0.79 0.77 0.69 0.71 0.77 0.79 0.90 1.02 1.00 1.00 1.06 1.14 1.23 1.32 1.35 1.38 1.31

GEFSSGP_prec_meanprecacc_120.txt.gz
Total_Precipitation_Accumulation
0.67 1.00 1.67 1.93 1.82 1.32 0.85 0.56 0.45 0.47 0.42 0.28 0.15 0.13 0.28 0.50 0.76 0.96 0.97 0.78 0.55 0.46 0.37 0.43 0.55 0.47 0.43 0.44 0.49 0.55 0.58 0.60 0.63 0.68 0.70 0.47 0.33 0.30 0.28 0.28 0.29 0.28 0.24 0.26 0.33 0.39 0.38 0.32 0.34
0.73 1.48 2.14 2.35 1.77 0.97 0.75 0.60 0.57 0.49 0.29 0.18 0.09 0.10 0.21 0.20 0.18 0.50 1.03 1.10 0.59 0.51 0.49 0.54 0.68 0.60 0.51 0.50 0.59 0.67 0.73 0.76 0.82 0.81 0.68 0.46 0.39 0.39 0.37 0.38 0.38 0.33 0.26 0.26 0.28 0.33 0.34 0.31 0.34
0.89 1.66 2.09 2.14 1.17 0.81 0.79 0.72 0.62 0.39 0.20 0.15 0.11 0.08 0.14 0.23 0.30 0.57 0.99 0.79 0.53 0.53 0.59 0.74 0.82 0.72 0.65 0.62 0.69 0.81 0.90 0.88 0.90 0.84 0.61 0.49 0.47 0.48 0.47 0.51 0.44 0.34 0.30 0.27 0.28 0.31 0.30 0.28 0.28
1.14 1.79 1.89 1.46 0.99 0.68 0.65 0.68 0.47 0.30 0.16 0.09 0.08 0.10 0.15 0.25 0.38 0.53 0.66 0.65 0.53 0.49 0.50 0.64 0.78 0.72 0.68 0.72 0.79 0.81 0.77 0.79 0.87 0.79 0.62 0.50 0.54 0.54 0.54 0.48 0.41 0.39 0.37 0.34 0.33 0.32 0.30 0.31 0.28
1.48 1.98 1.76 1.24 0.89 0.72 0.50 0.45 0.33 0.29 0.20 0.11 0.07 0.14 0.22 0.34 0.45 0.58 0.70 0.69 0.60 0.55 0.48 0.56 0.67 0.65 0.64 0.72 0.82 0.84 0.76 0.79 0.83 0.81 0.73 0.55 0.54 0.56 0.59 0.50 0.43 0.41 0.42 0.40 0.39 0.36 0.32 0.28 0.27
1.70 1.89 1.77 1.32 0.88 0.76 0.55 0.36 0.26 0.24 0.17 0.14 0.14 0.20 0.29 0.38 0.50 0.64 0.68 0.71 0.69 0.64 0.58 0.55 0.63 0.61 0.61 0.67 0.75 0.79 0.78 0.86 0.85 0.74 0.68 0.64 0.55 0.54 0.54 0.49 0.49 0.47 0.46 0.45 0.44 0.38 0.34 0.33 0.31
1.75 1.78 1.51 1.02 0.87 0.89 0.64 0.35 0.25 0.23 0.18 0.17 0.17 0.25 0.34 0.45 0.46 0.51 0.55 0.64 0.70 0.70 0.68 0.62 0.62 0.63 0.67 0.75 0.76 0.79 0.86 0.97 0.94 0.76 0.69 0.70 0.58 0.51 0.48 0.48 0.49 0.49 0.50 0.53 0.47 0.39 0.34 0.37 0.38
1.17 1.42 1.45 1.21 1.02 1.05 0.62 0.34 0.19 0.13 0.12 0.10 0.11 0.22 0.33 0.42 0.40 0.53 0.61 0.66 0.70 0.67 0.64 0.59 0.59 0.63 0.68 0.78 0.82 0.83 0.83 0.92 0.92 0.81 0.79 0.79 0.63 0.53 0.52 0.49 0.51 0.53 0.55 0.60 0.55 0.46 0.39 0.39 0.40
1.07 1.30 1.53 1.46 0.96 0.79 0.46 0.39 0.17 0.10 0.09 0.09 0.09 0.11 0.20 0.24 0.30 0.44 0.57 0.59 0.63 0.61 0.62 0.59 0.57 0.61 0.67 0.77 0.79 0.89 0.91 0.95 0.88 0.81 0.85 0.76 0.56 0.53 0.55 0.49 0.58 0.66 0.76 0.76 0.68 0.59 0.49 0.43 0.37
1.18 1.33 1.28 1.00 0.61 0.46 0.47 0.44 0.19 0.15 0.15 0.13 0.12 0.15 0.26 0.35 0.41 0.52 0.57 0.61 0.62 0.64 0.65 0.63 0.66 0.64 0.64 0.69 0.93 1.10 0.98 0.89 0.78 0.80 0.78 0.75 0.72 0.70 0.52 0.52 0.66 0.71 0.77 0.78 0.70 0.66 0.53 0.37 0.27
0.87 0.95 0.76 0.60 0.41 0.34 0.36 0.31 0.22 0.23 0.23 0.18 0.19 0.23 0.29 0.42 0.47 0.50 0.56 0.62 0.65 0.64 0.66 0.61 0.59 0.54 0.55 0.69 0.87 1.06 1.11 1.07 1.04 0.90 0.89 0.85 0.76 0.65 0.51 0.48 0.53 0.58 0.64 0.60 0.64 0.61 0.42 0.34 0.32
0.74 0.62 0.56 0.51 0.35 0.34 0.33 0.25 0.25 0.26 0.23 0.18 0.21 0.25 0.29 0.38 0.45 0.50 0.54 0.55 0.54 0.56 0.59 0.55 0.53 0.51 0.49 0.50 0.61 0.76 0.83 0.82 0.84 0.85 0.79 0.80 0.81 0.74 0.63 0.58 0.62 0.64 0.61 0.66 0.70 0.66 0.53 0.44 0.36
0.80 0.62 0.44 0.38 0.36 0.35 0.31 0.27 0.23 0.22 0.19 0.19 0.24 0.31 0.36 0.40 0.44 0.46 0.46 0.48 0.49 0.50 0.52 0.55 0.58 0.55 0.61 0.60 0.57 0.56 0.62 0.67 0.72 0.80 0.72 0.67 0.70 0.73 0.74 0.69 0.73 0.69 0.67 0.69 0.69 0.56 0.53 0.51 0.41
0.66 0.53 0.45 0.40 0.40 0.38 0.35 0.29 0.23 0.23 0.20 0.20 0.26 0.34 0.39 0.42 0.42 0.42 0.40 0.38 0.38 0.47 0.57 0.62 0.58 0.61 0.60 0.56 0.59 0.62 0.62 0.66 0.69 0.73 0.66 0.60 0.60 0.62 0.74 0.72 0.77 0.68 0.70 0.77 0.70 0.63 0.62 0.60 0.50
0.46 0.50 0.53 0.45 0.48 0.44 0.40 0.41 0.25 0.24 0.23 0.25 0.29 0.34 0.40 0.42 0.42 0.43 0.42 0.39 0.37 0.43 0.57 0.68 0.66 0.69 0.65 0.60 0.63 0.66 0.66 0.63 0.65 0.69 0.62 0.57 0.61 0.62 0.74 0.78 0.77 0.73 0.76 0.79 0.82 0.81 0.75 0.65 0.55
0.55 0.65 0.80 0.60 0.55 0.47 0.45 0.49 0.31 0.33 0.29 0.28 0.27 0.30 0.34 0.36 0.39 0.40 0.40 0.39 0.37 0.40 0.51 0.63 0.65 0.70 0.73 0.72 0.72 0.69 0.65 0.66 0.72 0.75 0.70 0.66 0.64 0.67 0.86 0.92 0.80 0.85 0.94 0.97 0.98 0.94 0.85 0.75 0.68
0.70 0.78 0.77 0.66 0.51 0.44 0.44 0.43 0.34 0.32 0.29 0.26 0.24 0.23 0.24 0.26 0.32 0.34 0.35 0.35 0.36 0.40 0.47 0.52 0.58 0.78 0.81 0.77 0.83 0.83 0.80 0.86 0.89 0.92 0.89 0.84 0.80 0.88 1.05 1.12 1.03 1.01 1.14 1.11 1.00 1.00 0.99 0.89 0.86
0.56 0.48 0.48 0.48 0.37 0.35 0.40 0.32 0.32 0.29 0.25 0.23 0.21 0.20 0.19 0.21 0.25 0.27 0.26 0.26 0.28 0.34 0.39 0.46 0.55 0.67 0.79 0.94 1.02 1.10 1.11 1.11 1.23 1.30 1.29 1.12 1.07 1.13 1.28 1.37 1.33 1.29 1.39 1.37 1.24 1.30 1.28 1.16 1.19
0.39 0.32 0.33 0.34 0.26 0.27 0.30 0.25 0.23 0.22 0.22 0.20 0.18 0.16 0.15 0.14 0.15 0.14 0.14 0.17 0.20 0.25 0.31 0.37 0.54 0.70 0.86 0.98 1.13 1.38 1.54 1.64 1.63 1.63 1.70 1.62 1.43 1.52 1.63 1.59 1.80 1.86 1.83 1.83 1.76 1.85 1.84 1.57 1.41
0.32 0.28 0.29 0.29 0.22 0.19 0.18 0.17 0.15 0.14 0.16 0.17 0.16 0.15 0.13 0.10 0.08 0.06 0.07 0.09 0.12 0.16 0.22 0.30 0.44 0.67 0.92 1.15 1.33 1.52 1.84 2.00 2.00 2.06 2.01 1.96 1.84 1.86 1.79 1.86 2.06 2.10 2.19 2.28 2.11 2.20 2.25 1.92 1.63
0.26 0.23 0.23 0.25 0.24 0.17 0.12 0.13 0.12 0.13 0.13 0.12 0.11 0.11 0.10 0.08 0.07 0.06 0.05 0.06 0.07 0.09 0.14 0.21 0.34 0.57 0.88 1.19 1.45 1.64 1.88 2.14 2.24 2.15 2.10 2.13 2.21 2.25 2.14 2.09 2.21 2.22 2.28 2.44 2.47 2.41 2.45 2.33 2.02
0.29 0.19 0.17 0.17 0.22 0.20 0.14 0.19 0.16 0.16 0.16 0.14 0.13 0.13 0.13 0.11 0.10 0.09 0.06 0.06 0.07 0.10 0.13 0.17 0.32 0.48 0.72 0.99 1.32 1.57 1.84 2.15 2.22 2.20 2.17 2.21 2.33 2.41 2.37 2.31 2.37 2.37 2.31 2.39 2.47 2.46 2.63 2.75 2.45
0.22 0.14 0.13 0.15 0.17 0.16 0.13 0.18 0.19 0.17 0.20 0.20 0.20 0.21 0.18 0.15 0.15 0.12 0.10 0.10 0.12 0.15 0.18 0.24 0.38 0.53 0.74 0.98 1.30 1.63 1.82 1.99 2.19 2.20 2.11 2.05 2.11 2.12 2.11 2.21 2.36 2.37 2.33 2.33 2.49 2.60 2.77 2.71 2.60
0.16 0.12 0.09 0.08 0.11 0.12 0.08 0.16 0.26 0.24 0.23 0.20 0.22 0.22 0.17 0.14 0.15 0.17 0.21 0.22 0.22 0.24 0.30 0.38 0.50 0.72 0.87 0.97 1.12 1.29 1.50 1.78 1.92 2.02 2.06 2.07 2.06 1.93 1.85 1.94 2.04 2.13 2.18 2.16 2.19 2.33 2.47 2.61 2.73
0.09 0.13 0.18 0.17 0.19 0.16 0.11 0.21 0.33 0.27 0.22 0.22 0.22 0.20 0.19 0.21 0.25 0.33 0.43 0.40 0.37 0.40 0.49 0.56 0.63 0.73 0.79 0.78 0.87 1.00 1.16 1.38 1.52 1.61 1.80 1.87 1.91 1.85 1.79 1.74 1.82 1.90 1.94 2.04 2.20 2.16 2.18 2.33 2.50
0.05 0.09 0.21 0.26 0.26 0.23 0.26 0.40 0.44 0.35 0.28 0.24 0.21 0.19 0.21 0.29 0.39 0.54 0.65 0.70 0.64 0.62 0.64 0.62 0.63 0.60 0.62 0.66 0.73 0.80 0.87 1.01 1.13 1.21 1.37 1.49 1.49 1.46 1.44 1.48 1.57 1.74 1.83 1.92 2.03 2.05 2.02 2.07 2.13
0.04 0.05 0.09 0.17 0.18 0.22 0.34 0.51 0.51 0.35 0.29 0.27 0.26 0.23 0.29 0.42 0.57 0.73 0.86 0.93 0.87 0.78 0.72 0.68 0.68 0.65 0.58 0.60 0.69 0.75 0.80 0.81 0.85 0.89 0.88 0.97 1.05 1.08 1.13 1.16 1.29 1.49 1.63 1.69 1.77 1.89 1.90 1.93 1.92
0.04 0.06 0.10 0.22 0.34 0.37 0.39 0.52 0.60 0.49 0.38 0.36 0.38 0.44 0.55 0.73 0.80 0.91 0.98 0.97 0.96 1.00 0.93 0.77 0.71 0.71 0.66 0.73 0.75 0.72 0.71 0.69 0.67 0.71 0.77 0.78 0.86 0.97 1.06 1.07 1.13 1.24 1.33 1.45 1.61 1.73 1.80 1.81 1.74
0.09 0.13 0.20 0.32 0.42 0.56 0.69 0.82 0.69 0.57 0.56 0.54 0.56 0.72 0.82 0.92 1.00 1.02 1.08 1.01 0.89 0.89 0.87 0.84 0.79 0.73 0.75 0.80 0.80 0.70 0.67 0.67 0.67 0.65 0.67 0.76 0.85 0.95 1.00 1.05 1.09 1.12 1.20 1.25 1.36 1.49 1.60 1.59 1.57
0.23 0.35 0.45 0.62 0.65 0.63 0.86 1.06 0.78 0.64 0.65 0.66 0.65 0.63 0.65 0.83 0.94 0.98 1.04 0.97 0.81 0.77 0.68 0.71 0.79 0.79 0.85 0.86 0.79 0.71 0.71 0.74 0.79 0.77 0.70 0.71 0.77 0.79 0.90 1.03 1.02 1.03 1.08 1.16 1.25 1.34 1.37 1.41 1.35

GEFSSGP_prec_meanprecacc_126.txt.gz
Total_Precipitation_Accumulation
0.80 1.12 1.82 2.12 2.01 1.49 1.02 0.73 0.61 0.61 0.56 0.37 0.21 0.18 0.32 0.56 0.83 1.02 1.04 0.86 0.60 0.49 0.39 0.46 0.57 0.49 0.44 0.45 0.50 0.57 0.59 0.60 0.64 0.68 0.71 0.50 0.35 0.32 0.29 0.29 0.30 0.30 0.25 0.27 0.34 0.39 0.38 0.32 0.35
0.79 1.62 2.36 2.58 1.93 1.13 0.93 0.76 0.77 0.64 0.40 0.24 0.15 0.14 0.23 0.22 0.20 0.52 1.08 1.18 0.66 0.55 0.51 0.55 0.70 0.61 0.51 0.50 0.59 0.68 0.73 0.76 0.82 0.81 0.68 0.47 0.41 0.40 0.38 0.40 0.40 0.35 0.27 0.27 0.30 0.35 0.35 0.31 0.34
0.99 1.87 2.32 2.34 1.33 0.97 0.95 0.89 0.78 0.48 0.27 0.20 0.16 0.12 0.17 0.25 0.32 0.58 1.02 0.85 0.57 0.57 0.61 0.75 0.83 0.73 0.65 0.63 0.69 0.81 0.90 0.88 0.91 0.84 0.61 0.50 0.48 0.50 0.49 0.52 0.45 0.36 0.32 0.29 0.30 0.32 0.31 0.30 0.29
1.31 2.03 2.11 1.63 1.14 0.82 0.77 0.82 0.57 0.38 0.25 0.17 0.13 0.13 0.16 0.27 0.40 0.55 0.69 0.67 0.55 0.50 0.51 0.65 0.79 0.73 0.69 0.72 0.79 0.81 0.77 0.79 0.87 0.79 0.62 0.50 0.55 0.55 0.55 0.50 0.43 0.41 0.40 0.36 0.35 0.34 0.32 0.32 0.30
1.74 2.20 1.94 1.40 1.04 0.86 0.67 0.57 0.42 0.41 0.33 0.21 0.11 0.17 0.24 0.37 0.47 0.60 0.72 0.70 0.61 0.56 0.48 0.56 0.68 0.66 0.65 0.73 0.82 0.84 0.76 0.79 0.84 0.81 0.73 0.56 0.54 0.57 0.59 0.51 0.44 0.43 0.44 0.42 0.41 0.38 0.34 0.31 0.30
1.94 2.09 1.92 1.49 1.05 0.90 0.70 0.49 0.36 0.38 0.29 0.23 0.18 0.24 0.30 0.43 0.54 0.67 0.70 0.74 0.71 0.64 0.58 0.55 0.63 0.61 0.61 0.67 0.75 0.80 0.78 0.86 0.85 0.75 0.68 0.64 0.55 0.55 0.55 0.51 0.50 0.48 0.48 0.47 0.45 0.39 0.35 0.35 0.34
2.00 1.96 1.67 1.20 1.01 0.99 0.72 0.41 0.31 0.31 0.24 0.20 0.21 0.29 0.37 0.51 0.52 0.54 0.59 0.68 0.72 0.71 0.68 0.62 0.62 0.64 0.67 0.76 0.76 0.79 0.86 0.97 0.94 0.76 0.70 0.70 0.58 0.51 0.49 0.50 0.50 0.49 0.51 0.55 0.49 0.40 0.35 0.37 0.39
1.43 1.61 1.60 1.38 1.14 1.16 0.70 0.38 0.21 0.16 0.15 0.12 0.13 0.24 0.38 0.47 0.44 0.55 0.63 0.69 0.72 0.67 0.65 0.59 0.60 0.63 0.68 0.78 0.83 0.83 0.84 0.92 0.92 0.81 0.80 0.79 0.64 0.53 0.52 0.50 0.52 0.54 0.56 0.62 0.57 0.48 0.41 0.41 0.41
1.33 1.51 1.67 1.60 1.08 0.92 0.55 0.44 0.21 0.11 0.11 0.12 0.11 0.13 0.24 0.27 0.32 0.47 0.59 0.62 0.64 0.61 0.62 0.59 0.57 0.61 0.67 0.77 0.79 0.89 0.91 0.95 0.88 0.81 0.85 0.76 0.56 0.53 0.55 0.49 0.60 0.68 0.78 0.77 0.70 0.61 0.53 0.46 0.39
1.44 1.50 1.40 1.12 0.73 0.54 0.52 0.47 0.22 0.17 0.17 0.16 0.17 0.20 0.33 0.40 0.44 0.56 0.60 0.64 0.63 0.65 0.65 0.63 0.66 0.64 0.64 0.69 0.93 1.10 0.98 0.89 0.78 0.80 0.78 0.75 0.73 0.70 0.52 0.53 0.68 0.73 0.79 0.80 0.73 0.69 0.56 0.40 0.29
1.06 1.07 0.86 0.71 0.50 0.39 0.40 0.32 0.23 0.25 0.26 0.24 0.26 0.32 0.37 0.47 0.50 0.52 0.58 0.63 0.65 0.65 0.66 0.62 0.59 0.54 0.55 0.69 0.87 1.06 1.11 1.07 1.04 0.90 0.89 0.85 0.76 0.65 0.51 0.49 0.54 0.59 0.66 0.63 0.67 0.63 0.43 0.34 0.34
0.91 0.72 0.66 0.62 0.43 0.42 0.39 0.28 0.27 0.28 0.25 0.20 0.24 0.29 0.34 0.41 0.47 0.52 0.55 0.56 0.55 0.56 0.59 0.55 0.53 0.51 0.49 0.50 0.61 0.76 0.83 0.82 0.84 0.85 0.79 0.80 0.81 0.74 0.64 0.58 0.62 0.64 0.63 0.68 0.72 0.67 0.54 0.44 0.38
0.97 0.76 0.57 0.52 0.44 0.44 0.40 0.31 0.25 0.24 0.21 0.21 0.29 0.36 0.40 0.43 0.46 0.47 0.46 0.48 0.49 0.50 0.52 0.55 0.58 0.55 0.61 0.60 0.57 0.56 0.62 0.67 0.72 0.80 0.72 0.67 0.70 0.73 0.75 0.69 0.73 0.69 0.68 0.70 0.71 0.58 0.55 0.53 0.43
0.80 0.71 0.63 0.57 0.53 0.47 0.44 0.35 0.27 0.26 0.23 0.24 0.31 0.38 0.41 0.43 0.43 0.42 0.40 0.38 0.38 0.47 0.57 0.62 0.58 0.61 0.60 0.56 0.59 0.62 0.62 0.66 0.69 0.73 0.66 0.60 0.60 0.62 0.74 0.72 0.77 0.69 0.71 0.78 0.71 0.64 0.64 0.61 0.52
0.62 0.74 0.72 0.60 0.59 0.53 0.47 0.49 0.31 0.28 0.26 0.31 0.32 0.36 0.42 0.43 0.43 0.43 0.42 0.39 0.37 0.43 0.57 0.68 0.66 0.69 0.65 0.60 0.63 0.66 0.66 0.63 0.65 0.69 0.62 0.57 0.61 0.62 0.74 0.78 0.77 0.74 0.77 0.80 0.83 0.82 0.77 0.67 0.57
0.70 0.82 0.95 0.69 0.61 0.56 0.56 0.59 0.37 0.37 0.32 0.32 0.29 0.32 0.36 0.38 0.40 0.40 0.40 0.39 0.37 0.40 0.51 0.63 0.65 0.70 0.73 0.72 0.72 0.69 0.65 0.66 0.72 0.75 0.70 0.66 0.64 0.67 0.87 0.92 0.80 0.85 0.94 0.98 0.99 0.95 0.87 0.76 0.70
0.85 0.89 0.85 0.75 0.57 0.52 0.52 0.49 0.40 0.38 0.32 0.29 0.26 0.26 0.27 0.29 0.33 0.35 0.35 0.35 0.36 0.40 0.47 0.52 0.58 0.78 0.81 0.77 0.83 0.83 0.80 0.86 0.89 0.92 0.89 0.84 0.81 0.89 1.06 1.13 1.04 1.01 1.15 1.11 1.01 1.01 1.00 0.90 0.87
0.67 0.56 0.55 0.59 0.47 0.43 0.46 0.37 0.37 0.34 0.28 0.26 0.24 0.22 0.21 0.22 0.26 0.27 0.26 0.26 0.28 0.34 0.39 0.46 0.55 0.67 0.79 0.94 1.02 1.10 1.11 1.11 1.23 1.30 1.29 1.12 1.07 1.13 1.28 1.37 1.33 1.29 1.39 1.37 1.24 1.31 1.29 1.18 1.20
0.47 0.41 0.45 0.43 0.35 0.34 0.35 0.30 0.30 0.29 0.26 0.23 0.20 0.17 0.17 0.15 0.15 0.14 0.14 0.17 0.20 0.25 0.31 0.37 0.54 0.70 0.86 0.98 1.13 1.38 1.54 1.64 1.63 1.63 1.70 1.62 1.43 1.52 1.63 1.59 1.80 1.87 1.84 1.83 1.76 1.86 1.86 1.59 1.42
0.42 0.38 0.38 0.36 0.27 0.24 0.25 0.22 0.20 0.23 0.22 0.20 0.18 0.16 0.13 0.10 0.08 0.06 0.07 0.09 0.12 0.16 0.22 0.30 0.44 0.67 0.92 1.15 1.33 1.52 1.84 2.00 2.00 2.06 2.01 1.96 1.84 1.86 1.79 1.86 2.06 2.11 2.20 2.28 2.12 2.21 2.26 1.94 1.65
0.36 0.31 0.32 0.32 0.31 0.22 0.18 0.17 0.17 0.18 0.19 0.16 0.12 0.12 0.11 0.08 0.07 0.06 0.05 0.06 0.07 0.09 0.14 0.21 0.34 0.57 0.88 1.19 1.45 1.64 1.88 2.14 2.24 2.15 2.10 2.13 2.21 2.25 2.14 2.09 2.22 2.23 2.29 2.45 2.48 2.42 2.46 2.34 2.04
0.38 0.25 0.23 0.21 0.25 0.23 0.16 0.22 0.19 0.18 0.19 0.17 0.15 0.14 0.13 0.11 0.10 0.09 0.06 0.06 0.07 0.10 0.13 0.17 0.32 0.48 0.72 0.99 1.32 1.57 1.84 2.15 2.22 2.20 2.17 2.21 2.33 2.41 2.37 2.31 2.38 2.37 2.32 2.40 2.48 2.46 2.64 2.77 2.48
0.29 0.18 0.16 0.16 0.18 0.17 0.14 0.20 0.20 0.17 0.22 0.22 0.21 0.21 0.18 0.15 0.15 0.13 0.11 0.10 0.12 0.15 0.18 0.24 0.38 0.53 0.74 0.98 1.30 1.63 1.82 1.99 2.19 2.20 2.11 2.05 2.11 2.13 2.11 2.22 2.37 2.37 2.34 2.34 2.50 2.62 2.78 2.74 2.64
0.18 0.14 0.11 0.10 0.12 0.14 0.09 0.19 0.28 0.24 0.23 0.21 0.22 0.23 0.17 0.14 0.15 0.17 0.21 0.22 0.22 0.24 0.30 0.38 0.50 0.72 0.87 0.97 1.12 1.29 1.50 1.78 1.92 2.02 2.06 2.07 2.06 1.94 1.86 1.95 2.05 2.13 2.18 2.17 2.20 2.35 2.49 2.64 2.76
0.10 0.15 0.21 0.19 0.21 0.17 0.12 0.23 0.34 0.28 0.23 0.22 0.22 0.20 0.19 0.21 0.26 0.33 0.43 0.40 0.37 0.40 0.49 0.56 0.63 0.73 0.79 0.78 0.87 1.00 1.16 1.38 1.52 1.61 1.80 1.87 1.91 1.85 1.80 1.76 1.83 1.91 1.95 2.06 2.21 2.18 2.20 2.36 2.53
0.07 0.11 0.24 0.29 0.29 0.25 0.28 0.41 0.44 0.36 0.28 0.24 0.21 0.19 0.22 0.29 0.39 0.54 0.66 0.70 0.64 0.62 0.64 0.62 0.63 0.60 0.62 0.66 0.73 0.80 0.87 1.01 1.13 1.21 1.37 1.49 1.49 1.46 1.45 1.49 1.59 1.75 1.85 1.95 2.06 2.08 2.05 2.10 2.17
0.06 0.07 0.11 0.20 0.20 0.24 0.35 0.51 0.51 0.36 0.29 0.27 0.26 0.23 0.29 0.42 0.57 0.73 0.86 0.93 0.87 0.79 0.72 0.68 0.68 0.65 0.58 0.60 0.69 0.75 0.80 0.81 0.85 0.89 0.88 0.97 1.05 1.08 1.13 1.18 1.31 1.52 1.65 1.71 1.81 1.91 1.93 1.97 1.96
0.05 0.07 0.11 0.24 0.36 0.39 0.40 0.53 0.60 0.49 0.38 0.36 0.38 0.44 0.55 0.73 0.80 0.91 0.99 0.97 0.96 1.00 0.94 0.77 0.71 0.71 0.66 0.73 0.75 0.72 0.71 0.69 0.67 0.71 0.77 0.78 0.86 0.97 1.06 1.08 1.14 1.25 1.35 1.46 1.64 1.76 1.83 1.84 1.79
0.10 0.13 0.21 0.33 0.43 0.57 0.69 0.82 0.69 0.57 0.56 0.54 0.56 0.72 0.82 0.92 1.00 1.02 1.08 1.01 0.89 0.89 0.87 0.84 0.79 0.73 0.75 0.80 0.80 0.70 0.67 0.67 0.67 0.65 0.67 0.76 0.85 0.95 1.00 1.05 1.10 1.12 1.21 1.27 1.38 1.52 1.63 1.63 1.61
0.23 0.35 0.45 0.62 0.65 0.63 0.86 1.06 0.78 0.64 0.65 0.66 0.65 0.63 0.65 0.83 0.94 0.98 1.04 0.97 0.81 0.77 0.68 0.71 0.79 0.79 0.85 0.86 0.79 0.71 0.71 0.74 0.79 0.77 0.70 0.71 0.77 0.79 0.90 1.04 1.03 1.04 1.08 1.16 1.26 1.35 1.39 1.45 1.39

GEFSSGP_prec_meanprecacc_132.txt.gz
Total_Precipitation_Accumulation
1.02 1.26 1.94 2.29 2.15 1.56 1.07 0.78 0.64 0.66 0.64 0.46 0.26 0.23 0.39 0.61 0.87 1.05 1.05 0.88 0.63 0.51 0.42 0.51 0.61 0.53 0.48 0.48 0.52 0.58 0.60 0.62 0.65 0.69 0.73 0.53 0.40 0.36 0.33 0.33 0.32 0.31 0.27 0.28 0.36 0.42 0.40 0.33 0.35
0.89 1.71 2.51 2.77 2.03 1.18 0.96 0.79 0.82 0.70 0.48 0.33 0.23 0.20 0.27 0.25 0.21 0.53 1.09 1.22 0.71 0.60 0.55 0.61 0.74 0.64 0.54 0.52 0.61 0.69 0.75 0.78 0.84 0.82 0.70 0.49 0.43 0.43 0.42 0.43 0.43 0.37 0.29 0.29 0.32 0.38 0.38 0.34 0.37
1.07 2.02 2.53 2.50 1.40 1.00 0.97 0.92 0.82 0.53 0.34 0.28 0.26 0.19 0.20 0.27 0.33 0.60 1.04 0.87 0.59 0.60 0.65 0.81 0.88 0.76 0.67 0.64 0.70 0.82 0.91 0.90 0.92 0.86 0.64 0.52 0.50 0.52 0.52 0.55 0.48 0.39 0.35 0.32 0.32 0.35 0.33 0.32 0.33
1.41 2.17 2.25 1.73 1.21 0.85 0.80 0.85 0.60 0.44 0.33 0.24 0.20 0.17 0.18 0.29 0.42 0.58 0.71 0.69 0.57 0.53 0.55 0.70 0.84 0.76 0.72 0.74 0.80 0.82 0.78 0.79 0.88 0.80 0.63 0.52 0.57 0.58 0.58 0.53 0.45 0.43 0.43 0.39 0.38 0.37 0.35 0.36 0.33
1.88 2.34 2.02 1.44 1.08 0.89 0.70 0.60 0.45 0.47 0.39 0.29 0.19 0.21 0.26 0.40 0.50 0.63 0.74 0.72 0.64 0.59 0.51 0.60 0.72 0.69 0.68 0.75 0.83 0.85 0.77 0.80 0.84 0.81 0.74 0.57 0.56 0.60 0.62 0.54 0.46 0.44 0.45 0.44 0.43 0.40 0.37 0.34 0.34
2.13 2.21 1.96 1.52 1.09 0.92 0.73 0.52 0.39 0.42 0.35 0.32 0.26 0.28 0.34 0.47 0.58 0.70 0.72 0.76 0.73 0.66 0.60 0.56 0.65 0.64 0.63 0.68 0.76 0.81 0.79 0.87 0.86 0.75 0.69 0.65 0.57 0.58 0.58 0.54 0.54 0.51 0.49 0.48 0.46 0.40 0.37 0.37 0.37
2.16 2.05 1.72 1.23 1.04 1.02 0.74 0.42 0.34 0.36 0.30 0.28 0.28 0.33 0.41 0.55 0.58 0.58 0.62 0.70 0.75 0.73 0.70 0.64 0.64 0.64 0.68 0.77 0.77 0.80 0.87 0.98 0.95 0.77 0.70 0.71 0.60 0.53 0.51 0.52 0.54 0.53 0.54 0.57 0.51 0.42 0.36 0.39 0.41
1.61 1.72 1.65 1.41 1.18 1.19 0.74 0.41 0.24 0.20 0.19 0.16 0.18 0.28 0.41 0.52 0.50 0.61 0.67 0.72 0.75 0.70 0.67 0.60 0.60 0.64 0.69 0.79 0.83 0.84 0.84 0.93 0.92 0.81 0.80 0.79 0.64 0.54 0.54 0.53 0.56 0.58 0.60 0.65 0.60 0.50 0.44 0.43 0.44
1.52 1.63 1.73 1.65 1.11 0.96 0.59 0.49 0.24 0.15 0.14 0.14 0.14 0.16 0.27 0.31 0.36 0.50 0.62 0.64 0.66 0.63 0.63 0.60 0.58 0.61 0.67 0.77 0.79 0.89 0.92 0.95 0.88 0.82 0.85 0.77 0.56 0.53 0.56 0.50 0.62 0.71 0.82 0.82 0.75 0.65 0.56 0.49 0.42
1.60 1.62 1.48 1.16 0.77 0.59 0.57 0.52 0.25 0.20 0.20 0.20 0.19 0.22 0.36 0.44 0.48 0.59 0.62 0.65 0.64 0.65 0.66 0.63 0.66 0.65 0.64 0.69 0.93 1.10 0.98 0.89 0.78 0.80 0.78 0.76 0.73 0.70 0.52 0.53 0.68 0.74 0.82 0.83 0.78 0.74 0.59 0.41 0.30
1.16 1.18 0.96 0.78 0.57 0.46 0.46 0.36 0.26 0.28 0.29 0.27 0.29 0.34 0.41 0.50 0.54 0.56 0.62 0.65 0.67 0.66 0.67 0.62 0.60 0.54 0.55 0.69 0.87 1.06 1.11 1.07 1.04 0.90 0.89 0.85 0.76 0.65 0.51 0.49 0.54 0.59 0.68 0.65 0.69 0.67 0.46 0.36 0.35
0.99 0.82 0.75 0.71 0.50 0.50 0.45 0.32 0.30 0.31 0.27 0.22 0.25 0.30 0.36 0.43 0.49 0.56 0.61 0.58 0.56 0.57 0.60 0.56 0.54 0.51 0.49 0.50 0.61 0.76 0.83 0.82 0.84 0.85 0.79 0.80 0.81 0.74 0.64 0.58 0.62 0.64 0.63 0.68 0.73 0.69 0.55 0.45 0.38
1.04 0.84 0.67 0.62 0.51 0.52 0.46 0.35 0.28 0.26 0.23 0.23 0.30 0.37 0.41 0.44 0.46 0.48 0.47 0.49 0.50 0.51 0.53 0.55 0.58 0.55 0.61 0.60 0.57 0.56 0.62 0.67 0.72 0.80 0.72 0.67 0.70 0.73 0.75 0.69 0.73 0.69 0.68 0.70 0.71 0.59 0.56 0.54 0.44
0.87 0.79 0.74 0.70 0.62 0.55 0.50 0.38 0.30 0.29 0.26 0.27 0.32 0.39 0.42 0.44 0.44 0.42 0.41 0.38 0.38 0.47 0.57 0.62 0.58 0.61 0.60 0.56 0.59 0.62 0.62 0.66 0.69 0.73 0.66 0.60 0.60 0.62 0.74 0.72 0.77 0.69 0.71 0.79 0.71 0.64 0.65 0.64 0.54
0.68 0.82 0.82 0.72 0.69 0.60 0.54 0.55 0.35 0.31 0.29 0.33 0.33 0.37 0.42 0.44 0.43 0.44 0.42 0.39 0.37 0.43 0.57 0.68 0.66 0.69 0.65 0.60 0.63 0.66 0.66 0.63 0.65 0.69 0.62 0.58 0.61 0.62 0.74 0.78 0.77 0.74 0.77 0.81 0.83 0.82 0.77 0.68 0.59
0.77 0.88 1.02 0.76 0.68 0.62 0.63 0.63 0.41 0.40 0.35 0.34 0.30 0.33 0.37 0.39 0.40 0.40 0.40 0.39 0.37 0.40 0.51 0.63 0.65 0.70 0.73 0.72 0.72 0.69 0.65 0.66 0.72 0.75 0.70 0.66 0.64 0.67 0.87 0.92 0.80 0.85 0.95 0.99 1.00 0.96 0.87 0.77 0.72
0.91 0.93 0.88 0.78 0.61 0.57 0.57 0.52 0.43 0.41 0.36 0.32 0.27 0.27 0.28 0.30 0.33 0.35 0.35 0.36 0.37 0.41 0.47 0.52 0.58 0.78 0.81 0.77 0.83 0.83 0.80 0.86 0.89 0.92 0.89 0.84 0.81 0.89 1.06 1.13 1.04 1.01 1.15 1.12 1.01 1.01 1.01 0.91 0.88
0.70 0.58 0.57 0.60 0.49 0.46 0.49 0.38 0.39 0.37 0.31 0.31 0.27 0.23 0.22 0.23 0.27 0.27 0.26 0.27 0.28 0.34 0.39 0.46 0.55 0.67 0.79 0.94 1.02 1.10 1.11 1.11 1.23 1.30 1.29 1.12 1.07 1.13 1.28 1.37 1.33 1.29 1.39 1.38 1.25 1.31 1.30 1.18 1.21
0.50 0.43 0.47 0.45 0.36 0.36 0.37 0.31 0.32 0.31 0.28 0.25 0.22 0.19 0.17 0.15 0.16 0.14 0.14 0.17 0.20 0.25 0.31 0.37 0.54 0.70 0.86 0.98 1.13 1.38 1.54 1.64 1.63 1.63 1.70 1.62 1.43 1.52 1.63 1.59 1.80 1.87 1.84 1.83 1.76 1.86 1.87 1.59 1.43
0.45 0.41 0.41 0.38 0.28 0.26 0.25 0.22 0.21 0.24 0.24 0.21 0.18 0.17 0.14 0.10 0.08 0.06 0.07 0.10 0.12 0.16 0.22 0.30 0.44 0.67 0.92 1.15 1.33 1.52 1.84 2.00 2.00 2.06 2.01 1.96 1.84 1.86 1.79 1.86 2.06 2.11 2.20 2.28 2.12 2.22 2.27 1.95 1.65
0.39 0.33 0.33 0.34 0.33 0.23 0.19 0.18 0.17 0.19 0.20 0.17 0.13 0.13 0.11 0.08 0.07 0.06 0.05 0.06 0.07 0.09 0.14 0.21 0.34 0.57 0.88 1.19 1.45 1.64 1.88 2.14 2.24 2.15 2.10 2.13 2.21 2.26 2.14 2.09 2.22 2.23 2.29 2.45 2.48 2.42 2.46 2.35 2.06
0.41 0.27 0.25 0.22 0.26 0.24 0.17 0.22 0.20 0.19 0.20 0.18 0.15 0.14 0.13 0.11 0.10 0.09 0.07 0.06 0.07 0.10 0.13 0.17 0.32 0.48 0.72 0.99 1.32 1.57 1.84 2.15 2.22 2.20 2.17 2.21 2.33 2.42 2.37 2.31 2.38 2.37 2.32 2.41 2.48 2.47 2.64 2.78 2.49
0.32 0.20 0.17 0.17 0.19 0.18 0.14 0.20 0.20 0.18 0.23 0.22 0.21 0.21 0.19 0.15 0.15 0.13 0.11 0.11 0.12 0.15 0.18 0.24 0.38 0.53 0.74 0.98 1.30 1.63 1.82 1.99 2.19 2.20 2.11 2.05 2.11 2.13 2.11 2.22 2.37 2.37 2.34 2.35 2.51 2.63 2.79 2.74 2.64
0.20 0.16 0.13 0.11 0.12 0.14 0.09 0.19 0.28 0.24 0.23 0.21 0.22 0.23 0.17 0.14 0.15 0.17 0.21 0.22 0.22 0.24 0.30 0.38 0.50 0.72 0.87 0.97 1.12 1.29 1.50 1.78 1.92 2.02 2.06 2.07 2.06 1.94 1.86 1.95 2.05 2.13 2.18 2.17 2.21 2.36 2.50 2.65 2.77
0.12 0.16 0.22 0.20 0.21 0.17 0.12 0.23 0.34 0.28 0.23 0.22 0.22 0.20 0.19 0.21 0.26 0.33 0.43 0.40 0.37 0.40 0.49 0.56 0.63 0.73 0.79 0.78 0.87 1.00 1.16 1.38 1.52 1.61 1.80 1.87 1.91 1.85 1.80 1.76 1.84 1.91 1.95 2.06 2.21 2.19 2.21 2.37 2.55
0.08 0.11 0.24 0.30 0.29 0.25 0.28 0.41 0.44 0.36 0.28 0.24 0.21 0.19 0.22 0.29 0.39 0.54 0.66 0.70 0.64 0.62 0.64 0.62 0.63 0.60 0.62 0.66 0.73 0.80 0.87 1.01 1.13 1.21 1.37 1.49 1.49 1.47 1.45 1.50 1.60 1.75 1.85 1.95 2.06 2.09 2.05 2.12 2.18
0.06 0.07 0.11 0.20 0.20 0.24 0.35 0.51 0.51 0.36 0.29 0.27 0.26 0.23 0.29 0.42 0.57 0.73 0.86 0.93 0.87 0.79 0.72 0.68 0.68 0.65 0.58 0.60 0.69 0.75 0.80 0.81 0.85 0.89 0.88 0.97 1.05 1.08 1.13 1.18 1.32 1.52 1.65 1.71 1.81 1.93 1.94 1.98 1.97
0.06 0.08 0.12 0.24 0.36 0.39 0.40 0.53 0.60 0.50 0.38 0.36 0.38 0.44 0.55 0.73 0.80 0.91 0.99 0.97 0.96 1.00 0.94 0.77 0.71 0.71 0.66 0.73 0.75 0.72 0.71 0.69 0.67 0.71 0.77 0.78 0.86 0.97 1.06 1.08 1.15 1.26 1.36 1.47 1.64 1.77 1.84 1.86 1.81
0.10 0.14 0.21 0.34 0.43 0.57 0.69 0.82 0.70 0.57 0.56 0.54 0.56 0.72 0.82 0.93 1.00 1.02 1.08 1.01 0.89 0.89 0.87 0.85 0.79 0.74 0.75 0.80 0.80 0.70 0.67 0.67 0.67 0.65 0.67 0.76 0.85 0.95 1.00 1.05 1.10 1.13 1.23 1.28 1.39 1.53 1.64 1.65 1.64
0.23 0.36 0.46 0.63 0.65 0.63 0.87 1.06 0.78 0.64 0.65 0.66 0.65 0.63 0.65 0.83 0.95 0.98 1.04 0.97 0.81 0.77 0.68 0.71 0.79 0.79 0.85 0.86 0.79 0.71 0.71 0.74 0.79 0.77 0.70 0.71 0.77 0.79 0.90 1.04 1.03 1.04 1.09 1.17 1.27 1.37 1.41 1.47 1.42

GEFSSGP_prec_meanprecacc_138.txt.gz
Total_Precipitation_Accumulation
1.13 1.34 2.00 2.38 2.30 1.68 1.14 0.81 0.67 0.69 0.68 0.52 0.31 0.28 0.44 0.68 0.93 1.10 1.07 0.89 0.63 0.52 0.44 0.56 0.69 0.60 0.55 0.55 0.59 0.66 0.68 0.69 0.72 0.76 0.80 0.59 0.47 0.45 0.40 0.39 0.39 0.36 0.31 0.34 0.41 0.46 0.44 0.36 0.38
0.97 1.77 2.57 2.86 2.13 1.24 1.00 0.82 0.85 0.74 0.53 0.38 0.27 0.23 0.31 0.30 0.23 0.54 1.11 1.23 0.73 0.61 0.57 0.65 0.80 0.70 0.59 0.58 0.67 0.74 0.81 0.83 0.89 0.88 0.76 0.56 0.50 0.50 0.50 0.51 0.51 0.43 0.33 0.34 0.35 0.41 0.41 0.37 0.40
1.15 2.11 2.64 2.60 1.47 1.04 1.01 0.95 0.85 0.56 0.37 0.33 0.30 0.22 0.25 0.32 0.36 0.63 1.06 0.89 0.62 0.62 0.67 0.86 0.94 0.81 0.72 0.69 0.74 0.86 0.95 0.93 0.96 0.91 0.67 0.56 0.54 0.57 0.58 0.60 0.55 0.46 0.40 0.36 0.36 0.38 0.36 0.36 0.37
1.46 2.25 2.34 1.79 1.25 0.87 0.82 0.87 0.62 0.47 0.36 0.28 0.24 0.21 0.22 0.33 0.45 0.61 0.72 0.70 0.58 0.55 0.57 0.74 0.89 0.81 0.75 0.78 0.84 0.85 0.80 0.82 0.90 0.83 0.66 0.54 0.60 0.61 0.62 0.57 0.50 0.49 0.48 0.43 0.42 0.40 0.38 0.39 0.36
1.94 2.41 2.08 1.49 1.12 0.91 0.72 0.61 0.47 0.50 0.41 0.32 0.23 0.25 0.30 0.44 0.54 0.67 0.76 0.73 0.65 0.61 0.55 0.63 0.77 0.73 0.71 0.77 0.85 0.86 0.78 0.81 0.85 0.83 0.76 0.58 0.58 0.62 0.65 0.57 0.50 0.48 0.49 0.47 0.46 0.43 0.40 0.38 0.38
2.21 2.27 2.02 1.57 1.13 0.94 0.74 0.53 0.40 0.43 0.37 0.34 0.29 0.31 0.38 0.52 0.64 0.75 0.75 0.77 0.77 0.69 0.64 0.59 0.69 0.68 0.66 0.71 0.78 0.82 0.80 0.88 0.87 0.76 0.70 0.66 0.58 0.59 0.60 0.56 0.56 0.53 0.53 0.51 0.49 0.43 0.39 0.40 0.40
2.25 2.13 1.79 1.28 1.08 1.05 0.77 0.43 0.35 0.39 0.33 0.31 0.30 0.37 0.45 0.60 0.64 0.63 0.64 0.72 0.78 0.77 0.74 0.67 0.66 0.66 0.71 0.80 0.80 0.82 0.88 0.98 0.95 0.77 0.70 0.71 0.60 0.53 0.52 0.53 0.55 0.54 0.57 0.60 0.54 0.44 0.38 0.42 0.44
1.69 1.79 1.72 1.47 1.22 1.24 0.77 0.43 0.25 0.22 0.23 0.18 0.20 0.31 0.44 0.56 0.56 0.67 0.70 0.74 0.78 0.73 0.69 0.62 0.61 0.64 0.70 0.80 0.84 0.85 0.85 0.94 0.93 0.82 0.81 0.80 0.65 0.54 0.54 0.53 0.57 0.60 0.62 0.68 0.64 0.54 0.47 0.46 0.48
1.59 1.71 1.79 1.69 1.16 1.01 0.63 0.53 0.27 0.16 0.16 0.16 0.15 0.18 0.29 0.33 0.38 0.52 0.64 0.65 0.67 0.64 0.64 0.61 0.58 0.62 0.68 0.77 0.79 0.89 0.92 0.96 0.88 0.82 0.86 0.77 0.57 0.53 0.56 0.50 0.62 0.72 0.85 0.86 0.78 0.68 0.60 0.53 0.46
1.70 1.70 1.54 1.20 0.80 0.64 0.62 0.57 0.29 0.23 0.23 0.23 0.21 0.23 0.38 0.46 0.49 0.61 0.64 0.66 0.65 0.66 0.66 0.63 0.67 0.65 0.65 0.69 0.93 1.10 0.98 0.89 0.78 0.81 0.78 0.76 0.73 0.70 0.52 0.53 0.68 0.75 0.84 0.86 0.80 0.76 0.63 0.46 0.34
1.25 1.25 1.02 0.84 0.60 0.51 0.52 0.42 0.28 0.31 0.33 0.30 0.32 0.37 0.43 0.53 0.56 0.59 0.66 0.69 0.68 0.66 0.67 0.62 0.60 0.55 0.55 0.70 0.87 1.06 1.11 1.07 1.04 0.90 0.89 0.85 0.76 0.65 0.51 0.49 0.54 0.59 0.68 0.66 0.72 0.70 0.49 0.39 0.38
1.04 0.86 0.80 0.74 0.53 0.53 0.51 0.38 0.34 0.34 0.30 0.24 0.26 0.31 0.37 0.44 0.51 0.58 0.64 0.61 0.57 0.58 0.61 0.57 0.54 0.51 0.49 0.50 0.61 0.76 0.83 0.82 0.84 0.85 0.79 0.80 0.81 0.74 0.64 0.58 0.62 0.65 0.63 0.69 0.74 0.71 0.57 0.48 0.41
1.08 0.88 0.70 0.65 0.54 0.56 0.51 0.40 0.32 0.29 0.25 0.25 0.32 0.38 0.42 0.46 0.48 0.49 0.48 0.50 0.51 0.52 0.53 0.55 0.58 0.56 0.61 0.60 0.57 0.56 0.62 0.67 0.72 0.80 0.72 0.67 0.70 0.73 0.75 0.69 0.73 0.69 0.68 0.71 0.72 0.59 0.57 0.56 0.47
0.90 0.82 0.77 0.73 0.66 0.58 0.55 0.41 0.32 0.31 0.28 0.28 0.34 0.40 0.43 0.45 0.45 0.43 0.41 0.38 0.38 0.48 0.58 0.62 0.59 0.62 0.60 0.56 0.59 0.62 0.62 0.66 0.69 0.73 0.66 0.60 0.60 0.62 0.74 0.72 0.77 0.69 0.71 0.79 0.71 0.64 0.66 0.65 0.56
0.69 0.84 0.84 0.74 0.72 0.63 0.57 0.58 0.36 0.32 0.30 0.35 0.35 0.38 0.43 0.45 0.44 0.44 0.43 0.39 0.37 0.44 0.57 0.69 0.66 0.69 0.65 0.60 0.63 0.66 0.66 0.63 0.65 0.69 0.62 0.58 0.61 0.62 0.74 0.78 0.77 0.74 0.78 0.81 0.83 0.83 0.78 0.69 0.60
0.78 0.90 1.04 0.78 0.71 0.65 0.67 0.67 0.42 0.41 0.36 0.36 0.31 0.33 0.37 0.40 0.41 0.41 0.40 0.39 0.37 0.40 0.51 0.63 0.65 0.70 0.73 0.72 0.72 0.69 0.65 0.66 0.72 0.75 0.70 0.66 0.64 0.67 0.87 0.92 0.81 0.85 0.96 0.99 1.01 0.97 0.88 0.78 0.74
0.93 0.95 0.90 0.80 0.63 0.59 0.61 0.55 0.44 0.41 0.37 0.34 0.29 0.28 0.29 0.30 0.33 0.35 0.35 0.36 0.37 0.41 0.47 0.52 0.58 0.78 0.81 0.77 0.83 0.83 0.80 0.86 0.89 0.92 0.89 0.84 0.81 0.89 1.06 1.13 1.04 1.01 1.16 1.12 1.02 1.02 1.02 0.92 0.91
0.72 0.60 0.58 0.61 0.51 0.48 0.52 0.40 0.40 0.38 0.32 0.32 0.29 0.25 0.23 0.23 0.27 0.27 0.26 0.27 0.28 0.34 0.39 0.46 0.55 0.67 0.79 0.94 1.02 1.10 1.11 1.11 1.23 1.30 1.29 1.12 1.07 1.13 1.28 1.37 1.34 1.29 1.40 1.38 1.26 1.32 1.31 1.20 1.24
0.51 0.44 0.48 0.46 0.37 0.37 0.39 0.32 0.33 0.32 0.29 0.26 0.22 0.19 0.18 0.16 0.16 0.14 0.14 0.17 0.20 0.25 0.31 0.37 0.54 0.70 0.86 0.98 1.13 1.38 1.54 1.64 1.63 1.63 1.70 1.62 1.43 1.52 1.63 1.60 1.81 1.87 1.84 1.84 1.77 1.88 1.88 1.61 1.45
0.46 0.42 0.42 0.39 0.29 0.27 0.27 0.23 0.22 0.25 0.24 0.21 0.19 0.17 0.14 0.11 0.08 0.06 0.07 0.10 0.12 0.16 0.22 0.30 0.44 0.67 0.92 1.15 1.33 1.52 1.84 2.00 2.00 2.06 2.01 1.96 1.85 1.86 1.79 1.87 2.07 2.11 2.21 2.30 2.13 2.24 2.29 1.97 1.67
0.40 0.34 0.34 0.35 0.34 0.24 0.20 0.19 0.18 0.19 0.20 0.18 0.14 0.13 0.11 0.08 0.07 0.06 0.05 0.06 0.07 0.09 0.14 0.21 0.34 0.57 0.88 1.19 1.45 1.64 1.88 2.14 2.24 2.15 2.10 2.13 2.21 2.26 2.14 2.10 2.22 2.23 2.30 2.47 2.50 2.44 2.50 2.39 2.09
0.44 0.28 0.25 0.23 0.27 0.26 0.18 0.24 0.21 0.19 0.20 0.19 0.16 0.15 0.13 0.11 0.10 0.09 0.07 0.06 0.07 0.10 0.13 0.17 0.32 0.48 0.72 0.99 1.32 1.57 1.84 2.15 2.22 2.20 2.17 2.21 2.33 2.42 2.37 2.32 2.38 2.38 2.32 2.43 2.51 2.49 2.67 2.81 2.52
0.34 0.21 0.18 0.19 0.20 0.19 0.15 0.21 0.21 0.18 0.23 0.23 0.22 0.22 0.19 0.15 0.15 0.13 0.11 0.11 0.12 0.15 0.18 0.25 0.38 0.54 0.74 0.98 1.30 1.63 1.82 1.99 2.19 2.20 2.11 2.05 2.11 2.13 2.12 2.22 2.38 2.38 2.35 2.36 2.53 2.64 2.81 2.76 2.67
0.22 0.18 0.14 0.12 0.14 0.15 0.09 0.20 0.28 0.25 0.24 0.21 0.23 0.23 0.17 0.14 0.15 0.17 0.21 0.22 0.22 0.24 0.30 0.38 0.51 0.72 0.87 0.97 1.12 1.29 1.50 1.78 1.92 2.02 2.06 2.07 2.06 1.94 1.87 1.96 2.06 2.15 2.20 2.18 2.23 2.38 2.52 2.67 2.80
0.14 0.19 0.24 0.23 0.24 0.19 0.12 0.23 0.34 0.28 0.23 0.22 0.22 0.20 0.19 0.21 0.26 0.33 0.43 0.40 0.37 0.40 0.49 0.56 0.63 0.74 0.79 0.78 0.87 1.00 1.16 1.38 1.52 1.61 1.80 1.87 1.91 1.86 1.80 1.77 1.85 1.92 1.96 2.07 2.23 2.21 2.22 2.39 2.58
0.09 0.13 0.26 0.31 0.31 0.26 0.28 0.41 0.44 0.36 0.28 0.24 0.21 0.19 0.22 0.29 0.39 0.54 0.66 0.70 0.64 0.62 0.64 0.62 0.63 0.60 0.62 0.66 0.73 0.80 0.87 1.01 1.13 1.21 1.37 1.49 1.49 1.47 1.45 1.50 1.61 1.76 1.86 1.95 2.08 2.11 2.07 2.15 2.21
0.07 0.07 0.11 0.20 0.21 0.24 0.35 0.52 0.51 0.36 0.29 0.27 0.26 0.23 0.29 0.42 0.57 0.73 0.86 0.93 0.88 0.79 0.72 0.68 0.68 0.65 0.58 0.61 0.69 0.75 0.80 0.82 0.85 0.89 0.88 0.97 1.05 1.08 1.14 1.19 1.32 1.52 1.66 1.73 1.82 1.95 1.95 2.00 2.00
0.06 0.08 0.12 0.24 0.36 0.39 0.41 0.53 0.60 0.50 0.38 0.36 0.38 0.44 0.55 0.73 0.80 0.91 0.99 0.98 0.96 1.00 0.94 0.77 0.71 0.71 0.66 0.73 0.75 0.72 0.71 0.69 0.67 0.71 0.77 0.78 0.87 0.97 1.07 1.08 1.16 1.27 1.37 1.48 1.66 1.79 1.86 1.88 1.84
0.11 0.14 0.22 0.34 0.44 0.59 0.71 0.83 0.70 0.57 0.56 0.54 0.56 0.72 0.82 0.93 1.00 1.02 1.08 1.02 0.89 0.89 0.87 0.85 0.79 0.74 0.75 0.80 0.80 0.70 0.67 0.67 0.67 0.65 0.67 0.76 0.85 0.95 1.00 1.05 1.10 1.14 1.24 1.29 1.40 1.53 1.67 1.69 1.69
0.24 0.36 0.46 0.63 0.66 0.63 0.87 1.07 0.79 0.64 0.65 0.66 0.65 0.63 0.65 0.83 0.95 0.98 1.05 0.97 0.81 0.77 0.68 0.72 0.79 0.80 0.85 0.86 0.80 0.71 0.71 0.74 0.79 0.77 0.70 0.71 0.77 0.79 0.90 1.04 1.03 1.04 1.10 1.18 1.28 1.38 1.42 1.51 1.47

GEFSSGP_prec_meanprecacc_144.txt.gz
Total_Precipitation_Accumulation
1.17 1.40 2.17 2.65 2.57 1.97 1.37 0.92 0.73 0.74 0.70 0.53 0.32 0.29 0.47 0.73 1.02 1.23 1.18 0.97 0.66 0.54 0.45 0.58 0.73 0.64 0.59 0.59 0.62 0.71 0.74 0.75 0.77 0.81 0.86 0.64 0.51 0.49 0.44 0.44 0.43 0.39 0.34 0.37 0.46 0.51 0.47 0.39 0.40
1.05 1.83 2.69 3.07 2.38 1.51 1.21 0.92 0.91 0.77 0.55 0.39 0.27 0.24 0.35 0.36 0.27 0.59 1.20 1.31 0.74 0.63 0.58 0.67 0.83 0.74 0.64 0.62 0.72 0.79 0.85 0.87 0.93 0.91 0.80 0.61 0.56 0.55 0.54 0.56 0.57 0.49 0.37 0.37 0.39 0.45 0.45 0.41 0.44
1.21 2.18 2.77 2.79 1.67 1.24 1.17 1.04 0.90 0.58 0.38 0.33 0.31 0.24 0.30 0.39 0.39 0.67 1.11 0.92 0.64 0.64 0.69 0.87 0.98 0.84 0.75 0.72 0.78 0.89 0.97 0.95 0.98 0.92 0.69 0.59 0.57 0.59 0.60 0.63 0.60 0.53 0.47 0.42 0.40 0.41 0.39 0.39 0.40
1.56 2.38 2.46 1.94 1.40 0.99 0.90 0.93 0.66 0.50 0.38 0.28 0.25 0.26 0.30 0.40 0.49 0.63 0.74 0.71 0.60 0.59 0.60 0.76 0.91 0.83 0.78 0.81 0.87 0.87 0.82 0.83 0.91 0.84 0.67 0.56 0.61 0.61 0.62 0.59 0.53 0.53 0.53 0.50 0.47 0.43 0.41 0.42 0.38
2.08 2.57 2.24 1.65 1.24 1.00 0.76 0.65 0.50 0.54 0.44 0.34 0.26 0.33 0.39 0.51 0.60 0.70 0.77 0.74 0.69 0.65 0.58 0.65 0.80 0.76 0.74 0.80 0.88 0.89 0.80 0.83 0.86 0.83 0.76 0.59 0.58 0.63 0.66 0.58 0.51 0.50 0.51 0.49 0.49 0.46 0.42 0.40 0.40
2.37 2.42 2.20 1.76 1.26 1.02 0.78 0.55 0.43 0.47 0.42 0.38 0.34 0.40 0.48 0.60 0.69 0.79 0.78 0.80 0.80 0.72 0.66 0.62 0.72 0.72 0.69 0.73 0.80 0.83 0.81 0.89 0.87 0.77 0.71 0.66 0.58 0.59 0.60 0.56 0.56 0.53 0.53 0.53 0.51 0.45 0.41 0.41 0.42
2.39 2.28 1.97 1.46 1.22 1.15 0.83 0.45 0.37 0.43 0.38 0.35 0.34 0.43 0.52 0.67 0.71 0.70 0.69 0.76 0.81 0.78 0.76 0.71 0.70 0.69 0.72 0.81 0.80 0.82 0.88 0.99 0.96 0.78 0.71 0.71 0.60 0.53 0.52 0.53 0.55 0.55 0.57 0.60 0.55 0.45 0.39 0.42 0.45
1.79 1.93 1.87 1.61 1.36 1.36 0.84 0.45 0.26 0.25 0.26 0.20 0.22 0.36 0.48 0.61 0.61 0.72 0.73 0.76 0.79 0.74 0.71 0.67 0.65 0.68 0.72 0.81 0.84 0.85 0.85 0.94 0.93 0.82 0.81 0.80 0.65 0.54 0.54 0.53 0.57 0.60 0.63 0.68 0.64 0.55 0.48 0.47 0.49
1.65 1.85 1.97 1.85 1.30 1.14 0.69 0.57 0.30 0.16 0.16 0.16 0.16 0.18 0.30 0.35 0.41 0.55 0.66 0.67 0.69 0.67 0.68 0.65 0.62 0.65 0.71 0.79 0.80 0.90 0.92 0.96 0.89 0.82 0.86 0.77 0.57 0.53 0.56 0.50 0.62 0.73 0.86 0.87 0.78 0.69 0.61 0.55 0.48
1.80 1.85 1.71 1.33 0.87 0.72 0.67 0.60 0.32 0.25 0.28 0.27 0.23 0.24 0.39 0.47 0.52 0.63 0.66 0.69 0.68 0.69 0.69 0.65 0.68 0.66 0.65 0.70 0.93 1.10 0.98 0.89 0.78 0.81 0.78 0.76 0.73 0.70 0.52 0.53 0.68 0.75 0.84 0.87 0.81 0.77 0.63 0.46 0.36
1.31 1.35 1.18 0.94 0.63 0.55 0.56 0.44 0.30 0.35 0.41 0.36 0.36 0.38 0.45 0.55 0.59 0.64 0.69 0.71 0.70 0.67 0.68 0.63 0.61 0.55 0.55 0.70 0.87 1.06 1.11 1.07 1.04 0.90 0.89 0.85 0.76 0.65 0.51 0.49 0.54 0.59 0.68 0.67 0.73 0.71 0.50 0.40 0.39
1.08 0.90 0.84 0.77 0.55 0.56 0.53 0.41 0.37 0.39 0.35 0.27 0.29 0.34 0.41 0.48 0.54 0.62 0.66 0.62 0.57 0.58 0.61 0.57 0.54 0.51 0.49 0.50 0.61 0.76 0.83 0.82 0.84 0.85 0.79 0.80 0.81 0.74 0.64 0.58 0.62 0.65 0.63 0.69 0.75 0.73 0.60 0.51 0.43
1.12 0.90 0.72 0.66 0.55 0.58 0.52 0.41 0.34 0.32 0.27 0.26 0.35 0.41 0.46 0.50 0.52 0.52 0.48 0.50 0.51 0.52 0.54 0.56 0.58 0.56 0.61 0.60 0.57 0.56 0.62 0.67 0.72 0.80 0.72 0.67 0.70 0.73 0.75 0.69 0.73 0.70 0.68 0.71 0.72 0.61 0.60 0.59 0.50
0.93 0.84 0.79 0.74 0.67 0.59 0.56 0.42 0.33 0.33 0.29 0.30 0.37 0.43 0.45 0.48 0.47 0.44 0.41 0.39 0.39 0.49 0.59 0.62 0.59 0.62 0.60 0.56 0.59 0.62 0.62 0.66 0.69 0.73 0.66 0.60 0.60 0.62 0.74 0.73 0.78 0.69 0.71 0.79 0.72 0.65 0.67 0.67 0.58
0.70 0.86 0.87 0.76 0.73 0.64 0.58 0.60 0.38 0.34 0.32 0.36 0.36 0.40 0.45 0.46 0.45 0.45 0.43 0.39 0.37 0.44 0.57 0.69 0.66 0.69 0.65 0.60 0.63 0.66 0.66 0.63 0.65 0.69 0.62 0.58 0.61 0.62 0.74 0.78 0.77 0.75 0.78 0.81 0.84 0.83 0.78 0.70 0.62
0.80 0.93 1.12 0.82 0.74 0.66 0.70 0.74 0.45 0.42 0.37 0.38 0.33 0.36 0.39 0.41 0.42 0.42 0.41 0.40 0.38 0.40 0.51 0.63 0.65 0.70 0.73 0.72 0.72 0.69 0.65 0.66 0.72 0.75 0.70 0.66 0.64 0.67 0.87 0.92 0.81 0.86 0.97 1.00 1.01 0.97 0.89 0.79 0.75
0.97 1.01 0.97 0.84 0.66 0.61 0.65 0.61 0.47 0.43 0.39 0.37 0.32 0.31 0.31 0.32 0.34 0.36 0.35 0.37 0.37 0.41 0.47 0.52 0.58 0.78 0.81 0.77 0.83 0.83 0.80 0.86 0.89 0.92 0.89 0.84 0.81 0.89 1.06 1.13 1.04 1.02 1.17 1.14 1.03 1.03 1.03 0.94 0.92
0.77 0.63 0.61 0.64 0.53 0.51 0.56 0.45 0.42 0.39 0.34 0.34 0.32 0.27 0.24 0.26 0.28 0.27 0.26 0.27 0.28 0.34 0.40 0.46 0.55 0.67 0.79 0.94 1.02 1.10 1.11 1.11 1.23 1.30 1.29 1.12 1.07 1.13 1.28 1.38 1.34 1.30 1.40 1.39 1.27 1.35 1.34 1.24 1.26
0.53 0.48 0.53 0.49 0.39 0.40 0.43 0.35 0.34 0.33 0.30 0.27 0.25 0.22 0.19 0.17 0.17 0.14 0.14 0.17 0.20 0.25 0.31 0.37 0.54 0.70 0.86 0.98 1.13 1.38 1.54 1.64 1.63 1.63 1.70 1.62 1.44 1.52 1.63 1.60 1.81 1.89 1.86 1.85 1.80 1.91 1.93 1.66 1.48
0.49 0.47 0.48 0.42 0.30 0.29 0.30 0.26 0.23 0.25 0.24 0.22 0.20 0.20 0.16 0.12 0.09 0.08 0.07 0.10 0.12 0.16 0.22 0.30 0.44 0.67 0.92 1.15 1.33 1.52 1.84 2.00 2.00 2.06 2.01 1.96 1.85 1.87 1.79 1.87 2.08 2.13 2.23 2.32 2.16 2.27 2.33 2.02 1.73
0.43 0.39 0.39 0.37 0.35 0.25 0.23 0.25 0.22 0.20 0.21 0.18 0.15 0.14 0.12 0.09 0.07 0.06 0.05 0.06 0.07 0.09 0.14 0.21 0.34 0.57 0.88 1.19 1.45 1.64 1.88 2.14 2.24 2.15 2.10 2.13 2.21 2.26 2.15 2.11 2.23 2.24 2.32 2.51 2.54 2.48 2.55 2.46 2.15
0.47 0.29 0.27 0.24 0.30 0.31 0.22 0.33 0.26 0.22 0.22 0.19 0.17 0.16 0.14 0.11 0.11 0.09 0.07 0.06 0.07 0.10 0.13 0.17 0.32 0.48 0.72 0.99 1.32 1.57 1.84 2.15 2.22 2.20 2.17 2.21 2.33 2.42 2.38 2.33 2.39 2.39 2.35 2.47 2.55 2.53 2.72 2.87 2.58
0.36 0.22 0.19 0.20 0.22 0.22 0.18 0.29 0.25 0.20 0.25 0.24 0.24 0.23 0.19 0.16 0.15 0.13 0.11 0.11 0.13 0.15 0.18 0.25 0.38 0.54 0.74 0.98 1.30 1.63 1.82 1.99 2.19 2.20 2.11 2.05 2.12 2.14 2.12 2.24 2.39 2.41 2.38 2.39 2.57 2.68 2.85 2.83 2.73
0.23 0.19 0.16 0.15 0.18 0.22 0.12 0.24 0.30 0.25 0.24 0.22 0.24 0.24 0.18 0.14 0.15 0.17 0.21 0.23 0.23 0.25 0.30 0.38 0.51 0.72 0.87 0.97 1.12 1.29 1.50 1.78 1.92 2.02 2.06 2.07 2.07 1.95 1.87 1.98 2.08 2.18 2.23 2.21 2.26 2.42 2.55 2.72 2.85
0.16 0.23 0.31 0.30 0.34 0.28 0.13 0.25 0.36 0.28 0.23 0.23 0.23 0.21 0.20 0.22 0.26 0.33 0.43 0.41 0.38 0.41 0.50 0.56 0.63 0.74 0.79 0.78 0.87 1.00 1.16 1.38 1.52 1.61 1.81 1.88 1.92 1.86 1.81 1.79 1.87 1.94 1.99 2.09 2.25 2.24 2.27 2.44 2.63
0.10 0.18 0.34 0.40 0.38 0.30 0.29 0.42 0.45 0.36 0.28 0.25 0.22 0.20 0.22 0.29 0.40 0.54 0.66 0.71 0.65 0.63 0.65 0.62 0.63 0.60 0.62 0.66 0.73 0.80 0.87 1.01 1.13 1.21 1.37 1.50 1.50 1.47 1.46 1.52 1.62 1.78 1.88 1.98 2.11 2.16 2.12 2.19 2.25
0.09 0.09 0.14 0.24 0.24 0.27 0.36 0.53 0.51 0.36 0.29 0.27 0.26 0.24 0.29 0.42 0.57 0.73 0.86 0.93 0.88 0.80 0.73 0.69 0.68 0.65 0.58 0.61 0.69 0.75 0.80 0.82 0.85 0.89 0.88 0.97 1.06 1.09 1.14 1.20 1.33 1.54 1.68 1.75 1.86 2.00 1.99 2.04 2.04
0.08 0.09 0.13 0.27 0.41 0.43 0.42 0.54 0.61 0.50 0.38 0.36 0.38 0.45 0.56 0.73 0.80 0.91 0.99 0.98 0.97 1.01 0.95 0.78 0.71 0.72 0.66 0.74 0.75 0.72 0.71 0.69 0.67 0.71 0.77 0.78 0.87 0.98 1.07 1.09 1.16 1.29 1.39 1.49 1.67 1.82 1.89 1.92 1.89
0.11 0.14 0.22 0.35 0.46 0.61 0.72 0.84 0.70 0.57 0.56 0.54 0.56 0.72 0.82 0.93 1.00 1.02 1.08 1.02 0.89 0.89 0.87 0.85 0.80 0.74 0.75 0.80 0.80 0.70 0.67 0.67 0.67 0.65 0.67 0.76 0.85 0.95 1.00 1.06 1.11 1.14 1.24 1.29 1.41 1.56 1.69 1.72 1.73
0.24 0.36 0.46 0.64 0.66 0.65 0.89 1.08 0.79 0.64 0.65 0.66 0.65 0.63 0.65 0.83 0.95 0.98 1.05 0.97 0.81 0.77 0.68 0.72 0.79 0.80 0.86 0.86 0.80 0.71 0.71 0.74 0.79 0.77 0.70 0.71 0.77 0.79 0.90 1.04 1.03 1.04 1.10 1.18 1.29 1.38 1.44 1.53 1.49

GEFSSGP_prec_meanprecacc_150.txt.gz
Total_Precipitation_Accumulation
1.24 1.48 2.24 2.77 2.72 2.10 1.50 1.03 0.79 0.79 0.75 0.57 0.36 0.31 0.50 0.78 1.07 1.37 1.36 1.09 0.71 0.57 0.49 0.62 0.78 0.67 0.61 0.61 0.64 0.72 0.75 0.76 0.78 0.81 0.87 0.65 0.52 0.49 0.44 0.44 0.43 0.40 0.34 0.38 0.47 0.51 0.47 0.40 0.41
1.10 1.92 2.80 3.21 2.50 1.62 1.32 1.00 0.97 0.82 0.58 0.41 0.29 0.26 0.38 0.42 0.32 0.71 1.37 1.42 0.78 0.64 0.59 0.69 0.87 0.77 0.66 0.64 0.73 0.80 0.85 0.87 0.93 0.93 0.81 0.62 0.56 0.55 0.54 0.56 0.57 0.49 0.37 0.37 0.39 0.45 0.45 0.42 0.45
1.27 2.29 2.90 2.91 1.77 1.34 1.26 1.11 0.94 0.61 0.39 0.34 0.32 0.25 0.32 0.46 0.48 0.78 1.25 1.00 0.66 0.66 0.70 0.92 1.02 0.86 0.77 0.74 0.79 0.90 0.98 0.96 0.98 0.93 0.70 0.59 0.57 0.59 0.60 0.64 0.60 0.53 0.47 0.42 0.40 0.41 0.39 0.39 0.41
1.62 2.47 2.58 2.06 1.50 1.09 1.00 1.01 0.69 0.52 0.39 0.29 0.26 0.29 0.34 0.49 0.59 0.71 0.84 0.77 0.63 0.63 0.63 0.81 0.97 0.86 0.80 0.82 0.89 0.88 0.83 0.84 0.92 0.84 0.67 0.56 0.61 0.61 0.62 0.59 0.53 0.54 0.54 0.50 0.48 0.44 0.41 0.42 0.38
2.18 2.67 2.35 1.76 1.36 1.12 0.89 0.70 0.52 0.55 0.46 0.36 0.29 0.39 0.48 0.66 0.71 0.78 0.85 0.79 0.72 0.68 0.61 0.69 0.84 0.79 0.76 0.82 0.90 0.90 0.81 0.83 0.86 0.83 0.77 0.59 0.58 0.63 0.66 0.58 0.51 0.50 0.51 0.49 0.49 0.46 0.43 0.40 0.40
2.48 2.52 2.30 1.86 1.39 1.14 0.91 0.59 0.45 0.49 0.43 0.40 0.37 0.46 0.58 0.76 0.83 0.92 0.84 0.85 0.83 0.74 0.69 0.65 0.75 0.75 0.71 0.74 0.80 0.84 0.81 0.89 0.88 0.77 0.71 0.66 0.58 0.59 0.60 0.56 0.56 0.53 0.53 0.53 0.51 0.45 0.41 0.42 0.42
2.49 2.36 2.06 1.56 1.34 1.31 0.98 0.52 0.41 0.46 0.41 0.38 0.38 0.50 0.60 0.82 0.86 0.82 0.78 0.82 0.85 0.80 0.77 0.74 0.72 0.72 0.75 0.83 0.81 0.82 0.88 0.99 0.96 0.78 0.71 0.71 0.60 0.53 0.52 0.54 0.55 0.55 0.57 0.61 0.55 0.45 0.39 0.43 0.45
1.90 2.02 1.95 1.70 1.47 1.52 0.96 0.51 0.31 0.28 0.30 0.25 0.27 0.43 0.56 0.74 0.73 0.80 0.80 0.82 0.83 0.76 0.73 0.69 0.67 0.70 0.73 0.82 0.85 0.85 0.85 0.94 0.93 0.82 0.81 0.80 0.65 0.54 0.54 0.53 0.57 0.60 0.63 0.68 0.64 0.55 0.48 0.48 0.49
1.75 1.95 2.07 1.96 1.41 1.28 0.79 0.62 0.35 0.20 0.20 0.22 0.24 0.26 0.38 0.42 0.47 0.60 0.71 0.71 0.72 0.68 0.69 0.67 0.64 0.66 0.72 0.79 0.80 0.90 0.93 0.96 0.89 0.82 0.86 0.77 0.57 0.53 0.56 0.51 0.63 0.73 0.86 0.87 0.79 0.69 0.61 0.56 0.48
1.88 1.93 1.84 1.45 0.96 0.80 0.75 0.65 0.36 0.30 0.34 0.33 0.32 0.33 0.49 0.52 0.56 0.67 0.69 0.72 0.69 0.70 0.70 0.67 0.69 0.67 0.66 0.70 0.93 1.10 0.98 0.89 0.78 0.81 0.78 0.76 0.73 0.70 0.52 0.53 0.68 0.75 0.84 0.87 0.81 0.77 0.63 0.47 0.36
1.37 1.44 1.30 1.06 0.69 0.60 0.61 0.48 0.33 0.39 0.47 0.42 0.43 0.48 0.54 0.61 0.63 0.67 0.71 0.73 0.71 0.68 0.68 0.63 0.61 0.56 0.56 0.70 0.87 1.06 1.11 1.07 1.04 0.90 0.89 0.85 0.76 0.65 0.51 0.49 0.54 0.59 0.68 0.67 0.73 0.71 0.50 0.40 0.40
1.13 0.96 0.91 0.84 0.58 0.60 0.56 0.43 0.40 0.43 0.39 0.31 0.34 0.41 0.48 0.54 0.58 0.64 0.69 0.63 0.58 0.58 0.61 0.57 0.55 0.52 0.50 0.50 0.61 0.76 0.83 0.82 0.84 0.85 0.79 0.80 0.81 0.74 0.64 0.58 0.62 0.65 0.63 0.69 0.75 0.73 0.60 0.51 0.43
1.17 0.98 0.78 0.72 0.58 0.61 0.56 0.44 0.37 0.35 0.29 0.28 0.37 0.45 0.52 0.55 0.57 0.54 0.49 0.50 0.51 0.52 0.54 0.56 0.58 0.56 0.61 0.60 0.57 0.56 0.62 0.67 0.72 0.80 0.72 0.67 0.70 0.73 0.75 0.69 0.73 0.70 0.68 0.71 0.72 0.61 0.60 0.59 0.50
0.96 0.92 0.87 0.80 0.71 0.62 0.59 0.46 0.37 0.39 0.32 0.32 0.40 0.47 0.50 0.54 0.52 0.47 0.42 0.39 0.39 0.49 0.59 0.63 0.59 0.62 0.60 0.56 0.59 0.62 0.62 0.66 0.69 0.73 0.66 0.60 0.60 0.62 0.74 0.73 0.78 0.69 0.71 0.79 0.72 0.65 0.67 0.67 0.58
0.73 0.94 0.97 0.82 0.77 0.68 0.62 0.65 0.43 0.40 0.36 0.41 0.42 0.44 0.50 0.52 0.48 0.46 0.44 0.40 0.38 0.45 0.58 0.69 0.67 0.69 0.65 0.60 0.63 0.66 0.66 0.63 0.65 0.69 0.62 0.58 0.61 0.62 0.74 0.78 0.77 0.75 0.78 0.81 0.84 0.83 0.78 0.70 0.62
0.83 1.01 1.22 0.89 0.78 0.69 0.73 0.79 0.51 0.49 0.42 0.42 0.37 0.42 0.44 0.45 0.44 0.42 0.41 0.41 0.41 0.42 0.52 0.64 0.65 0.70 0.73 0.72 0.72 0.70 0.65 0.67 0.72 0.75 0.70 0.66 0.64 0.67 0.87 0.92 0.81 0.86 0.97 1.00 1.01 0.97 0.89 0.79 0.76
1.02 1.07 1.03 0.91 0.71 0.65 0.68 0.65 0.53 0.49 0.42 0.41 0.36 0.34 0.34 0.34 0.36 0.37 0.36 0.37 0.40 0.43 0.48 0.52 0.58 0.78 0.82 0.78 0.83 0.84 0.80 0.86 0.89 0.92 0.89 0.84 0.81 0.89 1.06 1.13 1.04 1.02 1.17 1.14 1.03 1.03 1.04 0.94 0.94
0.80 0.68 0.68 0.73 0.60 0.55 0.60 0.48 0.47 0.43 0.37 0.38 0.35 0.30 0.26 0.27 0.29 0.28 0.27 0.28 0.30 0.36 0.40 0.46 0.55 0.67 0.80 0.95 1.03 1.11 1.11 1.11 1.23 1.30 1.29 1.12 1.07 1.13 1.28 1.38 1.34 1.30 1.41 1.39 1.27 1.35 1.35 1.24 1.27
0.56 0.52 0.59 0.54 0.43 0.46 0.48 0.39 0.39 0.38 0.35 0.31 0.28 0.25 0.23 0.20 0.20 0.17 0.16 0.19 0.22 0.26 0.31 0.37 0.54 0.70 0.86 0.99 1.13 1.38 1.54 1.64 1.63 1.63 1.70 1.62 1.44 1.52 1.63 1.60 1.82 1.89 1.86 1.85 1.80 1.92 1.93 1.66 1.48
0.53 0.53 0.54 0.48 0.35 0.34 0.36 0.32 0.30 0.31 0.30 0.26 0.24 0.23 0.19 0.14 0.13 0.12 0.11 0.12 0.13 0.16 0.22 0.30 0.44 0.68 0.92 1.15 1.33 1.52 1.84 2.00 2.00 2.06 2.01 1.96 1.85 1.87 1.79 1.87 2.08 2.13 2.23 2.32 2.16 2.28 2.33 2.03 1.73
0.48 0.45 0.46 0.43 0.40 0.32 0.28 0.30 0.27 0.26 0.26 0.22 0.17 0.16 0.13 0.10 0.10 0.11 0.09 0.09 0.08 0.10 0.14 0.21 0.34 0.57 0.88 1.19 1.45 1.64 1.88 2.14 2.24 2.15 2.10 2.13 2.21 2.26 2.15 2.11 2.23 2.25 2.32 2.51 2.54 2.49 2.55 2.46 2.16
0.55 0.34 0.32 0.32 0.37 0.39 0.27 0.37 0.31 0.27 0.28 0.24 0.20 0.18 0.16 0.13 0.12 0.11 0.09 0.08 0.08 0.11 0.13 0.17 0.32 0.48 0.72 0.99 1.32 1.57 1.84 2.15 2.22 2.20 2.17 2.21 2.33 2.42 2.38 2.33 2.39 2.39 2.35 2.47 2.56 2.53 2.73 2.88 2.59
0.42 0.25 0.25 0.28 0.29 0.28 0.23 0.34 0.28 0.24 0.29 0.30 0.29 0.26 0.22 0.17 0.16 0.14 0.13 0.12 0.13 0.15 0.18 0.25 0.38 0.54 0.74 0.98 1.30 1.63 1.82 1.99 2.19 2.20 2.11 2.05 2.12 2.14 2.12 2.24 2.39 2.41 2.38 2.39 2.57 2.68 2.85 2.83 2.73
0.28 0.26 0.25 0.24 0.26 0.28 0.18 0.30 0.33 0.28 0.28 0.30 0.31 0.29 0.22 0.16 0.16 0.19 0.23 0.25 0.24 0.25 0.30 0.38 0.51 0.72 0.87 0.97 1.12 1.29 1.50 1.78 1.92 2.02 2.06 2.07 2.07 1.95 1.87 1.98 2.09 2.18 2.23 2.21 2.27 2.42 2.56 2.73 2.86
0.21 0.30 0.40 0.39 0.42 0.37 0.18 0.29 0.38 0.29 0.25 0.26 0.28 0.27 0.24 0.24 0.27 0.34 0.44 0.42 0.40 0.42 0.50 0.57 0.63 0.74 0.79 0.79 0.87 1.00 1.16 1.38 1.52 1.61 1.81 1.88 1.92 1.86 1.81 1.79 1.87 1.95 1.99 2.09 2.26 2.25 2.27 2.45 2.64
0.16 0.23 0.40 0.46 0.42 0.35 0.32 0.44 0.46 0.37 0.29 0.26 0.25 0.22 0.24 0.30 0.40 0.55 0.66 0.71 0.67 0.65 0.65 0.62 0.63 0.61 0.62 0.66 0.73 0.80 0.87 1.01 1.13 1.21 1.37 1.50 1.50 1.48 1.47 1.53 1.63 1.78 1.88 1.98 2.12 2.16 2.12 2.20 2.26
0.15 0.14 0.17 0.27 0.26 0.29 0.38 0.54 0.52 0.36 0.29 0.28 0.27 0.24 0.30 0.43 0.57 0.74 0.86 0.94 0.89 0.81 0.74 0.69 0.69 0.65 0.59 0.61 0.69 0.75 0.80 0.82 0.85 0.89 0.88 0.97 1.06 1.09 1.14 1.20 1.34 1.54 1.68 1.75 1.86 2.00 1.99 2.04 2.05
0.11 0.12 0.16 0.32 0.44 0.45 0.44 0.55 0.61 0.50 0.39 0.37 0.39 0.45 0.56 0.73 0.80 0.91 0.99 0.98 0.97 1.01 0.96 0.78 0.72 0.72 0.66 0.74 0.75 0.72 0.71 0.69 0.68 0.71 0.77 0.78 0.87 0.98 1.07 1.09 1.17 1.29 1.39 1.50 1.68 1.82 1.90 1.92 1.89
0.13 0.17 0.25 0.39 0.47 0.64 0.75 0.85 0.70 0.58 0.56 0.54 0.57 0.75 0.83 0.93 1.00 1.02 1.08 1.02 0.90 0.90 0.88 0.86 0.80 0.74 0.75 0.81 0.81 0.71 0.68 0.68 0.68 0.65 0.67 0.76 0.85 0.95 1.00 1.06 1.11 1.15 1.24 1.29 1.41 1.56 1.70 1.73 1.74
0.25 0.38 0.48 0.66 0.67 0.67 0.91 1.09 0.80 0.65 0.66 0.68 0.68 0.66 0.66 0.83 0.95 0.98 1.05 0.97 0.82 0.77 0.68 0.72 0.80 0.81 0.87 0.87 0.80 0.72 0.72 0.75 0.80 0.78 0.70 0.71 0.77 0.79 0.90 1.04 1.03 1.05 1.10 1.18 1.29 1.39 1.45 1.54 1.50

GEFSSGP_prec_meanprecacc_156.txt.gz
Total_Precipitation_Accumulation
1.34 1.56 2.29 2.80 2.75 2.12 1.54 1.07 0.86 0.87 0.79 0.60 0.41 0.36 0.54 0.81 1.12 1.45 1.41 1.13 0.74 0.59 0.56 0.76 0.92 0.77 0.68 0.70 0.73 0.79 0.80 0.80 0.83 0.85 0.89 0.68 0.54 0.52 0.48 0.46 0.45 0.42 0.36 0.38 0.48 0.53 0.49 0.41 0.42
1.14 1.97 2.86 3.26 2.53 1.64 1.34 1.03 1.00 0.87 0.62 0.45 0.33 0.29 0.40 0.44 0.35 0.75 1.43 1.47 0.82 0.67 0.66 0.78 0.98 0.85 0.73 0.72 0.81 0.86 0.89 0.90 0.97 0.96 0.83 0.63 0.58 0.57 0.56 0.57 0.58 0.51 0.39 0.38 0.41 0.46 0.46 0.43 0.47
1.32 2.36 2.97 2.96 1.79 1.36 1.28 1.14 0.98 0.66 0.43 0.37 0.34 0.26 0.33 0.48 0.54 0.83 1.30 1.04 0.70 0.71 0.77 1.03 1.12 0.94 0.83 0.78 0.85 0.96 1.02 0.99 1.02 0.96 0.72 0.61 0.59 0.60 0.61 0.65 0.63 0.57 0.50 0.44 0.41 0.42 0.40 0.41 0.42
1.69 2.55 2.64 2.10 1.52 1.11 1.03 1.05 0.72 0.55 0.41 0.31 0.28 0.30 0.36 0.52 0.65 0.76 0.87 0.82 0.68 0.68 0.69 0.88 1.06 0.93 0.84 0.86 0.93 0.93 0.87 0.88 0.95 0.88 0.70 0.59 0.63 0.63 0.64 0.61 0.57 0.58 0.57 0.52 0.49 0.45 0.42 0.43 0.39
2.24 2.72 2.37 1.79 1.39 1.13 0.91 0.73 0.55 0.57 0.47 0.38 0.31 0.40 0.50 0.71 0.79 0.85 0.90 0.86 0.77 0.73 0.66 0.74 0.90 0.84 0.80 0.86 0.93 0.93 0.84 0.87 0.90 0.86 0.80 0.63 0.60 0.64 0.67 0.59 0.53 0.52 0.53 0.51 0.50 0.47 0.44 0.41 0.41
2.54 2.55 2.32 1.89 1.42 1.16 0.94 0.64 0.49 0.51 0.45 0.43 0.41 0.49 0.63 0.84 0.96 1.05 0.93 0.94 0.90 0.79 0.73 0.69 0.80 0.80 0.76 0.79 0.84 0.87 0.85 0.93 0.91 0.79 0.73 0.69 0.60 0.60 0.61 0.57 0.57 0.54 0.54 0.53 0.51 0.46 0.42 0.42 0.43
2.57 2.40 2.09 1.58 1.36 1.34 1.03 0.58 0.46 0.48 0.42 0.41 0.42 0.53 0.65 0.93 1.00 0.95 0.89 0.91 0.93 0.85 0.80 0.76 0.74 0.76 0.81 0.88 0.85 0.85 0.90 1.00 0.97 0.79 0.71 0.72 0.60 0.53 0.52 0.54 0.55 0.55 0.58 0.62 0.55 0.45 0.39 0.43 0.46
1.97 2.06 1.98 1.74 1.51 1.56 1.00 0.56 0.35 0.31 0.33 0.28 0.31 0.47 0.64 0.85 0.84 0.91 0.89 0.91 0.90 0.81 0.76 0.70 0.69 0.73 0.76 0.86 0.88 0.86 0.85 0.94 0.94 0.82 0.81 0.81 0.65 0.54 0.54 0.53 0.57 0.61 0.64 0.70 0.65 0.55 0.48 0.48 0.50
1.81 1.98 2.11 1.99 1.44 1.32 0.84 0.67 0.38 0.22 0.22 0.25 0.26 0.30 0.49 0.54 0.54 0.67 0.79 0.78 0.77 0.71 0.71 0.68 0.65 0.67 0.73 0.81 0.81 0.91 0.93 0.96 0.89 0.82 0.86 0.77 0.57 0.53 0.56 0.51 0.63 0.73 0.87 0.88 0.79 0.70 0.62 0.56 0.49
1.93 1.95 1.88 1.48 0.99 0.83 0.81 0.70 0.39 0.33 0.36 0.36 0.35 0.38 0.59 0.61 0.61 0.70 0.74 0.76 0.72 0.72 0.71 0.67 0.70 0.68 0.67 0.71 0.94 1.11 0.98 0.89 0.78 0.81 0.78 0.76 0.73 0.70 0.52 0.53 0.69 0.76 0.85 0.88 0.82 0.78 0.64 0.47 0.37
1.40 1.47 1.33 1.09 0.72 0.63 0.64 0.52 0.37 0.42 0.49 0.43 0.45 0.52 0.64 0.71 0.67 0.70 0.74 0.75 0.73 0.68 0.68 0.64 0.62 0.57 0.56 0.70 0.88 1.06 1.11 1.07 1.04 0.90 0.89 0.85 0.76 0.65 0.51 0.49 0.54 0.59 0.68 0.67 0.73 0.71 0.51 0.40 0.40
1.16 0.99 0.94 0.88 0.62 0.64 0.60 0.47 0.45 0.45 0.41 0.32 0.36 0.43 0.55 0.63 0.63 0.67 0.71 0.65 0.59 0.58 0.61 0.58 0.55 0.52 0.50 0.50 0.61 0.76 0.83 0.82 0.84 0.85 0.79 0.80 0.81 0.74 0.64 0.58 0.62 0.65 0.63 0.69 0.75 0.73 0.60 0.51 0.43
1.20 1.02 0.83 0.78 0.64 0.65 0.59 0.47 0.41 0.39 0.31 0.29 0.38 0.48 0.55 0.59 0.61 0.58 0.52 0.52 0.52 0.53 0.55 0.56 0.59 0.56 0.61 0.60 0.57 0.56 0.62 0.67 0.72 0.80 0.72 0.67 0.70 0.73 0.75 0.69 0.73 0.70 0.68 0.71 0.72 0.61 0.60 0.59 0.50
1.00 0.96 0.93 0.86 0.76 0.65 0.63 0.50 0.40 0.42 0.35 0.34 0.43 0.51 0.53 0.57 0.57 0.51 0.46 0.42 0.41 0.50 0.61 0.64 0.59 0.62 0.60 0.56 0.59 0.62 0.62 0.66 0.69 0.73 0.66 0.60 0.60 0.62 0.74 0.73 0.78 0.69 0.71 0.79 0.72 0.65 0.67 0.67 0.58
0.77 0.98 1.03 0.87 0.81 0.72 0.66 0.68 0.46 0.44 0.41 0.45 0.46 0.48 0.52 0.55 0.55 0.52 0.48 0.42 0.39 0.45 0.58 0.69 0.67 0.69 0.65 0.60 0.63 0.66 0.66 0.63 0.65 0.69 0.62 0.58 0.61 0.62 0.74 0.78 0.77 0.75 0.78 0.81 0.84 0.83 0.78 0.70 0.62
0.88 1.06 1.27 0.94 0.82 0.73 0.77 0.81 0.53 0.53 0.48 0.47 0.43 0.46 0.46 0.48 0.49 0.50 0.46 0.43 0.42 0.42 0.52 0.64 0.65 0.70 0.73 0.73 0.73 0.70 0.65 0.67 0.72 0.75 0.70 0.66 0.64 0.67 0.87 0.92 0.81 0.86 0.97 1.00 1.01 0.97 0.89 0.79 0.76
1.07 1.11 1.08 0.97 0.76 0.69 0.72 0.68 0.56 0.53 0.50 0.46 0.41 0.38 0.36 0.36 0.39 0.41 0.39 0.40 0.42 0.43 0.48 0.53 0.59 0.78 0.82 0.78 0.84 0.84 0.80 0.86 0.89 0.92 0.89 0.84 0.81 0.89 1.06 1.13 1.04 1.02 1.17 1.14 1.03 1.04 1.04 0.95 0.94
0.84 0.72 0.72 0.80 0.65 0.60 0.64 0.52 0.51 0.49 0.46 0.44 0.41 0.34 0.29 0.29 0.32 0.31 0.29 0.31 0.32 0.37 0.41 0.47 0.55 0.68 0.80 0.95 1.03 1.11 1.12 1.11 1.23 1.30 1.29 1.12 1.07 1.13 1.28 1.38 1.34 1.30 1.41 1.39 1.27 1.35 1.35 1.25 1.27
0.58 0.55 0.62 0.59 0.47 0.50 0.52 0.45 0.46 0.45 0.45 0.38 0.32 0.29 0.26 0.22 0.22 0.19 0.18 0.21 0.24 0.27 0.31 0.37 0.54 0.70 0.86 0.99 1.13 1.38 1.54 1.64 1.63 1.63 1.70 1.62 1.44 1.52 1.63 1.60 1.82 1.89 1.86 1.85 1.80 1.92 1.93 1.66 1.49
0.55 0.56 0.57 0.51 0.38 0.38 0.41 0.40 0.38 0.40 0.38 0.30 0.27 0.26 0.21 0.17 0.15 0.14 0.13 0.14 0.14 0.17 0.22 0.30 0.44 0.68 0.92 1.15 1.33 1.52 1.84 2.00 2.00 2.06 2.01 1.96 1.85 1.87 1.79 1.87 2.08 2.13 2.23 2.32 2.16 2.28 2.33 2.03 1.73
0.51 0.48 0.49 0.46 0.45 0.37 0.34 0.37 0.37 0.36 0.33 0.24 0.19 0.18 0.16 0.12 0.13 0.13 0.11 0.11 0.10 0.10 0.15 0.22 0.34 0.57 0.88 1.19 1.45 1.64 1.88 2.14 2.24 2.15 2.10 2.13 2.21 2.26 2.15 2.11 2.23 2.25 2.32 2.51 2.55 2.49 2.55 2.46 2.16
0.58 0.37 0.35 0.35 0.41 0.45 0.33 0.44 0.39 0.34 0.32 0.25 0.21 0.20 0.18 0.15 0.14 0.12 0.10 0.09 0.10 0.12 0.14 0.18 0.32 0.48 0.72 0.99 1.32 1.57 1.84 2.15 2.22 2.20 2.17 2.21 2.33 2.42 2.38 2.33 2.39 2.39 2.35 2.47 2.56 2.53 2.73 2.88 2.60
0.46 0.29 0.29 0.33 0.32 0.32 0.27 0.37 0.33 0.27 0.31 0.32 0.30 0.27 0.23 0.18 0.17 0.15 0.13 0.13 0.15 0.17 0.19 0.25 0.39 0.54 0.74 0.98 1.30 1.63 1.82 1.99 2.19 2.20 2.12 2.05 2.12 2.14 2.12 2.24 2.39 2.41 2.38 2.39 2.57 2.68 2.85 2.84 2.74
0.32 0.31 0.30 0.29 0.29 0.31 0.21 0.32 0.35 0.29 0.29 0.32 0.32 0.30 0.23 0.16 0.16 0.19 0.24 0.25 0.25 0.27 0.32 0.39 0.51 0.72 0.87 0.97 1.12 1.29 1.50 1.78 1.92 2.02 2.06 2.07 2.07 1.95 1.87 1.98 2.09 2.18 2.23 2.21 2.27 2.42 2.56 2.73 2.87
0.26 0.35 0.44 0.43 0.45 0.39 0.19 0.31 0.39 0.30 0.25 0.28 0.30 0.29 0.26 0.25 0.29 0.35 0.45 0.42 0.40 0.43 0.51 0.57 0.64 0.74 0.79 0.79 0.87 1.00 1.16 1.38 1.52 1.61 1.81 1.88 1.92 1.86 1.81 1.79 1.87 1.95 1.99 2.09 2.26 2.25 2.27 2.45 2.64
0.21 0.26 0.41 0.48 0.43 0.35 0.32 0.44 0.47 0.37 0.29 0.27 0.28 0.25 0.26 0.32 0.41 0.56 0.67 0.72 0.67 0.65 0.66 0.63 0.63 0.61 0.62 0.66 0.73 0.81 0.87 1.02 1.13 1.21 1.37 1.50 1.50 1.48 1.47 1.53 1.63 1.78 1.88 1.98 2.12 2.16 2.12 2.20 2.26
0.18 0.15 0.18 0.28 0.26 0.29 0.39 0.54 0.52 0.36 0.29 0.28 0.29 0.26 0.31 0.44 0.58 0.74 0.87 0.94 0.90 0.81 0.74 0.69 0.69 0.66 0.59 0.61 0.69 0.76 0.81 0.82 0.85 0.89 0.88 0.97 1.06 1.09 1.14 1.20 1.34 1.54 1.68 1.75 1.86 2.00 1.99 2.05 2.05
0.13 0.13 0.16 0.32 0.44 0.45 0.44 0.55 0.62 0.50 0.39 0.37 0.40 0.46 0.57 0.74 0.81 0.92 0.99 0.98 0.97 1.02 0.96 0.79 0.72 0.72 0.66 0.74 0.75 0.73 0.71 0.70 0.68 0.72 0.77 0.78 0.87 0.98 1.08 1.09 1.17 1.29 1.39 1.50 1.68 1.82 1.90 1.93 1.89
0.13 0.17 0.25 0.39 0.47 0.64 0.75 0.85 0.71 0.58 0.57 0.55 0.58 0.75 0.83 0.93 1.00 1.02 1.09 1.02 0.90 0.90 0.88 0.86 0.81 0.75 0.76 0.81 0.81 0.71 0.68 0.68 0.68 0.65 0.68 0.76 0.85 0.95 1.01 1.06 1.11 1.15 1.24 1.30 1.41 1.56 1.70 1.73 1.74
0.25 0.38 0.48 0.66 0.67 0.67 0.91 1.09 0.80 0.65 0.67 0.68 0.68 0.66 0.66 0.83 0.95 0.98 1.05 0.97 0.82 0.77 0.68 0.72 0.80 0.81 0.87 0.87 0.81 0.72 0.72 0.75 0.80 0.78 0.70 0.71 0.77 0.79 0.90 1.04 1.04 1.05 1.10 1.18 1.29 1.39 1.45 1.54 1.51

GEFSSGP_prec_meanprecacc_162.txt.gz
Total_Precipitation_Accumulation
1.36 1.58 2.29 2.81 2.77 2.14 1.57 1.09 0.89 0.92 0.86 0.66 0.44 0.38 0.57 0.84 1.16 1.50 1.44 1.15 0.76 0.63 0.60 0.86 1.09 0.93 0.82 0.81 0.84 0.91 0.91 0.89 0.90 0.92 0.96 0.72 0.59 0.57 0.52 0.51 0.49 0.45 0.39 0.42 0.50 0.54 0.50 0.42 0.44
1.15 1.98 2.86 3.26 2.54 1.66 1.36 1.05 1.04 0.92 0.68 0.50 0.37 0.32 0.42 0.46 0.37 0.78 1.48 1.52 0.86 0.73 0.71 0.87 1.12 0.98 0.85 0.83 0.91 0.97 0.99 0.98 1.03 1.02 0.89 0.67 0.62 0.61 0.59 0.60 0.62 0.55 0.43 0.41 0.43 0.48 0.48 0.45 0.49
1.33 2.37 2.98 2.97 1.80 1.37 1.30 1.17 1.02 0.70 0.48 0.42 0.39 0.28 0.35 0.52 0.56 0.87 1.36 1.11 0.76 0.75 0.83 1.11 1.21 1.02 0.92 0.87 0.92 1.06 1.11 1.07 1.09 1.02 0.77 0.66 0.63 0.65 0.65 0.68 0.67 0.62 0.56 0.48 0.43 0.44 0.42 0.42 0.44
1.69 2.56 2.65 2.11 1.53 1.12 1.04 1.08 0.76 0.58 0.46 0.35 0.31 0.32 0.37 0.56 0.71 0.81 0.92 0.88 0.72 0.71 0.75 0.95 1.14 1.01 0.92 0.94 1.01 0.99 0.92 0.93 1.01 0.93 0.75 0.63 0.66 0.66 0.66 0.64 0.61 0.62 0.60 0.54 0.51 0.47 0.43 0.44 0.41
2.25 2.74 2.40 1.80 1.40 1.14 0.92 0.75 0.57 0.61 0.52 0.41 0.34 0.42 0.53 0.77 0.89 0.95 0.96 0.91 0.80 0.76 0.71 0.79 0.98 0.92 0.87 0.92 0.99 0.98 0.89 0.92 0.95 0.91 0.84 0.67 0.64 0.67 0.69 0.61 0.55 0.54 0.54 0.52 0.51 0.47 0.44 0.42 0.43
2.55 2.58 2.36 1.91 1.44 1.18 0.96 0.66 0.52 0.55 0.49 0.46 0.45 0.51 0.66 0.92 1.07 1.19 1.03 0.99 0.92 0.82 0.77 0.75 0.86 0.85 0.82 0.85 0.90 0.91 0.89 0.97 0.96 0.83 0.77 0.73 0.64 0.63 0.63 0.58 0.58 0.56 0.56 0.55 0.53 0.47 0.43 0.43 0.44
2.59 2.42 2.12 1.60 1.39 1.36 1.05 0.59 0.49 0.52 0.47 0.47 0.47 0.56 0.70 1.01 1.12 1.07 0.97 0.95 0.97 0.90 0.86 0.81 0.78 0.80 0.86 0.97 0.93 0.89 0.94 1.04 1.00 0.81 0.74 0.75 0.63 0.56 0.54 0.56 0.57 0.56 0.60 0.63 0.57 0.47 0.41 0.45 0.48
1.99 2.08 2.01 1.76 1.54 1.59 1.02 0.57 0.37 0.34 0.38 0.33 0.36 0.51 0.70 0.94 0.95 0.99 0.95 0.95 0.95 0.86 0.80 0.74 0.72 0.75 0.78 0.89 0.94 0.88 0.87 0.96 0.95 0.83 0.82 0.82 0.66 0.55 0.55 0.54 0.58 0.61 0.65 0.71 0.66 0.55 0.49 0.50 0.52
1.83 2.02 2.16 2.04 1.48 1.36 0.86 0.69 0.40 0.24 0.25 0.29 0.31 0.35 0.54 0.61 0.62 0.75 0.85 0.82 0.80 0.73 0.72 0.69 0.67 0.69 0.74 0.82 0.85 0.92 0.94 0.97 0.90 0.83 0.86 0.77 0.57 0.53 0.56 0.51 0.63 0.74 0.88 0.89 0.80 0.71 0.63 0.58 0.50
1.95 2.00 1.93 1.51 1.02 0.86 0.82 0.72 0.41 0.36 0.40 0.40 0.38 0.40 0.65 0.70 0.70 0.81 0.80 0.79 0.74 0.73 0.71 0.68 0.70 0.68 0.67 0.72 0.97 1.11 0.99 0.89 0.78 0.81 0.78 0.76 0.73 0.70 0.52 0.53 0.69 0.76 0.85 0.88 0.83 0.78 0.65 0.47 0.37
1.42 1.50 1.36 1.12 0.75 0.65 0.66 0.54 0.38 0.44 0.52 0.46 0.48 0.54 0.67 0.77 0.77 0.78 0.80 0.78 0.74 0.69 0.69 0.64 0.63 0.58 0.56 0.71 0.89 1.07 1.11 1.07 1.05 0.90 0.89 0.85 0.76 0.65 0.51 0.49 0.54 0.59 0.68 0.67 0.74 0.72 0.52 0.41 0.40
1.17 1.01 0.98 0.92 0.65 0.66 0.63 0.49 0.47 0.47 0.42 0.33 0.37 0.45 0.58 0.68 0.67 0.71 0.74 0.68 0.61 0.60 0.63 0.59 0.57 0.53 0.50 0.51 0.62 0.77 0.83 0.83 0.84 0.85 0.79 0.80 0.81 0.74 0.64 0.58 0.62 0.65 0.63 0.69 0.76 0.73 0.60 0.52 0.44
1.22 1.05 0.86 0.82 0.68 0.68 0.62 0.49 0.43 0.42 0.33 0.31 0.41 0.49 0.60 0.67 0.66 0.62 0.55 0.54 0.55 0.55 0.57 0.57 0.59 0.57 0.62 0.61 0.57 0.56 0.62 0.68 0.72 0.80 0.72 0.67 0.70 0.73 0.75 0.69 0.73 0.70 0.68 0.71 0.72 0.61 0.60 0.60 0.51
1.01 0.98 0.96 0.91 0.81 0.68 0.67 0.53 0.42 0.48 0.38 0.36 0.46 0.53 0.57 0.64 0.64 0.57 0.49 0.44 0.43 0.52 0.62 0.64 0.60 0.62 0.60 0.56 0.59 0.62 0.62 0.66 0.69 0.73 0.66 0.60 0.60 0.62 0.74 0.73 0.78 0.69 0.71 0.79 0.72 0.65 0.68 0.68 0.59
0.78 1.01 1.07 0.92 0.85 0.75 0.69 0.72 0.50 0.50 0.44 0.48 0.50 0.51 0.56 0.61 0.62 0.61 0.54 0.46 0.41 0.47 0.59 0.70 0.67 0.69 0.65 0.60 0.63 0.66 0.66 0.63 0.65 0.69 0.62 0.58 0.61 0.62 0.74 0.78 0.77 0.75 0.78 0.81 0.84 0.83 0.79 0.70 0.62
0.90 1.09 1.32 0.99 0.86 0.76 0.80 0.85 0.57 0.58 0.53 0.51 0.48 0.50 0.49 0.52 0.55 0.60 0.55 0.48 0.44 0.43 0.52 0.64 0.65 0.70 0.74 0.73 0.73 0.70 0.65 0.67 0.72 0.75 0.70 0.66 0.64 0.67 0.87 0.92 0.81 0.86 0.97 1.00 1.02 0.98 0.90 0.80 0.76
1.10 1.15 1.12 1.01 0.80 0.71 0.74 0.72 0.61 0.59 0.54 0.50 0.44 0.41 0.38 0.38 0.43 0.48 0.46 0.44 0.43 0.44 0.48 0.53 0.59 0.79 0.82 0.78 0.84 0.84 0.80 0.86 0.89 0.92 0.89 0.84 0.81 0.89 1.06 1.13 1.04 1.02 1.17 1.14 1.03 1.04 1.05 0.96 0.95
0.87 0.76 0.76 0.84 0.69 0.64 0.67 0.55 0.55 0.55 0.51 0.47 0.44 0.37 0.32 0.32 0.35 0.34 0.33 0.33 0.33 0.37 0.41 0.47 0.56 0.68 0.80 0.95 1.03 1.11 1.12 1.11 1.23 1.30 1.29 1.12 1.07 1.13 1.28 1.38 1.34 1.30 1.41 1.39 1.27 1.36 1.35 1.26 1.29
0.60 0.59 0.65 0.62 0.51 0.54 0.55 0.47 0.51 0.51 0.50 0.40 0.35 0.32 0.28 0.25 0.26 0.23 0.21 0.24 0.25 0.28 0.32 0.38 0.54 0.70 0.86 0.99 1.13 1.38 1.54 1.64 1.63 1.63 1.70 1.62 1.44 1.52 1.64 1.60 1.82 1.89 1.86 1.86 1.80 1.92 1.94 1.67 1.50
0.58 0.59 0.60 0.54 0.42 0.44 0.46 0.44 0.44 0.46 0.42 0.32 0.29 0.29 0.23 0.19 0.17 0.17 0.14 0.16 0.16 0.19 0.23 0.30 0.44 0.68 0.92 1.15 1.33 1.52 1.84 2.00 2.00 2.06 2.01 1.96 1.85 1.87 1.79 1.87 2.08 2.13 2.23 2.32 2.16 2.29 2.35 2.03 1.74
0.53 0.50 0.51 0.49 0.48 0.43 0.40 0.44 0.45 0.44 0.37 0.27 0.20 0.20 0.18 0.15 0.15 0.16 0.13 0.12 0.11 0.12 0.16 0.22 0.35 0.57 0.88 1.19 1.45 1.64 1.88 2.14 2.24 2.15 2.10 2.13 2.21 2.26 2.15 2.11 2.23 2.25 2.32 2.51 2.55 2.50 2.57 2.48 2.17
0.60 0.39 0.38 0.39 0.44 0.52 0.40 0.51 0.50 0.46 0.39 0.29 0.23 0.21 0.19 0.17 0.17 0.16 0.12 0.11 0.11 0.13 0.16 0.20 0.34 0.49 0.72 0.99 1.32 1.57 1.84 2.15 2.22 2.20 2.17 2.21 2.33 2.42 2.38 2.33 2.39 2.39 2.35 2.47 2.56 2.54 2.74 2.89 2.61
0.48 0.30 0.32 0.37 0.35 0.37 0.33 0.43 0.44 0.40 0.41 0.36 0.32 0.28 0.24 0.20 0.20 0.18 0.15 0.14 0.17 0.19 0.20 0.27 0.40 0.54 0.74 0.98 1.30 1.63 1.82 1.99 2.19 2.20 2.12 2.05 2.12 2.14 2.12 2.24 2.39 2.41 2.38 2.39 2.58 2.69 2.86 2.84 2.75
0.34 0.34 0.34 0.33 0.33 0.36 0.26 0.37 0.42 0.37 0.37 0.36 0.33 0.31 0.23 0.17 0.19 0.22 0.26 0.26 0.26 0.29 0.33 0.40 0.52 0.72 0.87 0.97 1.12 1.29 1.50 1.78 1.92 2.02 2.06 2.07 2.07 1.95 1.87 1.98 2.09 2.18 2.23 2.21 2.27 2.43 2.57 2.73 2.88
0.29 0.39 0.49 0.49 0.49 0.44 0.23 0.34 0.42 0.32 0.28 0.30 0.31 0.30 0.26 0.25 0.30 0.37 0.47 0.43 0.41 0.44 0.53 0.59 0.65 0.74 0.79 0.79 0.87 1.00 1.16 1.38 1.52 1.61 1.81 1.88 1.92 1.86 1.81 1.79 1.87 1.95 1.99 2.09 2.26 2.25 2.28 2.46 2.65
0.24 0.28 0.45 0.52 0.46 0.38 0.35 0.47 0.49 0.37 0.30 0.28 0.29 0.25 0.26 0.32 0.42 0.57 0.68 0.72 0.67 0.65 0.67 0.65 0.65 0.61 0.62 0.66 0.73 0.81 0.88 1.02 1.13 1.21 1.37 1.50 1.50 1.48 1.47 1.53 1.63 1.78 1.88 1.98 2.12 2.16 2.12 2.20 2.26
0.20 0.17 0.19 0.30 0.28 0.32 0.40 0.55 0.53 0.37 0.30 0.29 0.29 0.26 0.31 0.44 0.58 0.74 0.87 0.94 0.90 0.81 0.74 0.70 0.70 0.67 0.59 0.61 0.69 0.76 0.81 0.82 0.85 0.89 0.89 0.97 1.06 1.09 1.14 1.21 1.35 1.55 1.69 1.75 1.86 2.00 1.99 2.05 2.05
0.15 0.15 0.18 0.33 0.46 0.47 0.46 0.56 0.63 0.51 0.39 0.38 0.40 0.46 0.57 0.74 0.81 0.92 0.99 0.98 0.97 1.02 0.96 0.79 0.72 0.73 0.67 0.74 0.75 0.73 0.71 0.70 0.68 0.72 0.77 0.78 0.87 0.98 1.08 1.09 1.17 1.30 1.40 1.50 1.68 1.82 1.90 1.93 1.90
0.14 0.18 0.27 0.40 0.48 0.65 0.76 0.86 0.71 0.58 0.57 0.55 0.58 0.75 0.83 0.93 1.00 1.02 1.09 1.02 0.90 0.90 0.88 0.86 0.81 0.75 0.76 0.81 0.81 0.71 0.68 0.68 0.68 0.65 0.68 0.76 0.85 0.95 1.01 1.07 1.11 1.15 1.25 1.30 1.42 1.57 1.71 1.73 1.74
0.26 0.39 0.49 0.68 0.68 0.67 0.92 1.09 0.80 0.65 0.67 0.68 0.68 0.66 0.66 0.83 0.95 0.98 1.05 0.97 0.82 0.78 0.69 0.72 0.80 0.81 0.87 0.88 0.81 0.72 0.72 0.75 0.80 0.78 0.70 0.71 0.77 0.79 0.90 1.04 1.04 1.05 1.10 1.19 1.30 1.40 1.46 1.55 1.52